[[{"header":{"parameterUnit":"m.s-1","parameterCategory":1,"la1":30.6,"la2":29.2853,"lo1":-89.7004,"lo2":-87.6739,"dy":0.0162,"dx":0.0183,"nx":112,"ny":82,"refTime":"2024-04-01T18:00:00:Z","depth":0,"parameterNumber":2,"parameterNumberName":"U-component_of_WINDS"},"data":[0.0,0.0,0.0,0.0,0.0,0.0,0.0,0.0,0.0,0.0,0.0,0.0,0.0,0.0,0.0,0.0,0.0,0.0,0.0,0.0,0.0,0.0,0.0,0.0,0.0,0.0,0.0,0.0,0.0,0.0,0.0,0.0,0.0,0.0,0.0,0.0,0.0,0.0,0.0,0.0,0.0,0.0,0.0,0.0,0.0,0.0,0.0,0.0,0.0,0.0,0.0,0.0,0.0,0.0,0.0,0.0,0.0,0.0,0.0,0.0,0.0,0.0,0.0,0.0,0.0,0.0,0.0,0.0,0.0,0.0,0.0,0.0,0.0,0.0,0.0,0.0,0.0,0.0,0.0,0.0,0.0,0.0,0.0,0.0,0.0,0.0,0.0,0.0,0.0,0.0,0.0,2.8394,2.8102,2.7754,2.7409,2.7334,2.7147,2.6808,0.0,0.0,0.0,0.0,0.0,0.0,0.0,0.0,0.0,0.0,0.0,0.0,0.0,0.0,0.0,0.0,0.0,0.0,0.0,0.0,0.0,0.0,0.0,0.0,0.0,0.0,0.0,0.0,0.0,0.0,0.0,0.0,0.0,0.0,0.0,0.0,0.0,0.0,0.0,0.0,0.0,0.0,0.0,0.0,0.0,0.0,0.0,0.0,0.0,0.0,0.0,0.0,0.0,0.0,0.0,0.0,0.0,0.0,0.0,0.0,0.0,0.0,0.0,0.0,0.0,0.0,0.0,0.0,0.0,0.0,0.0,0.0,0.0,0.0,0.0,0.0,0.0,0.0,0.0,0.0,0.0,0.0,0.0,0.0,0.0,0.0,0.0,0.0,0.0,0.0,0.0,0.0,0.0,0.0,0.0,0.0,0.0,0.0,0.0,0.0,0.0,0.0,0.0,0.0,2.8725,2.842,2.8102,2.7869,2.7794,2.7517,2.7255,2.7192,0.0,0.0,0.0,0.0,0.0,0.0,0.0,0.0,0.0,0.0,0.0,0.0,0.0,0.0,0.0,0.0,0.0,0.0,0.0,0.0,0.0,0.0,0.0,0.0,0.0,0.0,0.0,0.0,0.0,0.0,0.0,0.0,0.0,0.0,0.0,0.0,0.0,0.0,0.0,0.0,0.0,0.0,0.0,0.0,0.0,0.0,0.0,0.0,0.0,0.0,0.0,0.0,0.0,0.0,0.0,0.0,0.0,0.0,0.0,0.0,0.0,0.0,0.0,0.0,0.0,0.0,0.0,0.0,0.0,0.0,0.0,0.0,0.0,0.0,0.0,0.0,0.0,0.0,0.0,0.0,0.0,0.0,0.0,0.0,0.0,0.0,0.0,0.0,0.0,0.0,0.0,0.0,0.0,0.0,0.0,0.0,0.0,0.0,0.0,0.0,0.0,0.0,0.0,2.8749,2.8929,2.8749,2.8583,2.8404,2.8183,2.7851,2.753,2.7317,2.6939,0.0,0.0,0.0,0.0,0.0,0.0,0.0,0.0,0.0,0.0,0.0,0.0,0.0,0.0,0.0,0.0,0.0,0.0,0.0,0.0,0.0,0.0,0.0,0.0,0.0,0.0,0.0,0.0,0.0,0.0,0.0,0.0,0.0,0.0,0.0,0.0,0.0,0.0,0.0,0.0,0.0,0.0,0.0,0.0,0.0,0.0,0.0,0.0,0.0,0.0,0.0,0.0,0.0,0.0,0.0,0.0,0.0,0.0,0.0,0.0,0.0,0.0,0.0,0.0,0.0,0.0,0.0,0.0,0.0,0.0,0.0,0.0,0.0,0.0,0.0,0.0,0.0,0.0,0.0,0.0,0.0,0.0,0.0,0.0,0.0,0.0,0.0,0.0,0.0,0.0,0.0,0.0,0.0,0.0,0.0,0.0,0.0,0.0,0.0,0.0,0.0,0.0,2.8815,2.8994,2.8994,2.8994,2.8881,2.8565,2.8147,2.7783,2.7439,2.6954,0.0,0.0,0.0,0.0,0.0,0.0,0.0,0.0,0.0,0.0,0.0,0.0,0.0,0.0,0.0,0.0,0.0,0.0,0.0,0.0,0.0,0.0,0.0,0.0,0.0,0.0,0.0,0.0,0.0,0.0,0.0,0.0,0.0,0.0,0.0,0.0,0.0,0.0,0.0,0.0,0.0,0.0,0.0,0.0,0.0,0.0,0.0,0.0,0.0,0.0,0.0,0.0,0.0,0.0,0.0,0.0,0.0,0.0,0.0,0.0,0.0,0.0,0.0,0.0,0.0,0.0,0.0,0.0,0.0,0.0,0.0,0.0,0.0,0.0,0.0,0.0,0.0,0.0,0.0,0.0,0.0,0.0,0.0,0.0,0.0,0.0,0.0,0.0,0.0,0.0,0.0,0.0,0.0,0.0,0.0,0.0,0.0,0.0,0.0,0.0,0.0,0.0,2.8975,2.8994,2.8994,2.8994,2.8994,2.8952,2.8326,2.7897,2.7869,2.7115,0.0,0.0,0.0,0.0,0.0,0.0,0.0,0.0,0.0,0.0,0.0,0.0,0.0,0.0,0.0,0.0,0.0,0.0,0.0,0.0,0.0,0.0,0.0,0.0,0.0,0.0,0.0,0.0,0.0,0.0,0.0,0.0,0.0,0.0,0.0,0.0,0.0,0.0,0.0,0.0,0.0,0.0,0.0,0.0,0.0,0.0,0.0,0.0,0.0,0.0,0.0,0.0,0.0,0.0,0.0,0.0,0.0,0.0,0.0,0.0,0.0,0.0,0.0,0.0,0.0,0.0,0.0,0.0,0.0,0.0,0.0,0.0,0.0,0.0,0.0,0.0,0.0,0.0,0.0,0.0,0.0,0.0,0.0,0.0,0.0,0.0,0.0,0.0,0.0,0.0,0.0,0.0,0.0,0.0,0.0,0.0,0.0,0.0,0.0,0.0,0.0,0.0,2.8994,2.8994,0.0,2.8994,2.8994,2.8994,2.8533,2.8129,2.7926,0.0,0.0,0.0,0.0,0.0,0.0,0.0,0.0,0.0,0.0,0.0,0.0,0.0,0.0,0.0,0.0,0.0,0.0,0.0,0.0,0.0,0.0,0.0,0.0,0.0,0.0,0.0,0.0,0.0,0.0,0.0,0.0,0.0,0.0,0.0,0.0,0.0,0.0,0.0,0.0,0.0,0.0,0.0,0.0,0.0,0.0,0.0,0.0,0.0,0.0,0.0,0.0,0.0,0.0,0.0,0.0,0.0,0.0,0.0,0.0,0.0,0.0,0.0,0.0,0.0,0.0,0.0,0.0,0.0,0.0,0.0,0.0,0.0,0.0,0.0,0.0,0.0,0.0,0.0,0.0,0.0,0.0,0.0,0.0,0.0,0.0,0.0,0.0,0.0,0.0,0.0,0.0,0.0,0.0,0.0,0.0,0.0,0.0,0.0,0.0,0.0,0.0,2.8994,2.8994,2.8994,0.0,2.8994,2.8994,2.8994,2.8633,2.8298,2.8075,0.0,0.0,0.0,0.0,0.0,0.0,0.0,0.0,0.0,0.0,0.0,0.0,0.0,0.0,0.0,0.0,0.0,0.0,0.0,0.0,0.0,0.0,0.0,0.0,0.0,0.0,0.0,0.0,0.0,0.0,0.0,0.0,0.0,0.0,0.0,0.0,0.0,0.0,0.0,0.0,0.0,0.0,0.0,0.0,0.0,0.0,0.0,0.0,0.0,0.0,0.0,0.0,0.0,0.0,0.0,0.0,0.0,0.0,0.0,0.0,0.0,0.0,0.0,0.0,0.0,0.0,0.0,0.0,0.0,0.0,0.0,0.0,0.0,0.0,0.0,0.0,0.0,0.0,0.0,0.0,0.0,0.0,0.0,0.0,0.0,0.0,0.0,0.0,0.0,0.0,0.0,0.0,0.0,0.0,0.0,0.0,0.0,0.0,0.0,0.0,0.0,0.0,2.8994,2.8994,2.8994,2.8994,2.8994,2.8994,2.8994,2.8633,2.8402,0.0,0.0,0.0,0.0,0.0,0.0,0.0,0.0,0.0,0.0,0.0,0.0,0.0,0.0,0.0,0.0,0.0,0.0,0.0,0.0,0.0,0.0,0.0,0.0,0.0,0.0,0.0,0.0,0.0,0.0,0.0,0.0,0.0,0.0,0.0,0.0,0.0,0.0,0.0,0.0,0.0,0.0,0.0,0.0,0.0,0.0,0.0,0.0,0.0,0.0,0.0,0.0,0.0,0.0,0.0,0.0,0.0,0.0,0.0,0.0,0.0,0.0,0.0,0.0,0.0,0.0,0.0,0.0,0.0,0.0,0.0,0.0,0.0,0.0,0.0,0.0,0.0,0.0,0.0,0.0,0.0,0.0,0.0,0.0,0.0,0.0,0.0,0.0,0.0,0.0,0.0,0.0,0.0,0.0,0.0,0.0,0.0,0.0,0.0,0.0,0.0,0.0,0.0,2.8994,2.8994,2.8994,2.8994,2.8994,2.8994,2.8994,2.8905,2.8682,2.842,0.0,0.0,0.0,0.0,0.0,0.0,0.0,0.0,0.0,0.0,0.0,0.0,0.0,0.0,0.0,0.0,0.0,0.0,0.0,0.0,0.0,0.0,0.0,0.0,0.0,0.0,0.0,0.0,0.0,0.0,0.0,0.0,0.0,0.0,0.0,0.0,0.0,0.0,0.0,0.0,0.0,0.0,0.0,0.0,0.0,0.0,0.0,0.0,0.0,0.0,0.0,0.0,0.0,0.0,0.0,0.0,0.0,0.0,0.0,0.0,0.0,0.0,0.0,0.0,0.0,0.0,0.0,0.0,0.0,0.0,0.0,0.0,0.0,0.0,0.0,0.0,0.0,0.0,0.0,0.0,0.0,0.0,0.0,0.0,0.0,0.0,0.0,0.0,0.0,0.0,0.0,0.0,0.0,0.0,0.0,0.0,0.0,0.0,0.0,0.0,0.0,0.0,2.8994,2.8994,2.8994,2.8994,2.8994,2.8994,2.8994,2.8994,2.8905,2.8658,0.0,0.0,0.0,0.0,0.0,0.0,0.0,0.0,0.0,0.0,0.0,0.0,0.0,0.0,0.0,0.0,0.0,0.0,0.0,0.0,0.0,0.0,0.0,0.0,0.0,0.0,0.0,0.0,0.0,0.0,0.0,0.0,0.0,0.0,0.0,0.0,0.0,0.0,0.0,0.0,0.0,0.0,0.0,0.0,0.0,0.0,0.0,0.0,0.0,0.0,0.0,0.0,0.0,0.0,0.0,0.0,0.0,0.0,0.0,0.0,0.0,0.0,0.0,0.0,0.0,0.0,0.0,0.0,0.0,0.0,0.0,0.0,0.0,0.0,0.0,0.0,0.0,0.0,0.0,0.0,0.0,0.0,0.0,0.0,0.0,0.0,0.0,0.0,0.0,0.0,0.0,0.0,0.0,0.0,0.0,0.0,0.0,0.0,0.0,0.0,0.0,0.0,2.8994,2.8994,2.8994,2.8994,2.8994,2.8994,2.8994,2.8994,2.8994,2.8994,0.0,0.0,0.0,0.0,0.0,0.0,0.0,0.0,0.0,0.0,0.0,0.0,0.0,0.0,0.0,0.0,0.0,0.0,0.0,0.0,0.0,0.0,0.0,0.0,0.0,0.0,0.0,0.0,0.0,0.0,0.0,0.0,0.0,0.0,0.0,0.0,0.0,0.0,0.0,0.0,0.0,0.0,0.0,0.0,0.0,0.0,0.0,0.0,0.0,0.0,0.0,0.0,0.0,0.0,0.0,0.0,0.0,0.0,0.0,0.0,2.9746,0.0,0.0,0.0,0.0,0.0,0.0,0.0,0.0,0.0,0.0,0.0,0.0,0.0,0.0,0.0,0.0,0.0,0.0,0.0,0.0,0.0,0.0,0.0,0.0,0.0,0.0,0.0,0.0,0.0,0.0,0.0,0.0,0.0,0.0,0.0,0.0,0.0,0.0,0.0,0.0,0.0,2.8994,2.8994,2.8994,2.8994,2.8994,2.8994,2.8994,2.8994,2.8994,2.8994,0.0,0.0,0.0,0.0,0.0,0.0,0.0,0.0,0.0,0.0,0.0,0.0,0.0,0.0,0.0,0.0,0.0,0.0,0.0,0.0,0.0,0.0,0.0,0.0,0.0,0.0,0.0,0.0,0.0,0.0,0.0,0.0,0.0,0.0,0.0,0.0,0.0,0.0,0.0,0.0,0.0,0.0,0.0,0.0,0.0,0.0,0.0,0.0,0.0,0.0,0.0,0.0,0.0,0.0,0.0,0.0,0.0,0.0,0.0,0.0,0.0,2.9746,0.0,0.0,0.0,0.0,0.0,0.0,0.0,0.0,0.0,0.0,0.0,0.0,0.0,0.0,0.0,0.0,0.0,0.0,0.0,0.0,0.0,0.0,0.0,0.0,0.0,0.0,0.0,0.0,0.0,0.0,0.0,0.0,0.0,0.0,0.0,0.0,0.0,0.0,0.0,0.0,2.8994,2.8994,2.8994,2.8994,2.8994,2.8994,2.8994,2.8994,2.8994,2.8994,2.8797,0.0,0.0,0.0,0.0,0.0,0.0,0.0,0.0,0.0,0.0,0.0,0.0,0.0,0.0,0.0,0.0,0.0,0.0,0.0,0.0,0.0,0.0,0.0,0.0,0.0,0.0,0.0,0.0,0.0,0.0,0.0,0.0,0.0,0.0,0.0,0.0,0.0,0.0,0.0,0.0,0.0,0.0,0.0,0.0,0.0,0.0,0.0,0.0,0.0,0.0,0.0,0.0,0.0,3.0424,3.0515,3.0515,3.0515,3.0636,3.0809,3.043,3.0193,3.0061,0.0,0.0,0.0,0.0,0.0,0.0,0.0,0.0,0.0,0.0,0.0,0.0,0.0,0.0,0.0,0.0,0.0,0.0,0.0,0.0,0.0,0.0,0.0,0.0,0.0,2.9471,2.949,0.0,0.0,0.0,0.0,0.0,0.0,0.0,0.0,0.0,0.0,0.0,0.0,2.9439,2.9439,2.9439,2.9439,2.9439,2.9439,2.9439,2.9439,2.9439,2.9439,2.9439,2.9576,0.0,0.0,0.0,0.0,0.0,0.0,0.0,0.0,0.0,0.0,0.0,0.0,0.0,0.0,0.0,0.0,0.0,0.0,0.0,0.0,0.0,0.0,0.0,0.0,0.0,0.0,0.0,0.0,0.0,0.0,0.0,0.0,3.0398,3.0398,0.0,0.0,0.0,0.0,0.0,0.0,0.0,0.0,0.0,0.0,0.0,0.0,0.0,0.0,3.0061,3.1028,3.1379,3.1153,3.2075,3.2506,3.2506,3.2506,3.2539,3.2564,3.2513,0.0,3.0355,3.033,0.0,0.0,0.0,0.0,0.0,0.0,0.0,0.0,0.0,0.0,0.0,0.0,0.0,0.0,0.0,0.0,0.0,0.0,0.0,0.0,0.0,0.0,3.1712,3.1486,3.144,3.1374,0.0,3.0522,3.0246,3.0944,3.1072,0.0,0.0,0.0,0.0,0.0,0.0,0.0,3.1072,3.1072,3.1072,3.1072,3.1072,3.1072,3.1072,3.1072,3.1072,3.1072,3.1072,3.1127,3.1169,3.1102,0.0,0.0,0.0,0.0,0.0,0.0,0.0,0.0,0.0,0.0,0.0,0.0,0.0,0.0,0.0,0.0,0.0,0.0,0.0,0.0,0.0,0.0,0.0,0.0,0.0,0.0,0.0,0.0,0.0,3.0398,3.0398,3.0398,3.0398,3.0398,0.0,0.0,0.0,0.0,0.0,0.0,0.0,0.0,0.0,3.1141,3.1564,3.1757,3.1621,3.2122,3.2314,3.221,3.2679,3.2891,3.2891,3.2891,3.2891,3.2891,3.2891,3.2487,3.1775,3.1333,3.0852,3.0398,0.0,0.0,0.0,0.0,3.0717,3.1141,3.1141,3.1341,0.0,0.0,0.0,0.0,0.0,0.0,0.0,0.0,0.0,0.0,0.0,0.0,0.0,3.1867,3.1803,3.1864,3.2029,3.1806,3.1531,0.0,3.1384,3.1384,3.1384,0.0,0.0,0.0,0.0,0.0,3.1384,3.1384,3.1384,3.1384,3.1384,3.1384,3.1384,3.1384,3.1384,3.1384,3.1384,3.1586,3.2063,3.1641,3.1554,0.0,0.0,0.0,0.0,0.0,0.0,0.0,0.0,0.0,0.0,0.0,0.0,0.0,0.0,0.0,0.0,0.0,0.0,0.0,0.0,0.0,0.0,0.0,0.0,0.0,0.0,0.0,0.0,3.0398,3.0398,3.0398,3.0398,3.0398,0.0,0.0,0.0,0.0,0.0,0.0,3.1044,3.166,3.2006,3.2006,3.2583,3.2891,3.2891,3.3122,3.3237,3.3237,3.3468,3.3564,3.3564,3.3564,3.3564,3.3564,3.3564,3.3449,3.316,3.2352,3.1621,3.1044,3.1044,3.1044,3.1044,3.1044,3.1448,3.2006,3.2006,3.241,3.2878,3.2723,0.0,3.2569,3.2364,0.0,0.0,0.0,0.0,3.2632,3.2684,3.2873,3.2974,3.271,3.2587,3.2646,3.2945,3.2959,3.2742,0.0,3.2008,3.2008,3.2008,0.0,0.0,0.0,0.0,3.2008,3.2008,3.2008,3.2008,3.2008,3.2008,3.2008,3.2008,3.2008,3.2008,3.2008,3.2008,3.2284,3.2889,3.232,3.2302,3.2908,0.0,0.0,0.0,0.0,0.0,0.0,0.0,0.0,0.0,0.0,0.0,0.0,0.0,0.0,0.0,0.0,0.0,0.0,0.0,0.0,0.0,0.0,0.0,0.0,0.0,0.0,0.0,0.0,0.0,3.0398,3.0398,0.0,0.0,0.0,0.0,3.1564,3.1641,3.1968,3.2737,3.2814,3.2833,3.2833,3.2872,3.2891,3.2891,3.3718,3.4122,3.4141,3.4968,3.5372,3.5372,3.5372,3.5372,3.5372,3.5372,3.4911,3.4064,3.3199,3.2814,3.2776,3.2776,3.2776,3.2776,3.2776,3.2795,3.2833,3.2833,3.2872,3.291,3.2878,3.2752,3.26,3.2584,3.24,0.0,0.0,3.3118,3.3777,3.403,3.471,3.5268,3.4988,3.4737,3.4459,3.419,3.3931,3.3733,0.0,3.3678,3.3678,3.3678,0.0,3.3678,3.3678,3.3678,3.3678,3.3678,3.3678,3.3678,3.3678,3.3678,3.3678,3.3678,3.3678,3.3678,3.3678,3.3678,3.3697,3.3733,3.3697,3.3697,3.3733,3.3707,0.0,0.0,0.0,0.0,0.0,0.0,0.0,0.0,0.0,0.0,0.0,0.0,0.0,0.0,0.0,0.0,0.0,0.0,0.0,0.0,0.0,0.0,0.0,0.0,0.0,0.0,0.0,0.0,3.1179,3.1237,0.0,0.0,3.2006,3.2141,3.2449,3.2468,3.2602,3.2872,3.343,3.3737,3.3737,3.4276,3.4584,3.4584,3.4891,3.5045,3.5045,3.5353,3.5493,3.5493,3.5493,3.5493,3.5493,3.5493,3.5334,3.5007,3.4699,3.391,3.2891,3.2891,3.2891,3.2891,3.2891,3.3256,3.3737,3.3737,3.4103,3.4584,3.4584,3.4524,3.4467,3.4467,3.44,3.4336,3.4434,3.4674,3.4918,3.5012,3.5276,3.5432,3.5155,3.4908,3.4612,3.4269,3.3986,3.3807,3.3807,3.3807,3.3807,3.3807,3.3807,3.3807,3.3807,3.3807,3.3807,3.3807,3.3807,3.3807,3.3807,3.3807,3.3807,3.3807,3.3807,3.3807,3.3807,3.3807,3.3807,3.3807,3.3807,3.3807,3.3807,3.3807,3.3807,0.0,0.0,0.0,0.0,0.0,0.0,0.0,0.0,0.0,0.0,0.0,0.0,0.0,0.0,0.0,0.0,0.0,0.0,0.0,0.0,0.0,0.0,0.0,0.0,0.0,0.0,3.1468,3.2045,3.2102,3.2314,3.2852,3.2891,3.3026,3.3314,3.3333,3.3468,3.3757,3.4314,3.4641,3.4641,3.5199,3.5493,3.5493,3.5493,3.5493,3.5493,3.5493,3.5493,3.5493,3.5493,3.5493,3.5493,3.5493,3.5493,3.5493,3.5493,3.4834,3.3776,3.3776,3.3776,3.3776,3.3776,3.4141,3.4641,3.4641,3.5026,3.5493,3.5493,3.5493,3.5493,3.5493,3.5493,3.5493,3.5493,3.5493,3.5493,3.5493,3.5493,3.5465,3.5289,3.4963,3.4674,3.4532,3.4195,3.3961,3.4087,3.3928,3.3815,3.3928,3.3935,3.3935,3.3935,3.3935,3.3902,3.3815,3.3807,3.3807,3.3807,3.3807,3.3807,3.3807,3.3807,3.3807,3.3807,3.3807,3.3807,3.3807,3.3807,3.3807,3.3807,3.3807,3.3807,3.3807,0.0,0.0,0.0,0.0,0.0,0.0,0.0,0.0,0.0,0.0,0.0,0.0,0.0,0.0,0.0,0.0,0.0,0.0,0.0,0.0,0.0,0.0,0.0,3.1852,3.241,3.291,3.2949,3.2949,3.2949,3.2987,3.2987,3.3333,3.418,3.4237,3.4622,3.5488,3.5545,3.5565,3.5584,3.5584,3.5584,3.5584,3.5584,3.5584,3.5584,3.5584,3.5584,3.5584,3.5584,3.5584,3.5584,3.5584,3.5584,3.5584,3.5584,3.5584,3.557,3.5526,3.5493,3.5493,3.5493,3.5493,3.5493,3.5493,3.5493,3.5493,3.5493,3.5493,3.5493,3.5493,3.5493,3.5493,3.5493,3.5493,3.5493,3.5493,3.5493,3.5493,3.5493,3.5105,3.4774,3.5034,3.4636,3.4311,3.4632,3.4232,3.3902,3.4171,3.42,3.42,3.42,3.42,0.0,3.3842,3.3807,3.3807,3.3807,3.3807,3.3807,3.3807,3.3807,3.3807,3.3807,3.3807,3.3807,3.3807,3.3807,3.3807,3.3807,3.3807,3.3807,3.3807,0.0,0.0,0.0,0.0,0.0,0.0,0.0,0.0,0.0,0.0,0.0,0.0,0.0,0.0,0.0,0.0,0.0,0.0,0.0,0.0,0.0,0.0,3.3545,3.2699,3.2756,3.3122,3.3776,3.3833,3.4083,3.4718,3.4795,3.4891,3.5122,3.5141,3.5507,3.6334,3.6372,3.6661,3.7296,3.7315,3.7315,3.7315,3.7315,3.7315,3.7315,3.7315,3.7315,3.7315,3.7315,3.7315,3.7315,3.7315,3.7315,3.7315,3.7315,3.7315,3.7199,3.5968,3.5493,3.5493,3.5493,3.5493,3.5493,3.5493,3.5493,3.5493,3.5493,3.5493,3.5493,3.5493,3.5493,3.5493,3.5493,3.5493,3.5493,3.5493,3.5493,3.5493,3.5493,3.5239,3.4999,3.5088,3.4813,3.4593,3.4674,3.4569,3.4483,3.4551,3.4551,3.4486,3.4242,3.42,0.0,3.3842,3.3807,3.3807,3.3807,3.3807,3.3807,3.3807,3.3807,3.3807,3.3807,3.3807,3.3807,3.3807,3.3807,3.3807,3.3807,3.3807,3.3807,0.0,0.0,0.0,0.0,0.0,0.0,0.0,0.0,0.0,0.0,0.0,0.0,0.0,0.0,0.0,0.0,0.0,0.0,0.0,0.0,0.0,0.0,3.4257,3.4603,3.4064,3.3987,3.4199,3.4718,3.4795,3.5007,3.5526,3.5911,3.6122,3.6089,3.643,3.6815,3.7219,3.7238,3.7488,3.7988,3.8007,3.8007,3.8007,3.8007,3.8007,3.8007,3.8007,3.8007,3.8007,3.8007,3.8007,0.0,3.8007,3.8007,3.8007,3.8007,3.8007,0.0,0.0,0.0,0.0,0.0,3.6546,3.6546,3.6546,3.6546,3.6546,3.6546,3.6546,3.6546,3.6546,3.6546,3.6546,3.6546,3.6546,3.6546,3.6546,3.6546,3.6546,3.6546,3.6339,3.6188,3.6291,3.6099,3.5951,3.6044,3.6081,0.0,3.5894,3.5306,3.4813,3.4615,3.4489,3.4334,3.4208,3.3954,3.3842,3.3961,3.3868,3.3807,3.3807,3.3807,0.0,0.0,0.0,3.3807,3.3807,3.3807,0.0,0.0,0.0,3.3807,3.3807,0.0,0.0,0.0,3.339,3.3302,0.0,0.0,0.0,0.0,0.0,0.0,0.0,0.0,0.0,0.0,0.0,0.0,0.0,0.0,0.0,0.0,3.5084,3.5597,3.5541,3.552,3.5545,3.5603,3.5701,3.5785,3.5843,3.6627,3.7109,3.7063,3.7767,3.8195,3.818,0.0,0.0,0.0,0.0,3.8296,3.8296,3.8296,3.8277,3.8277,3.8277,3.8277,3.8277,3.8277,3.8277,3.8277,3.8277,3.8277,3.8277,3.8277,3.8277,3.8257,3.8065,3.8007,3.8007,3.8007,3.8007,3.8007,3.8007,0.0,0.0,3.8007,3.8007,3.8007,3.8007,3.8007,3.8007,3.8007,3.8007,3.8007,3.8007,3.8007,3.8007,3.8007,3.7827,3.7706,3.7959,3.7811,3.7725,3.7959,3.8007,3.7909,3.7617,3.6325,3.5354,3.5284,3.5077,3.4915,3.4873,3.434,3.4023,3.4253,0.0,0.0,3.3807,3.3807,3.3807,3.3807,3.3807,3.3807,3.3807,3.3807,3.3807,3.3807,3.3807,3.3807,3.3807,3.3807,3.3807,3.3788,3.3419,3.3465,0.0,0.0,0.0,0.0,0.0,0.0,0.0,0.0,0.0,0.0,0.0,0.0,0.0,0.0,0.0,3.5559,3.5622,3.5675,3.5657,3.5662,3.5661,3.5603,3.6269,3.6728,3.6748,3.7533,3.8039,3.8039,3.8182,3.858,3.9264,3.9191,0.0,4.0235,4.01,4.0065,4.0177,4.0065,4.0008,4.0008,0.0,0.0,4.0008,4.0008,4.0008,4.0008,4.0008,4.0008,4.0008,4.0008,4.0008,3.9873,3.8527,3.8007,3.8007,3.8007,3.8007,3.8007,3.8007,3.8007,3.8007,3.8007,3.8007,3.8007,3.8007,3.8007,0.0,3.8007,3.8007,3.8007,3.8007,3.8007,3.8007,3.8007,3.7959,3.7943,3.7973,3.7959,3.7943,3.7988,3.8007,3.7973,3.7909,3.7419,3.6901,3.6447,3.6347,3.6242,3.6019,3.5285,3.478,3.4843,3.4219,3.3807,3.3807,3.3807,3.3807,3.3807,3.3807,3.3807,3.3807,3.3807,3.3807,3.3807,3.3807,3.3807,3.3807,3.3807,3.3807,3.3807,3.3707,3.3734,0.0,0.0,0.0,0.0,0.0,0.0,0.0,0.0,0.0,0.0,0.0,3.5091,0.0,0.0,3.5803,3.5805,3.5797,3.5777,3.5714,3.5792,3.6001,3.6348,3.6822,3.7284,3.7753,3.8583,3.9071,3.9013,3.9402,3.9816,4.0184,4.0134,4.0333,4.0773,4.0694,4.0688,4.0754,4.0658,4.06,4.06,4.0543,4.0489,4.0489,4.0489,4.0489,4.0489,4.0489,4.0489,4.0489,4.0489,4.0489,4.0412,3.9585,3.9238,3.9238,3.9238,3.9238,3.9238,3.9238,3.9238,3.9238,3.9238,3.9238,3.9238,3.9238,3.9238,3.9238,3.9238,3.9238,3.9238,3.9238,3.9238,3.9238,3.9238,3.9238,3.9238,3.9238,3.9238,3.9238,3.9238,3.9238,3.9208,3.9076,3.8916,3.8461,3.7488,3.7084,3.6948,3.7125,3.6397,3.598,3.626,3.5834,3.5328,3.4894,3.4479,3.4184,3.3993,3.4012,3.3935,3.3807,3.3807,3.3807,3.3807,3.3807,3.3807,3.3807,3.3807,3.3807,3.3807,3.3807,3.3807,0.0,0.0,0.0,0.0,0.0,0.0,0.0,0.0,3.5853,3.5661,3.5776,3.5853,3.5699,3.5807,3.5875,3.5773,3.586,3.5873,3.5767,3.6037,3.6559,3.7384,3.7474,3.7844,3.8768,3.9648,4.0117,4.0,4.0644,4.0988,4.0883,4.0857,4.0921,4.1112,4.1063,4.114,4.1345,4.126,4.1152,4.0966,4.085,4.0716,4.0562,4.0562,4.0562,4.0543,4.0508,4.0489,4.0489,4.0489,4.0489,4.0489,4.0489,4.0489,4.0489,4.0489,4.0489,4.0489,4.0489,4.0489,4.0489,4.0489,4.0489,4.0489,4.0489,4.0489,4.0489,4.0489,4.0489,4.0489,4.0489,4.0489,4.0489,4.0489,4.0489,4.0489,4.0489,4.0489,4.0489,4.0489,4.0489,4.0422,4.0213,4.0177,3.9755,3.8501,3.7908,3.775,3.8238,3.7553,3.7216,3.77,3.743,3.6927,3.6207,3.5564,3.5063,3.4801,3.4582,3.4364,3.4142,3.3934,3.3807,3.3807,3.3807,3.3807,3.3807,3.3807,3.388,3.4027,3.4027,3.3954,3.5859,3.5937,0.0,3.5996,3.5996,3.5976,0.0,0.0,3.5853,3.5718,3.5795,3.5892,3.5872,3.5924,3.5976,3.5975,3.5972,3.5974,3.5976,3.6661,3.7479,3.835,3.8436,3.8786,3.9668,4.0547,4.1055,4.1035,4.1113,4.1172,4.1151,4.1033,4.1364,4.2199,4.2045,4.2376,4.3273,4.3163,4.271,4.194,4.1921,4.152,4.0773,4.0773,4.0735,4.0677,4.0562,4.0489,4.0489,4.0489,4.0489,4.0489,4.0489,4.0489,4.0489,4.0489,4.0489,4.0489,4.0489,4.0489,4.0489,4.0489,4.0489,4.0489,4.0489,4.0489,4.0489,4.0489,4.0489,4.0489,4.0489,4.0489,4.0489,4.0489,4.0489,4.0489,4.0489,4.0489,4.0489,4.0489,4.0489,4.0489,4.0457,4.0457,4.0226,3.9532,3.9362,3.9339,3.9407,3.8716,3.8241,3.8307,3.7646,3.7154,3.706,3.6965,3.6906,3.6885,3.5904,3.5323,3.5317,3.4341,3.3807,3.3807,3.3807,3.3807,3.3807,3.3807,3.4174,3.4862,3.4862,3.4486,3.5996,0.0,0.0,0.0,3.5996,3.5976,3.5918,3.5893,3.5853,3.5736,3.5801,3.5892,3.5892,3.5943,3.5996,0.0,3.5996,3.5995,3.5996,3.6753,3.7611,3.8497,3.9047,3.9707,4.0566,4.0996,4.1191,4.1191,4.1191,4.1406,4.1875,4.1855,4.2226,4.3125,4.3076,4.323,4.3652,4.3562,4.3331,4.2962,4.2884,4.2671,4.2311,4.2311,4.2022,4.1501,4.1463,4.1116,4.062,4.062,4.0581,4.0489,4.0489,4.0489,4.0489,4.0489,4.0489,4.0489,4.0489,4.0489,4.0489,4.0489,4.0489,4.0489,4.0489,4.0489,4.0489,4.0489,4.0489,4.0489,4.0489,4.0489,4.0489,4.0489,4.0489,4.0489,4.0489,4.0489,4.0489,4.0489,4.0489,4.0489,4.0489,4.0489,4.0422,4.0157,4.0003,3.9963,4.0101,3.9699,3.945,3.9604,3.8895,3.8418,3.8418,3.7959,3.76,3.7433,3.6994,3.6556,3.6205,3.5739,3.5401,3.5257,3.5238,3.5238,3.5238,3.5238,3.544,3.5771,3.5771,3.5587,3.5996,0.0,0.0,3.5996,3.5996,3.5996,3.5937,3.5937,3.5896,3.5806,3.5869,3.5921,3.5921,3.5977,0.0,3.5996,3.5996,3.6074,3.6328,3.7109,3.7988,3.8848,3.9726,4.0508,4.1133,4.1191,4.1191,4.1191,4.1406,4.1797,4.2363,4.2637,4.3164,4.4023,4.4062,4.418,4.4414,4.4375,4.423,4.3986,4.3888,4.3713,4.3479,4.346,4.3121,4.2513,4.2467,4.2079,4.1434,4.1397,4.1331,4.1235,4.1219,4.1219,4.1219,4.1219,4.0912,4.0489,4.0489,4.0489,4.0489,4.0489,4.0489,4.0489,4.0489,4.0489,4.0489,4.0489,4.0489,4.0489,4.0489,4.0489,4.0489,4.0489,4.0489,4.0489,4.0489,4.0489,4.0489,4.0489,4.0489,4.0489,4.0489,4.0489,4.0489,4.0489,4.0339,4.0286,4.0473,4.0339,4.0267,4.0473,3.9969,3.9623,3.9623,3.9046,3.86,3.8412,3.8041,3.7616,3.7186,3.6801,3.649,3.6285,3.6303,3.6303,3.6303,3.6303,3.6413,3.6615,3.6615,3.6743,0.0,0.0,3.5996,3.5996,3.5996,3.5996,3.5996,3.5996,3.5996,3.5996,3.5996,3.5996,3.5996,3.5996,3.5996,3.5996,3.5996,3.6309,3.7148,3.8008,3.8887,3.9766,4.0625,4.1172,0.0,4.1191,4.1191,4.1191,4.1914,4.2363,4.2402,4.3203,4.4062,4.4922,4.4961,4.5371,4.6211,4.6211,4.5781,4.4961,4.4941,4.4512,4.3691,4.3613,4.3574,4.3553,4.3415,4.3339,4.3303,4.3187,4.3118,4.3118,4.3063,4.3028,4.3028,4.3028,4.195,4.0489,4.0489,4.0489,4.0489,4.0489,4.0489,4.0489,4.0489,4.0489,4.0489,4.0489,4.0489,4.0489,4.0489,4.0489,4.0489,4.0489,4.0489,4.0489,4.0489,4.0489,4.0489,4.0489,4.0489,4.0489,4.0489,4.0489,4.0489,4.0489,4.0489,4.0489,4.0489,4.0489,4.0489,4.0489,4.0469,4.045,4.045,4.0431,4.0412,4.0412,3.9127,3.8357,3.8335,3.7031,3.6313,3.6303,3.6303,3.6303,3.6303,3.6303,3.6688,3.7441,3.7441,3.7863,0.0,0.0,3.5996,3.5996,3.5996,3.5996,3.5996,3.5996,3.5996,3.5996,3.5996,3.5996,3.5996,3.5996,3.5996,3.5996,3.5996,3.6309,3.7187,3.8047,3.8926,3.9805,4.0664,0.0,0.0,0.0,0.0,4.1191,4.1953,4.2656,4.3223,4.4082,4.4961,4.584,4.5859,4.5996,4.6308,4.6308,4.6152,4.5859,4.5859,4.5703,4.543,4.5391,4.5078,4.4531,4.4484,4.4103,4.3537,4.348,4.3365,4.3201,4.3181,4.3143,4.3104,4.3104,4.272,4.222,4.222,4.222,4.222,4.222,4.1835,4.1354,4.1354,4.095,4.0489,4.0489,4.0489,4.0489,4.0489,4.0489,4.0489,4.0489,4.0489,4.0489,4.0489,4.0489,4.0489,4.0489,4.0489,4.0681,4.1258,4.1354,4.1566,4.2143,4.1239,4.0489,4.0489,4.0489,4.0489,4.0489,4.0489,4.0489,4.0489,4.0489,4.0489,4.0489,3.989,3.9442,3.9207,3.8525,3.8052,3.79,3.79,3.79,3.79,3.79,3.8028,3.8303,3.8303,3.8432,0.0,3.5996,3.5996,3.5996,3.5996,3.5996,3.5996,3.5996,3.5996,3.5996,3.5996,3.5996,3.5996,3.5996,3.5996,3.5996,3.5996,3.6406,3.7598,3.8242,3.9043,4.0215,4.0859,0.0,0.0,0.0,0.0,4.1601,4.2402,4.3242,4.4121,4.498,4.5723,4.6289,4.6308,4.6308,4.6308,4.6308,4.6308,4.6308,4.6308,4.6308,4.6308,4.6308,4.5996,4.5469,4.5469,4.5117,4.4551,4.4512,4.4362,4.4153,4.4152,4.4066,4.3989,4.3989,4.3989,4.3912,4.3316,4.3104,4.3104,4.3104,4.272,4.2258,4.2258,4.1662,4.095,4.095,4.0739,4.0489,4.0489,4.0489,4.0489,4.0489,4.0739,4.095,4.095,4.12,4.1431,4.1431,4.1431,4.1604,4.2181,4.2258,4.245,4.3028,4.2143,4.1316,4.0989,4.0681,4.0489,4.0489,4.0489,4.0489,4.0489,4.0489,4.0489,4.0489,4.0139,3.9819,3.9599,3.9197,3.8884,3.8707,3.8707,3.8707,3.8707,3.8707,3.8707,3.8707,3.8707,3.8707,3.5996,3.5996,3.5996,3.5996,3.5996,3.5996,3.5996,3.5996,3.5996,3.5996,3.5996,3.5996,0.0,0.0,3.5996,3.5996,3.5996,3.6601,3.8359,3.8594,3.9258,0.0,0.0,0.0,0.0,0.0,0.0,4.2402,0.0,4.4082,4.4941,4.582,4.6308,4.6308,4.6308,4.6308,4.6308,4.6308,4.6308,4.6308,4.6308,4.6308,4.6308,4.6308,4.6308,4.6308,4.6308,4.6308,4.6289,4.6152,4.6027,4.59,4.5823,4.5719,4.5586,4.5586,4.5586,4.5355,4.3778,4.322,4.322,4.322,4.3201,4.3162,4.3162,4.2566,4.1873,4.1873,4.1277,4.0623,4.0623,4.0623,4.0623,4.0623,4.1258,4.1873,4.1873,4.2527,4.3104,4.3104,4.3124,4.3162,4.3162,4.3201,4.322,4.322,4.3181,4.2854,4.1989,4.1143,4.0623,4.0623,4.0623,4.0623,4.0623,4.0585,4.0566,4.0531,3.9963,3.9599,3.9576,3.9008,3.8707,3.8707,3.8707,3.8707,3.8707,3.8707,3.8707,3.8707,3.8707,3.8707,3.5996,3.5996,3.5996,3.5996,3.5996,3.5996,3.5996,3.5996,3.5996,3.5996,3.5996,3.5996,0.0,0.0,0.0,3.5996,3.5996,0.0,3.8359,3.8594,0.0,0.0,0.0,4.1191,4.1191,4.1738,0.0,0.0,4.3574,4.4082,4.4941,4.582,4.6308,4.6308,4.6308,4.6308,4.6308,4.6308,4.6308,4.6308,4.6308,4.6308,4.6308,4.6308,4.6308,4.6308,4.6308,4.6308,4.6308,4.6269,4.6105,4.59,4.5881,4.5757,4.5586,4.5586,4.5586,4.5528,4.5105,4.4951,4.4951,4.4951,4.4509,4.3989,4.3989,4.3412,4.2777,4.2777,4.2604,4.2431,4.2431,4.2431,4.2431,4.2431,4.2604,4.2777,4.2777,4.2931,4.3104,4.3104,4.3585,4.3989,4.3989,4.4528,4.4951,4.4951,4.4412,4.3701,4.2874,4.2566,4.2431,4.2431,4.2431,4.2431,4.2431,4.1835,4.1366,4.1112,4.0163,3.9505,3.9238,3.8884,3.8707,3.8707,3.8707,3.8707,3.8707,3.8707,3.8707,3.8707,3.8707,3.8707,3.5996,3.5996,3.5996,3.5996,3.5996,3.5996,3.5996,3.5996,3.5996,3.5996,3.5996,0.0,0.0,0.0,0.0,0.0,0.0,0.0,3.8359,3.8594,3.9258,0.0,4.1191,0.0,4.1699,4.2148,4.293,0.0,4.4277,4.4648,4.5527,4.6035,4.6308,4.6308,4.6308,4.6308,4.6308,4.6308,4.6308,4.6308,4.6308,4.6308,4.6308,4.6308,4.6308,4.6308,0.0,4.6308,4.6308,4.6308,4.6182,4.5981,4.5916,4.5815,4.568,4.5605,4.5586,4.5586,4.5586,4.5586,4.5586,4.5586,4.5259,4.4874,4.4874,4.4278,4.3624,4.3624,4.3374,4.3104,4.3104,4.3104,4.3104,4.3104,4.3374,4.3624,4.3624,4.3932,4.4201,4.4201,4.4547,4.4874,4.4874,4.5278,4.5586,4.5586,4.5182,4.4701,4.4259,4.3566,4.3104,4.3104,4.3104,4.3032,4.2851,4.2537,4.2142,4.1648,4.0692,4.0002,3.9639,3.9029,3.8707,3.8707,3.8707,3.8707,3.8707,3.8707,3.8707,3.8707,3.8707,3.8707,3.5996,3.5996,3.5996,3.5996,3.5996,3.5996,3.5996,3.5996,3.5996,3.5996,0.0,0.0,3.5996,0.0,3.5996,3.5996,0.0,3.6601,3.8359,3.8594,3.9258,4.0996,4.1191,4.1523,4.2324,4.25,4.3242,4.4883,4.5117,4.5508,4.6269,4.6308,4.6308,4.6308,4.6308,4.6308,4.6308,4.6308,4.6308,4.6308,4.6308,4.6308,4.6308,4.6308,4.6308,4.6308,0.0,0.0,4.6308,4.6282,4.6184,4.6063,4.5932,4.5834,4.5757,4.5624,4.5586,4.5586,4.5586,4.5586,4.5586,4.5586,4.5586,4.5586,4.5586,4.5066,4.447,4.447,4.397,4.3431,4.3431,4.3431,4.3431,4.3431,4.3951,4.447,4.447,4.5066,4.5586,4.5586,4.5586,4.5586,4.5586,4.5586,4.5586,4.5586,4.5586,4.5586,4.5586,4.4335,4.3431,4.3431,4.3431,4.327,4.2886,4.3063,4.2871,4.2146,4.1393,4.0816,4.043,3.9423,3.8854,3.8854,3.8762,3.8707,3.8707,3.8707,3.8707,3.8707,3.8817,3.8854,3.5996,3.5996,3.5996,3.5996,3.5996,3.5996,3.5996,3.5996,0.0,0.0,0.0,3.5996,3.5996,3.5996,0.0,3.5996,0.0,0.0,0.0,0.0,3.9258,0.0,0.0,0.0,0.0,0.0,0.0,0.0,0.0,4.6133,4.6289,4.6308,4.6308,4.6308,4.6308,4.6308,4.6308,4.6308,4.6308,4.6308,4.6308,4.6308,4.6308,4.6308,4.6308,4.6308,4.6308,0.0,4.6288,4.6182,4.6057,4.5932,4.5853,4.5738,4.5624,4.5605,4.5586,4.5586,4.5586,4.5586,4.5586,4.5586,4.5586,4.5586,4.5586,4.549,4.5355,4.5355,4.5259,4.5163,4.5163,4.5163,4.5163,4.5163,4.5259,4.5355,4.5355,4.549,4.5586,4.5586,4.5586,4.5586,4.5586,4.5586,4.5586,4.5586,4.5586,4.5586,4.5586,4.5336,4.5163,4.5163,4.5163,4.5035,4.4679,4.4052,4.3396,4.2688,4.1904,4.1322,4.0969,4.0134,3.968,3.968,3.9038,3.8707,3.8707,3.8707,3.8707,3.8726,3.9386,3.968,3.5996,3.5996,3.5996,3.5996,3.5996,3.5996,3.5996,0.0,0.0,0.0,0.0,3.5996,3.5996,0.0,0.0,0.0,0.0,0.0,0.0,0.0,0.0,0.0,0.0,0.0,0.0,0.0,0.0,0.0,0.0,0.0,4.6308,4.6308,4.6308,4.6308,4.6308,4.6308,4.6308,4.6308,4.6308,4.6308,4.6308,4.6308,4.6308,4.6308,4.6308,4.6308,4.6235,0.0,4.6192,4.6046,4.5964,4.5886,4.5841,4.5757,4.5699,4.5624,4.5586,4.5586,4.5586,4.5586,4.5586,4.5586,4.5586,4.5586,4.5586,4.5586,4.5586,4.5586,4.5586,4.5586,4.5586,4.5586,4.5586,4.5586,4.5586,4.5586,4.5586,4.5586,4.5586,4.5586,4.5586,4.5586,4.5586,4.5586,4.5586,4.5586,4.5586,4.5586,4.5586,4.5586,4.5586,4.5586,4.5586,4.5381,4.4896,4.4627,4.4083,4.3212,4.2556,4.2069,4.1735,4.0946,4.0524,4.0524,4.0157,3.9955,3.9955,3.9955,3.9955,3.9974,4.0341,4.0524,3.5996,3.5996,3.5996,3.5996,3.5996,3.5996,3.5996,3.5996,0.0,0.0,0.0,0.0,0.0,0.0,0.0,0.0,0.0,0.0,0.0,0.0,0.0,0.0,0.0,0.0,0.0,0.0,0.0,0.0,0.0,0.0,4.6308,4.6308,4.6308,4.6308,4.6308,4.6308,4.6308,4.6308,4.6308,4.6308,4.6308,4.6308,4.6308,4.6308,4.6285,4.6249,4.6151,0.0,0.0,4.5932,4.588,4.5873,4.5796,4.5757,4.5738,4.5624,4.5586,4.5586,4.5586,4.5586,4.5586,4.5586,4.5586,4.5586,4.5586,4.5586,4.5586,4.5586,4.5586,4.5586,4.5586,4.5586,4.5586,4.5586,4.5586,4.5586,4.5586,4.5586,4.5586,4.5586,4.5586,4.5586,4.5586,4.5586,4.5586,4.5586,4.5586,4.5586,4.5586,4.5586,4.5586,4.5586,4.5586,4.5342,4.4657,4.4849,4.458,4.3563,4.313,4.281,4.2595,4.1791,4.1368,4.1368,4.1203,4.1111,4.1111,4.1111,4.1111,4.1111,4.1295,4.1368,3.5996,3.5996,3.5996,3.5996,3.5996,3.5996,3.5996,0.0,0.0,0.0,3.5996,3.5996,0.0,0.0,0.0,0.0,0.0,0.0,0.0,0.0,0.0,0.0,0.0,0.0,0.0,0.0,0.0,0.0,0.0,0.0,4.6308,4.6308,4.6308,4.6308,4.6308,4.6308,4.6308,4.6308,4.6308,4.6308,4.6308,4.6308,4.6308,4.6308,4.6234,4.6124,4.61,0.0,0.0,4.583,4.5811,4.5796,4.568,4.5605,4.5605,4.5586,4.5586,4.5586,4.5586,4.5586,4.5586,4.5586,4.5586,4.5586,4.5586,4.5586,4.5586,4.5586,4.5586,4.5586,4.5586,4.5586,4.5586,4.5586,4.5586,4.5586,4.5586,4.5586,4.5586,4.5586,4.5586,4.5586,4.5586,4.5586,4.5586,4.5586,4.5586,4.5586,4.5586,4.5586,4.5586,4.5586,4.5586,4.5342,4.4657,4.4631,4.4308,4.3548,4.344,4.3437,4.3387,4.2616,4.2194,4.2194,4.1479,4.1111,4.1111,4.1111,4.1111,4.113,4.1864,4.2194,3.5996,3.5996,3.5996,3.5996,3.5996,3.5996,3.5996,0.0,0.0,3.5996,3.5996,3.5996,3.5996,0.0,0.0,0.0,0.0,0.0,0.0,0.0,0.0,0.0,0.0,0.0,0.0,0.0,0.0,0.0,0.0,0.0,4.6308,4.6308,4.6308,4.6308,4.6308,4.6308,4.6308,4.6308,4.6308,4.6308,4.6308,4.6308,4.6308,4.6308,4.6235,4.6103,4.6007,0.0,0.0,4.5719,4.568,4.568,4.5605,4.5586,4.5586,4.5586,4.5586,4.5586,4.5586,4.5586,4.5586,4.5586,4.5586,4.5586,4.5586,4.5586,4.5586,4.5586,4.5586,4.5586,4.5586,4.5586,4.5586,4.5586,4.5586,4.5586,4.5586,4.5586,4.5586,4.5586,4.5586,4.5586,4.5586,4.5586,4.5586,4.5586,4.5586,4.5586,4.5586,4.5586,4.5586,4.5586,4.5586,4.5419,4.4943,4.4726,4.4364,4.3818,4.3631,4.3497,4.3497,4.3185,4.302,4.302,4.2708,4.2543,4.2543,4.2543,4.2543,4.2543,4.2873,4.302,3.5996,3.5996,3.5996,3.5996,3.5996,3.5996,0.0,0.0,0.0,3.5996,3.5996,3.5996,3.5996,3.5996,3.5996,3.5996,0.0,0.0,0.0,0.0,0.0,0.0,0.0,0.0,0.0,0.0,0.0,0.0,0.0,0.0,0.0,4.6308,4.6308,4.6308,4.6308,4.6308,4.6308,4.6308,4.6308,4.6308,4.6308,4.6308,4.6308,4.6261,4.6171,4.6032,0.0,0.0,0.0,4.5624,4.5586,4.5586,4.5586,4.5586,4.5586,4.5586,4.5586,4.5586,4.5586,4.5586,4.5586,4.5586,4.5586,4.5586,4.5586,4.5586,4.5586,4.5586,4.5586,4.5586,4.5586,4.5586,4.5586,4.5586,4.5586,4.5586,4.5586,4.5586,4.5586,4.5586,4.5586,4.5586,4.5586,4.5586,4.5586,4.5586,4.5586,4.5586,4.5586,4.5586,4.5586,4.5586,4.5586,4.5457,4.5118,4.4781,4.4447,4.4046,4.3679,4.3497,4.3497,4.3497,4.3497,4.3497,4.3497,4.3497,4.3497,4.3497,4.3497,4.3497,4.3497,4.3497,3.5996,3.5996,3.5996,3.5996,3.5996,3.5996,0.0,0.0,0.0,3.5996,3.5996,3.5996,3.5996,3.5996,3.5996,3.5996,3.5996,0.0,0.0,0.0,0.0,0.0,0.0,0.0,0.0,0.0,0.0,0.0,0.0,0.0,0.0,4.6308,4.6308,4.6308,4.6308,4.6308,4.6308,4.6308,4.6308,4.6308,4.6308,4.6308,4.6308,4.6162,4.6032,0.0,0.0,0.0,0.0,4.5586,4.5586,4.5586,4.5586,4.5586,4.5586,4.5586,4.5586,4.5586,4.5586,4.5586,4.5586,4.5586,4.5586,4.5586,4.5586,4.5586,4.5586,4.5586,4.5586,4.5586,4.5586,4.5586,4.5586,4.5586,4.5586,4.5586,4.5586,4.5586,4.5586,4.5586,4.5586,4.5586,4.5586,4.5586,4.5586,4.5586,4.5586,4.5586,4.5586,4.5586,4.5586,4.5586,4.5586,4.5457,4.5118,4.4781,4.4447,4.4046,4.3679,4.3497,4.3497,4.3497,4.3497,4.3497,4.3497,4.3497,4.3497,4.3497,4.3497,4.3497,4.3497,4.3497,3.5996,3.5996,3.5996,3.5996,3.5996,3.5996,3.5996,0.0,0.0,0.0,3.5996,3.5996,3.5996,3.5996,3.5996,3.5996,3.5996,0.0,0.0,0.0,0.0,0.0,0.0,0.0,0.0,0.0,0.0,0.0,0.0,0.0,0.0,4.6308,4.6308,4.6308,4.6308,4.6308,4.6308,4.6308,4.6308,4.6308,4.6308,4.6249,4.615,4.6121,0.0,0.0,0.0,0.0,0.0,4.5586,4.5586,4.5586,4.5586,4.5586,4.5586,4.5586,4.5586,4.5586,4.5586,4.5586,4.5586,4.5586,4.5586,4.5586,4.5586,4.5586,4.5586,4.5586,4.5586,4.5586,4.5586,4.5586,4.5586,4.5586,4.5586,4.5586,4.5586,4.5586,4.5586,4.5586,4.5586,4.5586,4.5586,4.5586,4.5586,4.5586,4.5586,4.5586,4.5586,4.5586,4.5586,4.5586,4.5586,4.5568,4.5438,4.4919,4.4553,4.4419,4.3855,4.3497,4.3497,4.3497,4.3497,4.3497,4.3497,4.3497,4.3497,4.3497,4.3497,4.3497,4.3497,4.3497,0.0,3.5996,3.5996,3.5996,3.5996,0.0,0.0,0.0,0.0,0.0,3.5996,3.5996,3.5996,3.5996,3.5996,3.5996,3.5996,0.0,0.0,0.0,0.0,0.0,0.0,0.0,0.0,0.0,0.0,0.0,0.0,0.0,0.0,4.6308,4.6308,4.6308,4.6308,4.6308,4.6308,4.6308,4.6308,4.6308,4.6308,4.6222,4.6103,4.6046,0.0,0.0,0.0,0.0,0.0,4.5586,4.5586,4.5586,4.5586,4.5586,4.5586,4.5586,4.5586,4.5586,4.5586,4.5586,4.5586,4.5586,4.5586,4.5586,4.5586,4.5586,4.5586,4.5586,4.5586,4.5586,4.5586,4.5586,4.5586,4.5586,4.5836,4.6086,4.6086,4.6336,4.6528,4.6528,4.6528,4.6528,4.6528,4.6528,4.6528,4.6528,4.6278,4.6086,4.6086,4.5797,4.5586,4.5586,4.5586,4.5586,4.5586,4.5096,4.4732,4.4624,4.4035,4.3612,4.3532,4.3497,4.3497,4.3497,4.3497,4.3497,4.3497,4.3497,4.3497,4.3497,4.3497,4.3497,0.0,3.5996,3.5996,3.5996,3.5996,3.5996,0.0,0.0,0.0,0.0,0.0,3.5996,3.5996,3.5996,3.5996,3.5996,3.5996,0.0,0.0,0.0,0.0,0.0,0.0,0.0,0.0,0.0,0.0,0.0,0.0,0.0,0.0,4.6308,4.6308,4.6308,4.6308,4.6308,4.6308,4.6308,4.6308,4.6285,4.6285,4.6222,4.6065,4.595,0.0,0.0,0.0,0.0,0.0,4.5586,4.5586,4.5586,4.5586,4.5586,4.5586,4.5586,4.5586,4.5586,4.5586,4.5586,4.5586,4.5586,4.5586,4.5586,4.5586,4.5586,4.5586,4.5586,4.5586,4.5586,4.5586,4.5586,4.5605,4.5682,4.6317,4.6932,4.6971,4.7567,4.8105,4.8105,4.8105,4.8105,4.8105,4.8105,4.8105,4.8105,4.7471,4.699,4.699,4.6278,4.5778,4.5778,4.572,4.5682,4.5682,4.5301,4.4919,4.4606,4.4204,4.3818,4.3513,4.3497,4.3497,4.3497,4.3497,4.3497,4.3497,4.3497,4.3497,4.3497,4.3497,4.3516,3.5996,0.0,3.5996,3.5996,3.5996,3.5996,0.0,0.0,0.0,0.0,0.0,3.5996,3.5996,3.5996,3.5996,3.5996,0.0,0.0,0.0,0.0,0.0,0.0,0.0,0.0,0.0,0.0,0.0,0.0,0.0,0.0,0.0,4.6308,4.6308,4.6308,4.6308,4.6308,4.6308,4.6308,4.6245,4.6164,4.6164,4.6047,4.5873,4.5834,0.0,0.0,0.0,0.0,4.5586,4.5586,4.5586,4.5586,4.5586,4.5586,4.5586,4.5586,4.5586,4.5586,4.5586,4.5586,4.5586,4.5586,4.5586,4.5586,4.5586,4.5586,4.5586,4.5586,4.5586,4.5586,4.5586,4.5586,4.5759,4.6432,4.6759,4.7067,4.7702,4.7971,4.8105,4.8105,4.8105,4.8105,4.8105,4.8105,4.8105,4.8105,4.7952,4.7817,4.7817,4.7644,4.7509,4.7509,4.6971,4.6586,4.6586,4.5456,4.4682,4.4606,4.3974,4.3563,4.3479,4.3497,4.3497,4.3497,4.3497,4.3497,4.3497,4.3497,4.3497,4.3497,4.3497,4.3828,3.5996,3.5996,3.5996,3.5996,3.5996,3.5996,3.5996,0.0,0.0,0.0,0.0,0.0,3.5996,0.0,0.0,0.0,0.0,0.0,0.0,0.0,0.0,0.0,0.0,0.0,0.0,0.0,0.0,0.0,0.0,0.0,0.0,4.6308,4.6308,4.6308,4.6308,4.6308,4.6308,4.6245,4.6158,4.6103,4.6046,4.595,4.5796,4.5796,4.5738,0.0,0.0,0.0,4.5586,4.5586,4.5586,4.5586,4.5586,4.5586,4.5586,4.5586,4.5586,4.5586,4.5586,4.5586,4.5586,4.5586,4.5586,4.5586,4.5586,4.5586,4.5586,4.5586,4.5586,4.5586,4.5586,4.5586,4.5817,4.6701,4.7182,4.7682,4.8529,4.9009,4.9298,4.9298,4.9298,4.9298,4.9298,4.9298,4.9298,4.9298,4.8952,4.8702,4.8702,4.8355,4.8105,4.8105,4.7721,4.7451,4.7451,4.6552,4.5645,4.4862,4.4308,4.3931,4.3758,4.3563,4.3497,4.3497,4.3497,4.3497,4.3497,4.3864,4.4048,4.4066,4.4433,4.4819,3.5996,3.5996,3.5996,3.5996,3.5996,3.5996,0.0,0.0,0.0,0.0,0.0,0.0,0.0,0.0,0.0,0.0,0.0,0.0,0.0,0.0,0.0,0.0,0.0,0.0,0.0,0.0,0.0,0.0,0.0,0.0,0.0,4.6308,4.6308,4.6308,4.6308,4.6287,4.6273,4.6164,4.6084,4.6065,4.595,4.5834,4.5776,4.5776,4.5719,0.0,0.0,0.0,4.5586,4.5586,4.5586,4.5586,4.5586,4.5586,4.5586,4.5586,4.5586,4.5586,4.5586,4.5586,4.5586,4.5586,4.5586,4.5586,4.5586,4.5586,4.5586,4.5586,4.5586,4.5586,4.5586,4.5586,4.5836,4.6855,4.7605,4.8375,4.9375,5.0183,5.0702,5.0702,5.0702,5.0702,5.0702,5.0702,5.0702,5.0702,5.0067,4.9606,4.9606,4.8952,4.8509,4.8509,4.8375,4.8298,4.8298,4.7909,4.7073,4.5638,4.5204,4.4804,4.4419,4.4175,4.3999,4.3864,4.3915,4.395,4.3864,4.4544,4.4892,4.4911,4.5571,4.5975,3.5996,3.5996,3.5996,3.5996,3.5996,3.5996,0.0,0.0,0.0,0.0,0.0,0.0,0.0,0.0,0.0,0.0,0.0,0.0,0.0,0.0,0.0,0.0,0.0,0.0,0.0,0.0,0.0,0.0,0.0,0.0,0.0,0.0,4.6308,4.6308,4.6308,4.6255,4.6139,4.6114,4.6046,4.593,4.5853,4.5757,4.5624,4.5624,4.5605,0.0,0.0,4.5586,4.5586,4.5586,4.5586,4.5586,4.5586,4.5586,4.5586,4.5586,4.5586,4.5586,4.5586,4.5586,4.5586,4.5586,4.5586,4.5586,4.5586,4.5586,4.5586,4.5586,4.5586,4.5586,4.5586,4.5586,4.599,4.7548,4.8009,4.8548,5.0144,5.0606,5.0702,5.0702,5.0702,5.0702,5.0702,5.0702,5.0702,5.0702,5.0587,5.0491,5.0491,5.0375,5.0298,5.0298,4.9644,4.9202,4.9202,4.8472,4.7914,4.7665,4.7058,4.6544,4.6128,4.64,4.624,4.5552,4.586,4.586,4.5535,4.5663,4.5718,4.5718,4.5847,4.6269,3.5996,3.5996,3.5996,3.5996,3.5996,0.0,0.0,0.0,0.0,0.0,0.0,0.0,0.0,0.0,0.0,0.0,0.0,0.0,0.0,0.0,0.0,0.0,0.0,0.0,0.0,0.0,0.0,0.0,0.0,0.0,0.0,0.0,4.6308,4.6308,4.6308,4.624,4.6102,4.6026,4.595,4.5834,4.5738,4.5643,4.5586,4.5586,4.5586,4.5586,0.0,4.5586,4.5586,4.5586,4.5586,4.5586,4.5586,4.5586,4.5586,4.5586,4.5586,4.5586,4.5586,4.5586,4.5586,4.5586,4.5586,4.5586,4.5586,4.5586,4.5586,4.5586,4.5586,4.5586,4.5586,4.5586,4.6009,4.7702,4.8105,4.8586,5.0317,5.0702,5.0702,5.0702,5.0702,5.0702,5.0702,5.0702,5.0702,5.0702,5.0702,5.0702,5.0702,5.0702,5.0702,5.0702,5.0337,5.0087,5.0087,4.974,4.9029,4.789,4.7346,4.6977,4.6834,4.6805,4.6613,4.6231,4.6411,4.6298,4.5902,4.6342,4.6562,4.6562,4.7003,4.7388,3.5996,3.5996,3.5996,3.5996,0.0,0.0,0.0,0.0,0.0,0.0,0.0,0.0,0.0,0.0,0.0,0.0,0.0,0.0,0.0,0.0,0.0,0.0,0.0,0.0,0.0,0.0,0.0,0.0,0.0,0.0,0.0,0.0,4.6308,4.6308,4.6273,4.6193,4.6055,4.5943,4.5853,4.5796,4.5643,4.5586,4.5586,4.5586,4.5586,4.5586,4.5586,4.5586,4.5586,4.5586,4.5586,4.5586,4.5586,4.5586,4.5586,4.5586,4.5586,4.5586,4.5586,4.5586,4.5586,4.5586,4.5586,4.5586,4.5586,4.5586,4.5586,4.5586,4.5586,4.5586,4.5586,4.5586,4.597,4.7471,4.7971,4.8529,5.0048,5.0548,5.0702,5.0702,5.0702,5.0702,5.0702,5.0702,5.0702,5.0702,5.0702,5.0702,5.0702,5.0702,5.0702,5.0702,5.0702,5.0702,5.0702,5.0702,5.0008,4.8439,4.8052,4.7858,4.778,4.7617,4.7339,4.7066,4.7143,4.6954,4.6452,4.7095,4.7388,4.7407,4.8012,4.8306,3.5996,3.5996,3.5996,3.5996,0.0,0.0,0.0,0.0,0.0,0.0,0.0,0.0,0.0,0.0,0.0,0.0,0.0,0.0,0.0,0.0,0.0,0.0,0.0,0.0,0.0,0.0,0.0,0.0,0.0,0.0,0.0,0.0,0.0,4.6308,4.6171,4.6065,4.591,4.5834,4.5796,4.5796,4.5643,4.5586,4.5586,4.5586,4.5586,4.5586,4.5586,4.5586,4.5586,4.5586,4.5586,4.5586,4.5586,4.5586,4.5586,4.5586,4.5586,4.5586,4.5586,4.5586,4.5586,4.5586,4.5586,4.5586,4.5586,4.5586,4.5586,4.5586,4.5586,4.5586,4.5586,4.5586,4.5817,4.6778,4.7567,4.8355,4.9298,5.0125,5.0702,5.0702,5.0702,5.0702,5.0702,5.0702,5.0702,5.0702,5.0702,5.0702,5.0702,5.0702,5.0702,5.0702,5.0702,5.0702,5.0702,5.0702,5.0644,5.049,5.0451,5.027,4.9896,5.0208,4.9877,4.8744,4.9077,4.8907,4.8141,4.8196,4.8214,4.8233,4.8269,4.8306,3.5996,3.5996,3.5996,3.5996,0.0,0.0,0.0,0.0,0.0,0.0,0.0,0.0,0.0,0.0,0.0,0.0,0.0,0.0,0.0,0.0,0.0,0.0,0.0,0.0,0.0,0.0,0.0,0.0,0.0,0.0,0.0,0.0,0.0,4.618,4.6038,4.5919,4.5838,4.5822,4.5757,4.568,4.5605,4.5586,4.5586,4.5586,4.5586,4.5586,4.5586,4.5586,4.5586,4.5586,4.5586,4.5586,4.5586,4.5586,4.5586,4.5586,4.5586,4.5586,4.5586,4.5586,4.5586,4.5586,4.5586,4.5586,4.5586,4.5586,4.5586,4.5586,4.5586,4.5586,4.5586,4.5586,4.5817,4.6701,4.7509,4.8336,4.9202,5.0067,5.0702,5.0702,5.0702,5.0702,5.0702,5.0702,5.0702,5.0702,5.0702,5.0702,5.0702,5.0702,5.0702,5.0702,5.0702,5.0702,5.0702,5.0702,5.0702,5.0702,5.0462,5.0358,5.0483,5.0135,4.9746,4.9295,4.9171,4.8829,4.8306,4.8306,4.8306,4.8306,4.8306,4.8306,3.5976,3.5996,3.5996,0.0,0.0,0.0,0.0,0.0,0.0,0.0,0.0,0.0,0.0,0.0,0.0,0.0,0.0,0.0,0.0,0.0,0.0,0.0,0.0,0.0,0.0,0.0,0.0,0.0,0.0,0.0,0.0,0.0,0.0,0.0,4.5924,4.586,4.5796,4.5757,4.5699,4.5586,4.5586,4.5586,4.5586,4.5586,4.5586,4.5586,4.5586,4.5586,4.5586,4.5586,4.5586,4.5586,4.5586,4.5586,4.5586,4.5586,4.5586,4.5586,4.5586,4.5586,4.5586,4.5586,4.5586,4.5586,4.5586,4.5586,4.5586,4.5586,4.5586,4.5586,4.5586,4.5586,4.574,4.6355,4.7317,4.8259,4.8856,4.9894,5.0702,5.0702,5.0702,5.0702,5.0702,5.0702,5.0702,5.0702,5.0702,5.0702,5.0702,5.0702,5.0702,5.0702,5.0702,5.0702,5.0702,5.0702,5.0702,5.0702,5.0336,5.0272,5.0683,5.0043,4.9617,4.9504,4.9108,4.8692,4.8306,4.8306,4.8306,4.8306,4.8306,4.8306,3.5976,3.5996,0.0,0.0,0.0,0.0,0.0,0.0,0.0,0.0,0.0,0.0,0.0,0.0,0.0,0.0,0.0,0.0,0.0,0.0,0.0,0.0,0.0,0.0,0.0,0.0,0.0,0.0,0.0,0.0,0.0,0.0,0.0,0.0,4.5834,4.5796,4.5796,4.568,4.5586,4.5586,4.5586,4.5586,4.5586,4.5586,4.5586,4.5586,4.5586,4.5586,4.5586,4.5586,4.5586,4.5586,4.5586,4.5586,4.5586,4.5586,4.5586,4.5586,4.5586,4.5586,4.5586,4.5586,4.5586,4.5586,4.5586,4.5586,4.5586,4.5586,4.5586,4.5586,4.5586,4.5586,4.5586,4.5586,4.6874,4.8105,4.8105,4.9471,5.0702,5.0702,5.0702,5.0702,5.0702,5.0702,5.0702,5.0702,5.0702,5.0702,5.0702,5.0702,5.0702,5.0702,5.0702,5.0702,5.0702,5.0702,5.0702,5.0683,5.0336,5.0272,5.0683,5.0313,4.9898,4.9504,4.9108,4.8692,4.8306,4.8306,4.8306,4.8306,4.8306,4.8306,3.5896,3.5957,0.0,0.0,0.0,0.0,0.0,0.0,0.0,0.0,0.0,0.0,0.0,0.0,0.0,0.0,0.0,0.0,0.0,0.0,0.0,0.0,0.0,0.0,0.0,0.0,0.0,0.0,0.0,0.0,0.0,0.0,0.0,0.0,4.5719,4.5643,4.5643,4.5605,4.5586,4.5586,4.5586,4.5586,4.5586,4.5586,4.5586,4.5586,4.5586,4.5586,4.5586,4.5586,4.5586,4.5586,4.5586,4.5586,4.5586,4.5586,4.5586,4.5586,4.5586,4.5586,4.5586,4.5586,4.5586,4.5586,4.5586,4.5586,4.5586,4.5586,4.5586,4.5586,4.5586,4.5586,4.5586,4.5586,4.6874,4.8105,4.8105,4.9471,5.0702,5.0702,5.0702,5.0702,5.0702,5.0702,5.0702,5.0702,5.0702,5.0702,5.0702,5.0702,5.0702,5.0702,5.0702,5.0702,5.0702,5.0702,5.0584,5.0313,5.0159,5.0272,5.0683,4.9754,4.9307,4.9504,4.8813,4.8421,4.8306,4.8306,4.8306,4.8306,4.8306,4.8306,3.589,0.0,0.0,0.0,0.0,0.0,0.0,0.0,0.0,0.0,0.0,0.0,0.0,0.0,0.0,0.0,0.0,0.0,0.0,0.0,0.0,0.0,0.0,0.0,0.0,0.0,0.0,0.0,0.0,0.0,0.0,0.0,0.0,0.0,4.5624,4.5586,4.5586,4.5586,4.5586,4.5586,4.5586,4.5586,4.5586,4.5586,4.5586,4.5586,4.5586,4.5586,4.5586,4.5586,4.5586,4.5586,4.5586,4.5586,4.5586,4.5586,4.5586,4.5586,4.5586,4.5586,4.5586,4.5586,4.5586,4.5586,4.5586,4.5586,4.5586,4.5586,4.5586,4.5586,4.5586,4.5855,4.6124,4.6124,4.7124,4.8202,4.8548,4.9702,5.0702,5.0702,5.0702,5.0702,5.0702,5.0702,5.0702,5.0702,5.0702,5.0702,5.0702,5.0702,5.0702,5.0702,5.0565,5.0462,5.0462,5.0462,5.0294,4.9898,4.9853,4.9974,5.0206,4.9367,4.9075,4.9475,4.8692,4.8402,4.855,4.8402,4.8306,4.8306,4.8306,4.8306,0.0,0.0,0.0,0.0,0.0,0.0,0.0,0.0,0.0,0.0,0.0,0.0,0.0,0.0,0.0,0.0,0.0,0.0,0.0,0.0,0.0,0.0,0.0,0.0,0.0,0.0,0.0,0.0,0.0,0.0,0.0,0.0,0.0,0.0,4.5586,4.5586,4.5586,4.5586,4.5586,0.0,4.5586,4.5586,4.5586,4.5586,4.5586,4.5586,4.5586,4.5586,4.5586,4.5586,4.5586,4.5586,4.5586,4.5586,4.5586,4.5586,4.5586,4.5586,4.5586,4.5586,4.5586,4.5586,4.5586,4.5586,4.5586,4.5586,4.5586,4.5586,4.5586,4.5586,4.5586,4.624,4.6932,4.699,4.7625,4.8432,4.9221,5.0067,5.0702,5.0702,5.0702,5.0702,5.0702,5.0702,5.0702,5.0702,5.0663,5.0663,5.0702,5.0702,5.0683,5.0663,5.0313,5.0092,5.0043,5.0043,4.9853,4.9475,4.9445,4.9416,4.9386,4.9043,4.9011,4.9445,4.8692,4.8477,4.8829,4.8495,4.8306,4.8306,4.8306,4.8306,0.0,0.0,0.0,0.0,0.0,0.0,0.0,0.0,0.0,0.0,0.0,0.0,0.0,0.0,0.0,0.0,0.0,0.0,0.0,0.0,0.0,0.0,0.0,0.0,0.0,0.0,0.0,0.0,0.0,0.0,0.0,0.0,0.0,4.5586,4.5586,4.5586,4.5586,4.5586,4.5586,0.0,4.5586,4.5586,4.5586,4.5586,4.5586,4.5586,4.5586,4.5586,4.5586,4.5586,4.5586,4.5586,4.5586,4.5586,4.5586,4.5586,4.5586,4.5586,4.5586,4.5586,4.5586,4.5586,4.5586,4.5586,4.5586,4.5586,4.5586,4.5586,4.5586,4.5586,4.5586,4.624,4.7067,4.7702,4.8509,4.9163,4.9356,5.0067,5.0702,5.0702,5.0702,5.0702,5.0702,5.0702,5.0702,5.0702,5.0421,5.0336,5.0663,5.0702,5.0584,5.0272,5.0159,4.9974,4.9664,4.9636,4.9445,4.9043,4.9011,4.8897,4.8586,4.8477,4.864,4.9011,4.855,4.8326,4.8421,4.8326,4.8306,4.8306,4.8306,4.8306,0.0,0.0,0.0,0.0,0.0,0.0,0.0,0.0,0.0,0.0,0.0,0.0,0.0,0.0,0.0,0.0,0.0,0.0,0.0,0.0,0.0,0.0,0.0,0.0,0.0,0.0,0.0,0.0,0.0,0.0,0.0,4.5586,4.5586,4.5586,4.5586,4.5586,4.5586,4.5586,4.5586,4.5586,4.5586,4.5586,4.5586,4.5586,4.5586,4.5586,4.5586,4.5586,4.5586,4.5586,4.5586,4.5586,4.5586,4.5586,4.5586,4.5586,4.5586,4.5586,4.5586,4.5586,4.5586,4.5586,4.5586,4.5586,4.5586,4.5586,4.5586,4.5586,4.5586,4.5586,4.5586,4.6528,4.7586,4.8009,4.8779,4.951,4.9933,5.0375,5.0702,5.0702,5.0702,5.0702,5.0702,5.0544,5.0421,5.0421,5.0068,4.9949,5.0358,5.0421,5.0336,5.0116,4.9924,4.9645,4.9265,4.9202,4.9043,4.8621,4.8813,4.8709,4.8306,4.8306,4.8477,4.8897,4.8513,4.8383,4.8604,4.8383,4.8306,4.8306,4.8306,4.8306,0.0,0.0,0.0,0.0,0.0,0.0,0.0,0.0,0.0,0.0,0.0,0.0,0.0,0.0,0.0,0.0,0.0,0.0,0.0,0.0,0.0,0.0,0.0,0.0,0.0,0.0,0.0,0.0,0.0,0.0,4.5586,4.5586,4.5586,4.5586,4.5586,4.5586,4.5586,4.5586,4.5586,4.5586,4.5586,4.5586,4.5586,4.5586,4.5586,4.5586,4.5586,4.5586,4.5586,4.5586,4.5586,4.5586,4.5586,4.5586,4.5586,4.5586,4.5586,4.5586,4.5586,4.5586,4.5586,4.5586,4.5586,4.5586,4.5586,4.5586,4.5586,4.5586,4.5586,4.5586,4.5586,4.6836,4.8105,4.8105,4.8875,4.9817,5.0529,5.0702,5.0702,5.0702,5.0702,5.0683,5.0604,5.0272,5.0019,5.0019,4.9645,4.9532,4.9949,5.0019,4.9974,4.9898,4.9589,4.9234,4.8847,4.8813,4.8657,4.8344,4.8586,4.8657,4.8306,4.8306,4.8458,4.8779,4.8495,4.844,4.8813,4.844,4.8306,4.8306,4.8306,4.8306,0.0,0.0,0.0,0.0,0.0,0.0,0.0,0.0,0.0,0.0,0.0,0.0,0.0,0.0,0.0,0.0,0.0,0.0,0.0,0.0,0.0,0.0,0.0,0.0,0.0,0.0,0.0,0.0,0.0,0.0,4.5586,4.5586,4.5586,4.5586,4.5586,4.5586,4.5586,4.5586,4.5586,4.5586,4.5586,4.5586,4.5586,4.5586,4.5586,4.5586,4.5586,4.5586,4.5586,4.5586,4.5586,4.5586,4.5586,4.5586,4.5586,4.5586,4.5586,4.5586,4.5586,4.5586,4.5586,4.5586,4.5586,4.5586,4.5586,4.5586,4.5586,4.5586,4.5586,4.5586,4.5586,4.6836,4.8105,4.8105,4.9336,5.0548,5.0664,5.0702,5.0702,5.0702,5.0702,5.0604,5.0249,4.9846,4.9561,4.9561,4.9234,4.9139,4.9532,4.9561,4.9445,4.9108,4.9011,4.8813,4.8421,4.8402,4.8364,4.8306,4.8326,4.8364,4.8306,4.8306,4.8344,4.8402,4.8344,4.8344,4.8402,4.8344,4.8306,4.8306,4.8306,4.8306,0.0,0.0,0.0,0.0,0.0,0.0,0.0,0.0,0.0,0.0,0.0,0.0,0.0,0.0,0.0,0.0,0.0,0.0,0.0,0.0,0.0,0.0,0.0,0.0,0.0,0.0,0.0,0.0,0.0,4.5586,4.5586,4.5586,4.5586,4.5586,4.5586,4.5586,4.5586,4.5586,4.5586,4.5586,4.5586,4.5586,4.5586,4.5586,4.5586,4.5586,4.5586,4.5586,4.5586,4.5586,4.5586,4.5586,4.5586,4.5586,4.5586,4.5586,4.5586,4.5586,4.5586,4.5586,4.5586,4.5586,4.5586,4.5586,4.5586,4.5586,4.5586,4.5586,4.5586,4.5586,4.5586,4.6836,4.8105,4.8105,4.9433,5.0702,5.0702,5.0702,5.0702,5.0702,5.0523,5.0313,5.0135,4.9589,4.9171,4.9171,4.8813,4.8728,4.9108,4.9171,4.9108,4.893,4.8897,4.8763,4.8326,4.8306,4.8306,4.8306,4.8306,4.8306,4.8306,4.8306,4.8306,4.8306,4.8306,4.8306,4.8306,4.8306,4.8306,4.8306,4.8306,4.8306,0.0,0.0,0.0,0.0,0.0,0.0,0.0,0.0,0.0,0.0,0.0,0.0,0.0,0.0,0.0,0.0,0.0,0.0,0.0,0.0,0.0,0.0,0.0,0.0,0.0,0.0,0.0,0.0,0.0,4.5586,4.5586,4.5586,4.5586,4.5586,4.5586,4.5586,4.5586,4.5586,4.5586,4.5586,4.5586,4.5586,4.5586,4.5586,4.5586,4.5586,4.5586,4.5586,4.5586,4.5586,4.5586,4.5586,4.5586,4.5586,4.5586,4.5586,4.5586,4.5586,4.5586,4.5586,4.5586,4.5586,4.5586,4.5586,4.5586,4.5586,4.5586,4.5586,4.5586,4.5586,4.5586,4.6682,4.7855,4.8048,4.926,5.0433,5.0644,5.0624,5.0544,5.0544,5.0206,4.9924,4.9827,4.9295,4.8863,4.8779,4.8477,4.8421,4.8728,4.8744,4.8744,4.8744,4.8744,4.864,4.8344,4.8306,4.8306,4.8306,4.8306,4.8306,4.8306,4.8306,4.8306,4.8306,4.8306,4.8306,4.8306,4.8306,4.8306,4.8306,4.8306,4.8306,0.0,0.0,0.0,0.0,0.0,0.0,0.0,0.0,0.0,0.0,0.0,0.0,0.0,0.0,0.0,0.0,0.0,0.0,0.0,0.0,0.0,0.0,0.0,0.0,0.0,0.0,0.0,0.0,0.0,4.5586,4.5586,4.5586,4.5586,4.5586,4.5586,4.5586,4.5586,4.5586,4.5586,4.5586,4.5586,4.5586,4.5586,4.5586,4.5586,4.5586,4.5586,4.5586,4.5586,4.5586,4.5586,4.5586,4.5586,4.5586,4.5586,4.5586,4.5586,4.5586,4.5586,4.5586,4.5586,4.5586,4.5586,4.5586,4.5586,4.5586,4.5586,4.5586,4.5586,4.5586,4.5586,4.6278,4.7163,4.7932,4.8798,4.9683,5.051,5.0399,5.0135,5.0135,4.98,4.9416,4.9011,4.893,4.8779,4.8402,4.8306,4.8306,4.8344,4.8344,4.8344,4.8344,4.8344,4.8344,4.8306,4.8306,4.8306,4.8306,4.8306,4.8306,4.8306,4.8306,4.8306,4.8306,4.8306,4.8306,4.8306,4.8306,4.8306,4.8306,4.8306,4.8306,0.0,0.0,0.0,0.0,0.0,0.0,0.0,0.0,0.0,0.0,0.0,0.0,0.0,0.0,0.0,0.0,0.0,0.0,0.0,0.0,0.0,0.0,0.0,0.0,0.0,0.0,0.0,0.0,0.0,0.0,4.5586,4.5586,4.5586,4.5586,4.5586,4.5586,4.5586,4.5586,4.5586,4.5586,4.5586,4.5586,4.5586,4.5586,4.5586,4.5586,4.5586,4.5586,4.5586,4.5586,4.5586,4.5586,4.5586,4.5586,4.5586,4.5586,4.5586,4.5586,4.5586,4.5586,4.5586,4.5586,4.5586,4.5586,4.5586,4.5586,4.5586,4.5586,4.5586,4.5586,4.5586,4.624,4.724,4.8606,4.9163,4.9644,5.051,5.038,4.9999,4.9773,4.9386,4.9075,4.8911,4.8692,4.8458,4.8344,4.8306,4.8306,4.8306,4.8306,4.8306,4.8306,4.8306,4.8306,4.8306,4.8306,4.8306,4.8306,4.8306,4.8306,4.8306,4.8306,4.8306,4.8306,4.8306,4.8306,4.8306,4.8306,4.8306,4.8306,4.8306,4.8306,0.0,0.0,0.0,0.0,0.0,0.0,0.0,0.0,0.0,0.0,0.0,0.0,0.0,0.0,0.0,0.0,0.0,0.0,0.0,0.0,0.0,0.0,0.0,0.0,0.0,0.0,0.0,0.0,0.0,0.0,4.5586,4.5586,4.5586,4.5586,4.5586,4.5586,4.5586,4.5586,4.5586,4.5586,4.5586,4.5586,4.5586,4.5586,4.5586,4.5586,4.5586,4.5586,4.5586,4.5586,4.5586,4.5586,4.5586,4.5586,4.5586,4.5586,4.5586,4.5586,4.5586,4.5586,4.5586,4.5586,4.5586,4.5586,4.5586,4.5586,4.5586,4.5586,4.5586,4.5586,4.5586,4.624,4.7182,4.8298,4.8779,4.9144,4.9745,4.9883,4.9827,4.9532,4.9062,4.8692,4.8692,4.8495,4.8306,4.8306,4.8306,4.8306,4.8306,4.8306,4.8306,4.8306,4.8306,4.8306,4.8306,4.8306,4.8306,4.8306,4.8306,4.8306,4.8306,4.8306,4.8306,4.8306,4.8306,4.8306,4.8306,4.8306,4.8306,4.8306,4.8306,4.8306,0.0,0.0,0.0,0.0,0.0,0.0,0.0,0.0,0.0,0.0,0.0,0.0,0.0,0.0,0.0,0.0,0.0,0.0,0.0,0.0,0.0,0.0,0.0,0.0,0.0,0.0,0.0,0.0,0.0,4.5586,4.5586,4.5586,4.5586,4.5586,4.5586,4.5586,4.5586,4.5586,4.5586,4.5586,4.5586,4.5586,4.5586,4.5586,4.5586,4.5586,4.5586,4.5586,4.5586,4.5586,4.5586,4.5586,4.5586,4.5586,4.5586,4.5586,4.5586,4.5586,4.5586,4.5586,4.5586,4.5586,4.5586,4.5586,4.5586,4.5586,4.5586,4.5586,4.5586,4.5586,4.5586,4.622,4.6874,4.6894,4.7509,4.8084,4.8215,4.8881,4.9456,4.9475,4.8813,4.8306,4.8306,4.8306,4.8306,4.8306,4.8306,4.8306,4.8306,4.8306,4.8306,4.8306,4.8306,4.8306,4.8306,4.8306,4.8306,4.8306,4.8306,4.8306,4.8306,4.8306,4.8306,4.8306,4.8306,4.8306,4.8306,4.8306,4.8306,4.8306,4.8306,4.8306,3.5493,0.0,0.0,0.0,0.0,0.0,0.0,0.0,0.0,0.0,0.0,0.0,0.0,0.0,0.0,0.0,0.0,0.0,0.0,0.0,0.0,0.0,0.0,0.0,0.0,0.0,0.0,0.0,4.5586,4.5586,4.5586,4.5586,4.5586,4.5586,4.5586,4.5586,4.5586,4.5586,4.5586,4.5586,4.5586,4.5586,4.5586,4.5586,4.5586,4.5586,4.5586,4.5586,4.5586,4.5586,4.5586,4.5586,4.5586,4.5586,4.5586,4.5586,4.5586,4.5586,4.5586,4.5586,4.5586,4.5586,4.5586,4.5586,4.5586,4.5586,4.5586,4.5586,4.5586,4.5586,4.5586,4.5778,4.6124,4.6759,4.7067,4.7492,4.8419,4.8594,4.8574,4.8598,4.8458,4.8306,4.8306,4.8306,4.8306,4.8306,4.8306,4.8306,4.8306,4.8306,4.8306,4.8306,4.8306,4.8306,4.8306,4.8306,4.8306,4.8306,4.8306,4.8306,4.8306,4.8306,4.8306,4.8306,4.8306,4.8306,4.8306,4.8306,4.8306,4.8306,4.8306,4.8306,0.0,0.0,0.0,0.0,0.0,0.0,3.6103,3.6853,0.0,0.0,0.0,0.0,0.0,0.0,0.0,0.0,0.0,0.0,0.0,0.0,0.0,0.0,0.0,0.0,0.0,0.0,0.0,4.5586,4.5586,4.5586,4.5586,4.5586,4.5586,4.5586,4.5586,4.5586,4.5586,4.5586,4.5586,4.5586,4.5586,4.5586,4.5586,4.5586,4.5586,4.5586,4.5586,4.5586,4.5586,4.5586,4.5586,4.5586,4.5586,4.5586,4.5586,4.5586,4.5586,4.5586,4.5586,4.5586,4.5586,4.5586,4.5586,4.5586,4.5586,4.5586,4.5586,4.5586,4.5586,4.5586,4.5586,4.5586,4.5683,4.6052,4.6396,4.6868,4.7636,4.7899,4.8103,4.8473,4.8421,4.8306,4.8306,4.8306,4.8306,4.8306,4.8306,4.8306,4.8306,4.8306,4.8306,4.8306,4.8306,4.8306,4.8306,4.8306,4.8306,4.8306,4.8306,4.8306,4.8306,4.8306,4.8306,4.8306,4.8306,4.8306,4.8306,4.8306,4.8306,4.8306,4.8306,4.8306,0.0,0.0,0.0,0.0,0.0,0.0,3.5493,3.6122,3.693,0.0,0.0,0.0,0.0,0.0,0.0,0.0,0.0,0.0,0.0,0.0,0.0,0.0,0.0,0.0,0.0,4.5586,4.5586,4.5586,4.5586,4.5586,4.5586,4.5586,4.5586,4.5586,4.5586,4.5586,4.5586,4.5586,4.5586,4.5586,4.5586,4.5586,4.5586,4.5586,4.5586,4.5586,4.5586,4.5586,4.5586,4.5586,4.5586,4.5586,4.5586,4.5586,4.5586,4.5586,4.5586,4.5586,4.5586,4.5586,4.5586,4.5586,4.5586,4.5586,4.5586,4.5586,4.5586,4.5586,4.5586,4.5586,4.5586,4.5586,4.5513,4.5222,4.5726,4.6339,4.6438,4.7127,4.7899,4.8699,4.8532,4.8306,4.8306,4.8306,4.8306,4.8306,4.8306,4.8306,4.8306,4.8306,4.8306,4.8306,4.8306,4.8306,4.8306,4.8306,4.8306,4.8306,4.8306,4.8306,4.8306,4.8306,4.8306,4.8306,4.8306,4.8306,4.8306,4.8306,4.8306,4.8306,4.8306,4.8306,0.0,0.0,0.0,0.0,0.0,0.0,3.5493,3.6122,3.6757,0.0,0.0,0.0,0.0,0.0,0.0,0.0,0.0,0.0,0.0,0.0,0.0,0.0,0.0,0.0,0.0,4.5586,4.5586,4.5586,4.5586,4.5586,4.5586,4.5586,4.5586,4.5586,4.5586,4.5586,4.5586,4.5586,4.5586,4.5586,4.5586,4.5586,4.5586,4.5586,4.5586,4.5586,4.5586,4.5586,4.5586,4.5586,4.5586,4.5586,4.5586,4.5586,4.5586,4.5586,4.5586,4.5586,4.5586,4.5586,4.5586,4.5586,4.5586,4.5586,4.5586,4.5586,4.5586,4.5586,4.5586,4.5586,4.5586,4.5586,4.5586,4.5513,4.5913,4.6407,4.6807,4.7317,4.785,4.8329,4.8364,4.8306,4.8306,4.8306,4.8306,4.8306,4.8306,4.8306,4.8306,4.8306,4.8306,4.8306,4.8306,4.8306,4.8306,4.8306,4.8306,4.8306,4.8306,4.8306,4.8306,4.8306,4.8306,4.8306,4.8306,4.8306,4.8306,4.8306,4.8306,4.8306,4.8306,4.8306,0.0,0.0,0.0,3.5493,0.0,0.0,0.0,3.5815,3.6219,0.0,0.0,0.0,0.0,0.0,0.0,0.0,0.0,0.0,0.0,0.0,0.0,0.0,0.0,0.0,0.0,4.5586,4.5586,4.5586,4.5586,4.5586,4.5586,4.5586,4.5586,4.5586,4.5586,4.5586,4.5586,4.5586,4.5586,4.5586,4.5586,4.5586,4.5586,4.5586,4.5586,4.5586,4.5586,4.5586,4.5586,4.5586,4.5586,4.5586,4.5586,4.5586,4.5586,4.5586,4.5586,4.5586,4.5586,4.5586,4.5586,4.5586,4.5586,4.5586,4.5586,4.5586,4.5586,4.5586,4.5586,4.5586,4.5586,4.5586,4.5628,4.5696,4.6197,4.6736,4.6999,4.7559,4.8052,4.8252,4.8306,4.8306,4.8306,4.8306,4.8306,4.8306,4.8306,4.8306,4.8306,4.8306,4.8306,4.8306,4.8306,4.8306,4.8306,4.8306,4.8306,4.8306,4.8306,4.8306,4.8306,4.8306,4.8306,4.8306,4.8306,4.8306,4.8306,4.8306,4.8306,4.8306,4.8306,4.8306,0.0,0.0,0.0,0.0,0.0,3.5493,0.0,0.0,0.0,3.6334,0.0,0.0,0.0,0.0,0.0,0.0,0.0,0.0,0.0,0.0,0.0,0.0,0.0,0.0,0.0,4.5586,4.5586,4.5586,4.5586,4.5586,4.5586,4.5586,4.5586,4.5586,4.5586,4.5586,4.5586,4.5586,4.5586,4.5586,4.5586,4.5586,4.5586,4.5586,4.5586,4.5586,4.5586,4.5586,4.5586,4.5586,4.5586,4.5586,4.5586,4.5586,4.5586,4.5586,4.5586,4.5586,4.5586,4.5586,4.5586,4.5586,4.5586,4.5586,4.5513,4.555,4.5586,4.5513,4.5495,4.5495,4.5495,4.5573,4.5663,4.576,4.6469,4.7166,4.722,4.7775,4.8306,4.8306,4.8306,4.8306,4.8306,4.8306,4.8306,4.8306,4.8306,4.8306,4.8306,4.8306,4.8306,4.8306,4.8306,4.8306,4.8306,4.8306,4.8306,4.8306,4.8306,4.8306,4.8306,4.8306,4.8306,4.8306,4.8306,4.8306,4.8306,4.8306,4.8306,4.8306,4.8306,4.8306,0.0,0.0,0.0,0.0,3.5493,0.0,0.0,0.0,3.5545,3.5622,0.0,0.0,0.0,0.0,0.0,0.0,0.0,0.0,0.0,0.0,0.0,0.0,0.0,0.0,0.0,0.0,4.5586,4.5586,4.5586,4.5586,4.5586,4.5586,4.5586,4.5586,4.5586,4.5586,4.5586,4.5586,4.5586,4.5586,4.5586,4.5586,4.5586,4.5586,4.5586,4.5586,4.5586,4.5586,4.5586,4.5586,4.5586,4.5586,4.5586,4.5586,4.5586,4.5586,4.5586,4.5586,4.5586,4.5586,4.5586,4.5586,4.5586,4.5531,4.5243,4.5362,4.555,4.5243,4.5159,4.5159,4.5159,4.547,4.5791,4.5806,4.6716,4.763,4.7623,4.7996,4.8306,4.8306,4.8306,4.8306,4.8306,4.8306,4.8306,4.8306,4.8306,4.8306,4.8306,4.8306,4.8306,4.8306,4.8306,4.8306,4.8306,4.8306,4.8306,4.8306,4.8306,4.8306,4.8306,4.8306,4.8306,4.8306,4.8306,4.8306,4.8306,4.8306,4.8306,4.8306,4.8306,4.8306,0.0,0.0,0.0,0.0,0.0,0.0,0.0,0.0,3.6199,0.0,0.0,0.0,0.0,0.0,0.0,0.0,0.0,0.0,0.0,0.0,0.0,0.0,0.0,0.0,0.0,0.0,0.0,0.0,0.0,4.5586,4.5586,4.5586,4.5586,4.5586,4.5586,4.5586,4.5586,4.5586,4.5586,4.5586,4.5586,4.5495,4.5322,4.5513,4.5495,4.5322,4.5322,4.5322,4.5283,4.5096,4.5011,4.5011,4.5011,4.5263,4.5586,4.5586,4.5586,4.5586,4.5586,4.5586,4.5586,4.5586,4.5586,4.5568,4.5438,4.5342,4.5282,4.514,4.4966,4.4914,4.5388,4.564,4.5988,4.6735,4.7316,4.7772,4.7995,4.82,4.8306,4.8306,4.8306,4.8306,4.8306,4.8306,4.8306,4.8306,4.8306,4.8306,4.8306,4.8306,4.8306,4.8306,4.8306,4.8306,4.8306,4.8306,4.8306,4.8306,4.8306,4.8306,4.8306,4.8306,4.8306,4.8306,4.8306,4.8306,4.8306,4.8306,4.8306,4.8306,4.8306,4.8306,3.8007,0.0,0.0,0.0,0.0,0.0,0.0,0.0,0.0,0.0,0.0,0.0,0.0,0.0,0.0,0.0,0.0,0.0,0.0,0.0,0.0,0.0,0.0,0.0,0.0,0.0,0.0,0.0,4.5451,4.5586,4.5586,4.5586,4.5586,4.5586,4.5586,4.5586,4.5586,4.5586,4.5586,4.5586,4.5586,4.5419,4.5096,4.5342,4.5322,4.5096,4.4988,4.503,4.5074,4.4751,4.458,4.458,4.458,4.4896,4.5322,4.5322,4.5322,4.5342,4.5438,4.5457,4.5457,4.5457,4.54,4.5322,4.5184,4.5077,4.4943,4.483,4.4782,4.4917,4.5491,4.5913,4.6389,4.733,4.7692,4.7955,4.8254,4.8306,4.8306,4.8306,4.8306,4.8306,4.8306,4.8306,4.8306,4.8306,4.8306,4.8306,4.8306,4.8306,4.8306,4.8306,4.8306,4.8306,4.8306,4.8306,4.8306,4.8306,4.8306,4.8306,4.8306,4.8306,4.8306,4.8306,4.8306,4.8306,4.8306,4.8306,4.8306,4.8306,4.8306,4.8306,0.0,0.0,0.0,3.7988,0.0,0.0,0.0,0.0,3.7969,0.0,0.0,0.0,0.0,0.0,0.0,4.0489,0.0,0.0,0.0,0.0,0.0,0.0,0.0,0.0,0.0,0.0,0.0,4.4335,4.5124,4.5586,4.5586,4.5586,4.5586,4.5586,4.5586,4.5586,4.5586,4.5586,4.5586,4.5586,4.5586,4.5419,4.5096,4.5096,4.5096,4.5074,4.4776,4.48,4.5074,4.4751,4.458,4.458,4.458,4.4606,4.4631,4.4631,4.4631,4.4682,4.4988,4.5118,4.5118,4.5118,4.4896,4.4553,4.4175,4.4318,4.4527,4.4146,4.4606,4.519,4.5208,4.6126,4.7077,4.7095,4.77,4.8269,4.8306,4.8306,4.8306,4.8306,4.8306,4.8306,4.8306,4.8306,4.8306,4.8306,4.8306,4.8306,4.8306,4.8306,4.8306,4.8306,4.8306,4.8306,4.8306,4.8306,4.8306,4.8306,4.8306,4.8306,4.8306,4.8306,4.8306,4.8306,4.8306,4.8306,4.8306,4.8306,4.8306,4.8306,4.8306,4.8306,0.0,0.0,3.8988,3.9508,0.0,0.0,0.0,0.0,0.0,0.0,0.0,0.0,0.0,0.0,4.0489,4.0489,4.0489,0.0,0.0,0.0,0.0,0.0,0.0,0.0,0.0,0.0,0.0,4.4259,4.4566,4.4989,0.0,4.5586,4.5586,4.5586,4.5586,4.5586,4.5586,4.5586,4.5586,4.5586,4.5586,4.5322,4.4776,4.5007,4.483,4.4373,4.4261,4.4261,4.4346,4.4004,4.3868,4.3868,4.3868,4.3868,4.3931,4.4419,4.458,4.4624,4.4751,4.4776,4.4776,4.4776,4.4682,4.458,4.4447,4.4665,4.498,4.4829,4.5208,4.5766,4.6319,4.6783,4.7241,4.7774,4.8104,4.8306,4.8306,4.8306,4.8306,4.8306,4.8306,4.8306,4.8306,4.8306,4.8306,4.8306,4.8306,4.8306,4.8306,4.8306,4.8306,4.8306,4.8306,4.8306,4.8306,4.8306,4.8306,4.8306,4.8306,4.8306,4.8306,4.8306,4.8306,4.8306,4.8306,4.8306,4.8306,4.8306,4.8306,4.8306,4.8306,4.8306,4.0489,4.0123,0.0,4.0354,4.0104,0.0,3.9719,0.0,0.0,0.0,0.0,0.0,0.0,0.0,0.0,4.0489,4.0489,4.0489,0.0,4.0489,0.0,0.0,0.0,0.0,0.0,0.0,4.2748,4.3082,4.3844,4.4493,0.0,0.0,4.5586,4.5586,4.5586,4.5586,4.5586,4.5586,4.5586,4.5586,4.5586,4.5322,4.4781,4.4872,4.4663,4.4204,4.3943,4.3881,4.3986,4.3646,4.3497,4.3497,4.3497,4.3497,4.3548,4.4035,4.428,4.4392,4.4392,4.4392,4.4392,4.4392,4.4515,4.4643,4.4643,4.501,4.5467,4.5467,4.5858,4.6452,4.6985,4.7333,4.7682,4.8196,4.8306,4.8306,4.8306,4.8306,4.8306,4.8306,4.8306,4.8306,4.8306,4.8306,4.8306,4.8306,4.8306,4.8306,4.8306,4.8306,4.8306,4.8306,4.8306,4.8306,4.8306,4.8306,4.8306,4.8306,4.8306,4.8306,4.8306,4.8306,4.8306,4.8306,4.8306,4.8306,4.8306,4.8306,4.8306,4.8306,4.8306,4.8306]},{"header":{"parameterUnit":"m.s-1","parameterCategory":1,"la1":30.6,"la2":29.2853,"lo1":-89.7004,"lo2":-87.6739,"dy":0.0162,"dx":0.0183,"nx":112,"ny":82,"refTime":"2024-04-01T18:00:00:Z","depth":0,"parameterNumber":3,"parameterNumberName":"V-component_of_WINDS"},"data":[0.0,0.0,0.0,0.0,0.0,0.0,0.0,0.0,0.0,0.0,0.0,0.0,0.0,0.0,0.0,0.0,0.0,0.0,0.0,0.0,0.0,0.0,0.0,0.0,0.0,0.0,0.0,0.0,0.0,0.0,0.0,0.0,0.0,0.0,0.0,0.0,0.0,0.0,0.0,0.0,0.0,0.0,0.0,0.0,0.0,0.0,0.0,0.0,0.0,0.0,0.0,0.0,0.0,0.0,0.0,0.0,0.0,0.0,0.0,0.0,0.0,0.0,0.0,0.0,0.0,0.0,0.0,0.0,0.0,0.0,0.0,0.0,0.0,0.0,0.0,0.0,0.0,0.0,0.0,0.0,0.0,0.0,0.0,0.0,0.0,0.0,0.0,0.0,0.0,0.0,0.0,-1.1834,-1.2512,-1.3312,-1.3965,-1.4154,-1.451,-1.5167,0.0,0.0,0.0,0.0,0.0,0.0,0.0,0.0,0.0,0.0,0.0,0.0,0.0,0.0,0.0,0.0,0.0,0.0,0.0,0.0,0.0,0.0,0.0,0.0,0.0,0.0,0.0,0.0,0.0,0.0,0.0,0.0,0.0,0.0,0.0,0.0,0.0,0.0,0.0,0.0,0.0,0.0,0.0,0.0,0.0,0.0,0.0,0.0,0.0,0.0,0.0,0.0,0.0,0.0,0.0,0.0,0.0,0.0,0.0,0.0,0.0,0.0,0.0,0.0,0.0,0.0,0.0,0.0,0.0,0.0,0.0,0.0,0.0,0.0,0.0,0.0,0.0,0.0,0.0,0.0,0.0,0.0,0.0,0.0,0.0,0.0,0.0,0.0,0.0,0.0,0.0,0.0,0.0,0.0,0.0,0.0,0.0,0.0,0.0,0.0,0.0,0.0,0.0,0.0,-1.117,-1.1772,-1.2512,-1.307,-1.3183,-1.3795,-1.4264,-1.4382,0.0,0.0,0.0,0.0,0.0,0.0,0.0,0.0,0.0,0.0,0.0,0.0,0.0,0.0,0.0,0.0,0.0,0.0,0.0,0.0,0.0,0.0,0.0,0.0,0.0,0.0,0.0,0.0,0.0,0.0,0.0,0.0,0.0,0.0,0.0,0.0,0.0,0.0,0.0,0.0,0.0,0.0,0.0,0.0,0.0,0.0,0.0,0.0,0.0,0.0,0.0,0.0,0.0,0.0,0.0,0.0,0.0,0.0,0.0,0.0,0.0,0.0,0.0,0.0,0.0,0.0,0.0,0.0,0.0,0.0,0.0,0.0,0.0,0.0,0.0,0.0,0.0,0.0,0.0,0.0,0.0,0.0,0.0,0.0,0.0,0.0,0.0,0.0,0.0,0.0,0.0,0.0,0.0,0.0,0.0,0.0,0.0,0.0,0.0,0.0,0.0,0.0,0.0,-1.1108,-1.0744,-1.1108,-1.1476,-1.1911,-1.2328,-1.3061,-1.3726,-1.4145,-1.4932,0.0,0.0,0.0,0.0,0.0,0.0,0.0,0.0,0.0,0.0,0.0,0.0,0.0,0.0,0.0,0.0,0.0,0.0,0.0,0.0,0.0,0.0,0.0,0.0,0.0,0.0,0.0,0.0,0.0,0.0,0.0,0.0,0.0,0.0,0.0,0.0,0.0,0.0,0.0,0.0,0.0,0.0,0.0,0.0,0.0,0.0,0.0,0.0,0.0,0.0,0.0,0.0,0.0,0.0,0.0,0.0,0.0,0.0,0.0,0.0,0.0,0.0,0.0,0.0,0.0,0.0,0.0,0.0,0.0,0.0,0.0,0.0,0.0,0.0,0.0,0.0,0.0,0.0,0.0,0.0,0.0,0.0,0.0,0.0,0.0,0.0,0.0,0.0,0.0,0.0,0.0,0.0,0.0,0.0,0.0,0.0,0.0,0.0,0.0,0.0,0.0,0.0,-1.0989,-1.0624,-1.0624,-1.0624,-1.087,-1.1469,-1.2458,-1.3252,-1.3906,-1.4864,0.0,0.0,0.0,0.0,0.0,0.0,0.0,0.0,0.0,0.0,0.0,0.0,0.0,0.0,0.0,0.0,0.0,0.0,0.0,0.0,0.0,0.0,0.0,0.0,0.0,0.0,0.0,0.0,0.0,0.0,0.0,0.0,0.0,0.0,0.0,0.0,0.0,0.0,0.0,0.0,0.0,0.0,0.0,0.0,0.0,0.0,0.0,0.0,0.0,0.0,0.0,0.0,0.0,0.0,0.0,0.0,0.0,0.0,0.0,0.0,0.0,0.0,0.0,0.0,0.0,0.0,0.0,0.0,0.0,0.0,0.0,0.0,0.0,0.0,0.0,0.0,0.0,0.0,0.0,0.0,0.0,0.0,0.0,0.0,0.0,0.0,0.0,0.0,0.0,0.0,0.0,0.0,0.0,0.0,0.0,0.0,0.0,0.0,0.0,0.0,0.0,0.0,-1.0618,-1.0624,-1.0624,-1.0624,-1.0624,-1.0681,-1.2097,-1.3009,-1.307,-1.4569,0.0,0.0,0.0,0.0,0.0,0.0,0.0,0.0,0.0,0.0,0.0,0.0,0.0,0.0,0.0,0.0,0.0,0.0,0.0,0.0,0.0,0.0,0.0,0.0,0.0,0.0,0.0,0.0,0.0,0.0,0.0,0.0,0.0,0.0,0.0,0.0,0.0,0.0,0.0,0.0,0.0,0.0,0.0,0.0,0.0,0.0,0.0,0.0,0.0,0.0,0.0,0.0,0.0,0.0,0.0,0.0,0.0,0.0,0.0,0.0,0.0,0.0,0.0,0.0,0.0,0.0,0.0,0.0,0.0,0.0,0.0,0.0,0.0,0.0,0.0,0.0,0.0,0.0,0.0,0.0,0.0,0.0,0.0,0.0,0.0,0.0,0.0,0.0,0.0,0.0,0.0,0.0,0.0,0.0,0.0,0.0,0.0,0.0,0.0,0.0,0.0,0.0,-1.0624,-1.0624,0.0,-1.0624,-1.0624,-1.0624,-1.16,-1.2451,-1.2948,0.0,0.0,0.0,0.0,0.0,0.0,0.0,0.0,0.0,0.0,0.0,0.0,0.0,0.0,0.0,0.0,0.0,0.0,0.0,0.0,0.0,0.0,0.0,0.0,0.0,0.0,0.0,0.0,0.0,0.0,0.0,0.0,0.0,0.0,0.0,0.0,0.0,0.0,0.0,0.0,0.0,0.0,0.0,0.0,0.0,0.0,0.0,0.0,0.0,0.0,0.0,0.0,0.0,0.0,0.0,0.0,0.0,0.0,0.0,0.0,0.0,0.0,0.0,0.0,0.0,0.0,0.0,0.0,0.0,0.0,0.0,0.0,0.0,0.0,0.0,0.0,0.0,0.0,0.0,0.0,0.0,0.0,0.0,0.0,0.0,0.0,0.0,0.0,0.0,0.0,0.0,0.0,0.0,0.0,0.0,0.0,0.0,0.0,0.0,0.0,0.0,0.0,-1.0624,-1.0624,-1.0624,0.0,-1.0624,-1.0624,-1.0624,-1.1351,-1.2012,-1.2573,0.0,0.0,0.0,0.0,0.0,0.0,0.0,0.0,0.0,0.0,0.0,0.0,0.0,0.0,0.0,0.0,0.0,0.0,0.0,0.0,0.0,0.0,0.0,0.0,0.0,0.0,0.0,0.0,0.0,0.0,0.0,0.0,0.0,0.0,0.0,0.0,0.0,0.0,0.0,0.0,0.0,0.0,0.0,0.0,0.0,0.0,0.0,0.0,0.0,0.0,0.0,0.0,0.0,0.0,0.0,0.0,0.0,0.0,0.0,0.0,0.0,0.0,0.0,0.0,0.0,0.0,0.0,0.0,0.0,0.0,0.0,0.0,0.0,0.0,0.0,0.0,0.0,0.0,0.0,0.0,0.0,0.0,0.0,0.0,0.0,0.0,0.0,0.0,0.0,0.0,0.0,0.0,0.0,0.0,0.0,0.0,0.0,0.0,0.0,0.0,0.0,0.0,-1.0624,-1.0624,-1.0624,-1.0624,-1.0624,-1.0624,-1.0624,-1.1351,-1.1764,0.0,0.0,0.0,0.0,0.0,0.0,0.0,0.0,0.0,0.0,0.0,0.0,0.0,0.0,0.0,0.0,0.0,0.0,0.0,0.0,0.0,0.0,0.0,0.0,0.0,0.0,0.0,0.0,0.0,0.0,0.0,0.0,0.0,0.0,0.0,0.0,0.0,0.0,0.0,0.0,0.0,0.0,0.0,0.0,0.0,0.0,0.0,0.0,0.0,0.0,0.0,0.0,0.0,0.0,0.0,0.0,0.0,0.0,0.0,0.0,0.0,0.0,0.0,0.0,0.0,0.0,0.0,0.0,0.0,0.0,0.0,0.0,0.0,0.0,0.0,0.0,0.0,0.0,0.0,0.0,0.0,0.0,0.0,0.0,0.0,0.0,0.0,0.0,0.0,0.0,0.0,0.0,0.0,0.0,0.0,0.0,0.0,0.0,0.0,0.0,0.0,0.0,0.0,-1.0624,-1.0624,-1.0624,-1.0624,-1.0624,-1.0624,-1.0624,-1.0807,-1.1226,-1.1772,0.0,0.0,0.0,0.0,0.0,0.0,0.0,0.0,0.0,0.0,0.0,0.0,0.0,0.0,0.0,0.0,0.0,0.0,0.0,0.0,0.0,0.0,0.0,0.0,0.0,0.0,0.0,0.0,0.0,0.0,0.0,0.0,0.0,0.0,0.0,0.0,0.0,0.0,0.0,0.0,0.0,0.0,0.0,0.0,0.0,0.0,0.0,0.0,0.0,0.0,0.0,0.0,0.0,0.0,0.0,0.0,0.0,0.0,0.0,0.0,0.0,0.0,0.0,0.0,0.0,0.0,0.0,0.0,0.0,0.0,0.0,0.0,0.0,0.0,0.0,0.0,0.0,0.0,0.0,0.0,0.0,0.0,0.0,0.0,0.0,0.0,0.0,0.0,0.0,0.0,0.0,0.0,0.0,0.0,0.0,0.0,0.0,0.0,0.0,0.0,0.0,0.0,-1.0624,-1.0624,-1.0624,-1.0624,-1.0624,-1.0624,-1.0624,-1.0624,-1.0807,-1.1288,0.0,0.0,0.0,0.0,0.0,0.0,0.0,0.0,0.0,0.0,0.0,0.0,0.0,0.0,0.0,0.0,0.0,0.0,0.0,0.0,0.0,0.0,0.0,0.0,0.0,0.0,0.0,0.0,0.0,0.0,0.0,0.0,0.0,0.0,0.0,0.0,0.0,0.0,0.0,0.0,0.0,0.0,0.0,0.0,0.0,0.0,0.0,0.0,0.0,0.0,0.0,0.0,0.0,0.0,0.0,0.0,0.0,0.0,0.0,0.0,0.0,0.0,0.0,0.0,0.0,0.0,0.0,0.0,0.0,0.0,0.0,0.0,0.0,0.0,0.0,0.0,0.0,0.0,0.0,0.0,0.0,0.0,0.0,0.0,0.0,0.0,0.0,0.0,0.0,0.0,0.0,0.0,0.0,0.0,0.0,0.0,0.0,0.0,0.0,0.0,0.0,0.0,-1.0624,-1.0624,-1.0624,-1.0624,-1.0624,-1.0624,-1.0624,-1.0624,-1.0624,-1.0624,0.0,0.0,0.0,0.0,0.0,0.0,0.0,0.0,0.0,0.0,0.0,0.0,0.0,0.0,0.0,0.0,0.0,0.0,0.0,0.0,0.0,0.0,0.0,0.0,0.0,0.0,0.0,0.0,0.0,0.0,0.0,0.0,0.0,0.0,0.0,0.0,0.0,0.0,0.0,0.0,0.0,0.0,0.0,0.0,0.0,0.0,0.0,0.0,0.0,0.0,0.0,0.0,0.0,0.0,0.0,0.0,0.0,0.0,0.0,0.0,-0.7762,0.0,0.0,0.0,0.0,0.0,0.0,0.0,0.0,0.0,0.0,0.0,0.0,0.0,0.0,0.0,0.0,0.0,0.0,0.0,0.0,0.0,0.0,0.0,0.0,0.0,0.0,0.0,0.0,0.0,0.0,0.0,0.0,0.0,0.0,0.0,0.0,0.0,0.0,0.0,0.0,0.0,-1.0624,-1.0624,-1.0624,-1.0624,-1.0624,-1.0624,-1.0624,-1.0624,-1.0624,-1.0624,0.0,0.0,0.0,0.0,0.0,0.0,0.0,0.0,0.0,0.0,0.0,0.0,0.0,0.0,0.0,0.0,0.0,0.0,0.0,0.0,0.0,0.0,0.0,0.0,0.0,0.0,0.0,0.0,0.0,0.0,0.0,0.0,0.0,0.0,0.0,0.0,0.0,0.0,0.0,0.0,0.0,0.0,0.0,0.0,0.0,0.0,0.0,0.0,0.0,0.0,0.0,0.0,0.0,0.0,0.0,0.0,0.0,0.0,0.0,0.0,0.0,-0.7762,0.0,0.0,0.0,0.0,0.0,0.0,0.0,0.0,0.0,0.0,0.0,0.0,0.0,0.0,0.0,0.0,0.0,0.0,0.0,0.0,0.0,0.0,0.0,0.0,0.0,0.0,0.0,0.0,0.0,0.0,0.0,0.0,0.0,0.0,0.0,0.0,0.0,0.0,0.0,0.0,-1.0624,-1.0624,-1.0624,-1.0624,-1.0624,-1.0624,-1.0624,-1.0624,-1.0624,-1.0624,-1.0982,0.0,0.0,0.0,0.0,0.0,0.0,0.0,0.0,0.0,0.0,0.0,0.0,0.0,0.0,0.0,0.0,0.0,0.0,0.0,0.0,0.0,0.0,0.0,0.0,0.0,0.0,0.0,0.0,0.0,0.0,0.0,0.0,0.0,0.0,0.0,0.0,0.0,0.0,0.0,0.0,0.0,0.0,0.0,0.0,0.0,0.0,0.0,0.0,0.0,0.0,0.0,0.0,0.0,-0.6606,-0.6556,-0.6556,-0.6556,-0.6163,-0.5571,-0.7025,-0.7179,-0.6527,0.0,0.0,0.0,0.0,0.0,0.0,0.0,0.0,0.0,0.0,0.0,0.0,0.0,0.0,0.0,0.0,0.0,0.0,0.0,0.0,0.0,0.0,0.0,0.0,0.0,-1.0509,-1.0515,0.0,0.0,0.0,0.0,0.0,0.0,0.0,0.0,0.0,0.0,0.0,0.0,-1.0715,-1.0715,-1.0715,-1.0715,-1.0715,-1.0715,-1.0715,-1.0715,-1.0715,-1.0715,-1.0715,-1.1132,0.0,0.0,0.0,0.0,0.0,0.0,0.0,0.0,0.0,0.0,0.0,0.0,0.0,0.0,0.0,0.0,0.0,0.0,0.0,0.0,0.0,0.0,0.0,0.0,0.0,0.0,0.0,0.0,0.0,0.0,0.0,0.0,-0.5428,-0.5428,0.0,0.0,0.0,0.0,0.0,0.0,0.0,0.0,0.0,0.0,0.0,0.0,0.0,0.0,-0.6527,-0.5891,-0.6028,-0.6835,-0.6235,-0.5951,-0.5951,-0.5951,-0.5884,-0.5742,-0.6026,0.0,-0.5557,-0.569,0.0,0.0,0.0,0.0,0.0,0.0,0.0,0.0,0.0,0.0,0.0,0.0,0.0,0.0,0.0,0.0,0.0,0.0,0.0,0.0,0.0,0.0,-0.8944,-0.9777,-0.9988,-1.0194,0.0,-1.1109,-1.1009,-1.1263,-1.1309,0.0,0.0,0.0,0.0,0.0,0.0,0.0,-1.1309,-1.1309,-1.1309,-1.1309,-1.1309,-1.1309,-1.1309,-1.1309,-1.1309,-1.1309,-1.1309,-1.1329,-1.1499,-1.1397,0.0,0.0,0.0,0.0,0.0,0.0,0.0,0.0,0.0,0.0,0.0,0.0,0.0,0.0,0.0,0.0,0.0,0.0,0.0,0.0,0.0,0.0,0.0,0.0,0.0,0.0,0.0,0.0,0.0,-0.5428,-0.5428,-0.5428,-0.5428,-0.5428,0.0,0.0,0.0,0.0,0.0,0.0,0.0,0.0,0.0,-0.5491,-0.5566,-0.5814,-0.6218,-0.5881,-0.5916,-0.6261,-0.5983,-0.58,-0.58,-0.58,-0.58,-0.58,-0.58,-0.5728,-0.5603,-0.5525,-0.544,-0.5428,0.0,0.0,0.0,0.0,-0.5416,-0.5491,-0.5491,-0.5809,0.0,0.0,0.0,0.0,0.0,0.0,0.0,0.0,0.0,0.0,0.0,0.0,0.0,-0.9667,-0.9875,-1.02,-1.1421,-1.1577,-1.1476,0.0,-1.1423,-1.1423,-1.1423,0.0,0.0,0.0,0.0,0.0,-1.1423,-1.1423,-1.1423,-1.1423,-1.1423,-1.1423,-1.1423,-1.1423,-1.1423,-1.1423,-1.1423,-1.1496,-1.167,-1.1516,-1.1641,0.0,0.0,0.0,0.0,0.0,0.0,0.0,0.0,0.0,0.0,0.0,0.0,0.0,0.0,0.0,0.0,0.0,0.0,0.0,0.0,0.0,0.0,0.0,0.0,0.0,0.0,0.0,0.0,-0.5428,-0.5428,-0.5428,-0.5428,-0.5428,0.0,0.0,0.0,0.0,0.0,0.0,-0.5474,-0.5583,-0.5644,-0.5644,-0.5745,-0.58,-0.58,-0.584,-0.5861,-0.5861,-0.5901,-0.5918,-0.5918,-0.5918,-0.5918,-0.5918,-0.5918,-0.5898,-0.5847,-0.5705,-0.5576,-0.5474,-0.5474,-0.5474,-0.5474,-0.5474,-0.5545,-0.5644,-0.5644,-0.5715,-0.5871,-0.6583,0.0,-0.722,-0.7845,0.0,0.0,0.0,0.0,-0.8061,-0.7847,-0.7816,-0.8145,-0.9148,-0.9575,-1.0059,-1.1344,-1.1834,-1.1917,0.0,-1.165,-1.165,-1.165,0.0,0.0,0.0,0.0,-1.165,-1.165,-1.165,-1.165,-1.165,-1.165,-1.165,-1.165,-1.165,-1.165,-1.165,-1.165,-1.175,-1.1971,-1.1764,-1.1757,-1.1977,0.0,0.0,0.0,0.0,0.0,0.0,0.0,0.0,0.0,0.0,0.0,0.0,0.0,0.0,0.0,0.0,0.0,0.0,0.0,0.0,0.0,0.0,0.0,0.0,0.0,0.0,0.0,0.0,0.0,-0.5428,-0.5428,0.0,0.0,0.0,0.0,-0.5566,-0.5579,-0.5637,-0.5772,-0.5786,-0.5789,-0.5789,-0.5796,-0.58,-0.58,-0.5945,-0.6017,-0.602,-0.6166,-0.6237,-0.6237,-0.6237,-0.6237,-0.6237,-0.6237,-0.6156,-0.6006,-0.5854,-0.5786,-0.5779,-0.5779,-0.5779,-0.5779,-0.5779,-0.5783,-0.5789,-0.5789,-0.5796,-0.5803,-0.5871,-0.644,-0.7078,-0.7149,-0.7778,0.0,0.0,-0.7266,-0.7179,-0.6307,-0.6277,-0.6696,-0.7677,-0.8661,-0.9637,-1.0616,-1.1601,-1.2278,0.0,-1.2258,-1.2258,-1.2258,0.0,-1.2258,-1.2258,-1.2258,-1.2258,-1.2258,-1.2258,-1.2258,-1.2258,-1.2258,-1.2258,-1.2258,-1.2258,-1.2258,-1.2258,-1.2258,-1.2265,-1.2278,-1.2265,-1.2265,-1.2278,-1.2352,0.0,0.0,0.0,0.0,0.0,0.0,0.0,0.0,0.0,0.0,0.0,0.0,0.0,0.0,0.0,0.0,0.0,0.0,0.0,0.0,0.0,0.0,0.0,0.0,0.0,0.0,0.0,0.0,-0.5498,-0.5508,0.0,0.0,-0.5644,-0.5667,-0.5722,-0.5725,-0.5749,-0.5796,-0.5895,-0.5949,-0.5949,-0.6044,-0.6098,-0.6098,-0.6152,-0.6179,-0.6179,-0.6234,-0.6338,-0.6338,-0.6338,-0.6338,-0.6338,-0.6338,-0.623,-0.6173,-0.6118,-0.5979,-0.58,-0.58,-0.58,-0.58,-0.58,-0.5864,-0.5949,-0.5949,-0.6013,-0.6098,-0.6098,-0.6321,-0.6622,-0.6622,-0.6765,-0.6986,-0.6693,-0.6583,-0.6551,-0.6252,-0.622,-0.6567,-0.7553,-0.8542,-0.9599,-1.0559,-1.162,-1.2305,-1.2305,-1.2305,-1.2305,-1.2305,-1.2305,-1.2305,-1.2305,-1.2305,-1.2305,-1.2305,-1.2305,-1.2305,-1.2305,-1.2305,-1.2305,-1.2305,-1.2305,-1.2305,-1.2305,-1.2305,-1.2305,-1.2305,-1.2305,-1.2305,-1.2305,-1.2305,-1.2305,0.0,0.0,0.0,0.0,0.0,0.0,0.0,0.0,0.0,0.0,0.0,0.0,0.0,0.0,0.0,0.0,0.0,0.0,0.0,0.0,0.0,0.0,0.0,0.0,0.0,0.0,-0.5549,-0.565,-0.5661,-0.5698,-0.5793,-0.58,-0.5823,-0.5874,-0.5878,-0.5901,-0.5952,-0.6051,-0.6108,-0.6108,-0.6207,-0.6338,-0.6338,-0.6338,-0.6338,-0.6338,-0.6338,-0.6338,-0.6338,-0.6338,-0.6338,-0.6338,-0.6338,-0.6338,-0.6338,-0.6338,-0.6142,-0.5956,-0.5956,-0.5956,-0.5956,-0.5956,-0.602,-0.6108,-0.6108,-0.6176,-0.6338,-0.6338,-0.6338,-0.6338,-0.6338,-0.6338,-0.6338,-0.6338,-0.6338,-0.6338,-0.6338,-0.6338,-0.6493,-0.7099,-0.8313,-0.9372,-0.9739,-1.0864,-1.1694,-1.1323,-1.1848,-1.2224,-1.1848,-1.1768,-1.1768,-1.1768,-1.1768,-1.1922,-1.2224,-1.2305,-1.2305,-1.2305,-1.2305,-1.2305,-1.2305,-1.2305,-1.2305,-1.2305,-1.2305,-1.2305,-1.2305,-1.2305,-1.2305,-1.2305,-1.2305,-1.2305,-1.2305,0.0,0.0,0.0,0.0,0.0,0.0,0.0,0.0,0.0,0.0,0.0,0.0,0.0,0.0,0.0,0.0,0.0,0.0,0.0,0.0,0.0,0.0,0.0,-0.5616,-0.5715,-0.5803,-0.581,-0.581,-0.581,-0.5817,-0.5817,-0.5878,-0.6027,-0.6037,-0.6105,-0.6257,-0.6268,-0.6271,-0.6274,-0.6274,-0.6274,-0.6274,-0.6274,-0.6274,-0.6274,-0.6274,-0.6274,-0.6274,-0.6274,-0.6274,-0.6274,-0.6274,-0.6274,-0.6274,-0.6274,-0.6274,-0.6352,-0.6264,-0.6338,-0.6338,-0.6338,-0.6338,-0.6338,-0.6338,-0.6338,-0.6338,-0.6338,-0.6338,-0.6338,-0.6338,-0.6338,-0.6338,-0.6338,-0.6338,-0.6338,-0.6338,-0.6338,-0.6338,-0.6338,-0.7783,-0.8993,-0.8008,-0.9362,-1.049,-0.9523,-1.0875,-1.1922,-1.0938,-1.0783,-1.0783,-1.0783,-1.0783,0.0,-1.215,-1.2305,-1.2305,-1.2305,-1.2305,-1.2305,-1.2305,-1.2305,-1.2305,-1.2305,-1.2305,-1.2305,-1.2305,-1.2305,-1.2305,-1.2305,-1.2305,-1.2305,-1.2305,0.0,0.0,0.0,0.0,0.0,0.0,0.0,0.0,0.0,0.0,0.0,0.0,0.0,0.0,0.0,0.0,0.0,0.0,0.0,0.0,0.0,0.0,-0.5915,-0.5766,-0.5776,-0.584,-0.5956,-0.5966,-0.601,-0.6122,-0.6135,-0.6152,-0.6193,-0.6196,-0.6261,-0.6407,-0.6413,-0.6464,-0.6576,-0.658,-0.658,-0.658,-0.658,-0.658,-0.658,-0.658,-0.658,-0.658,-0.658,-0.658,-0.658,-0.658,-0.658,-0.658,-0.658,-0.658,-0.6559,-0.6342,-0.6338,-0.6338,-0.6338,-0.6338,-0.6338,-0.6338,-0.6338,-0.6338,-0.6338,-0.6338,-0.6338,-0.6338,-0.6338,-0.6338,-0.6338,-0.6338,-0.6338,-0.6338,-0.6338,-0.6338,-0.6338,-0.7249,-0.8161,-0.7859,-0.8841,-0.9593,-0.9372,-0.975,-1.0051,-0.9744,-0.9744,-0.997,-1.0714,-1.0783,0.0,-1.215,-1.2305,-1.2305,-1.2305,-1.2305,-1.2305,-1.2305,-1.2305,-1.2305,-1.2305,-1.2305,-1.2305,-1.2305,-1.2305,-1.2305,-1.2305,-1.2305,-1.2305,0.0,0.0,0.0,0.0,0.0,0.0,0.0,0.0,0.0,0.0,0.0,0.0,0.0,0.0,0.0,0.0,0.0,0.0,0.0,0.0,0.0,0.0,-0.604,-0.6101,-0.6006,-0.5993,-0.603,-0.6122,-0.6135,-0.6173,-0.6264,-0.6332,-0.6369,-0.6445,-0.6424,-0.6491,-0.6563,-0.6566,-0.661,-0.6698,-0.6702,-0.6702,-0.6702,-0.6702,-0.6702,-0.6702,-0.6702,-0.6702,-0.6702,-0.6702,-0.6702,0.0,-0.6702,-0.6702,-0.6702,-0.6702,-0.6702,0.0,0.0,0.0,0.0,0.0,-0.6444,-0.6444,-0.6444,-0.6444,-0.6444,-0.6444,-0.6444,-0.6444,-0.6444,-0.6444,-0.6444,-0.6444,-0.6444,-0.6444,-0.6444,-0.6444,-0.6444,-0.6444,-0.7228,-0.7857,-0.7466,-0.8168,-0.8714,-0.8321,-0.8247,0.0,-0.8866,-0.8803,-0.8841,-0.9437,-0.989,-1.0415,-1.095,-1.1774,-1.215,-1.1694,-1.2077,-1.2305,-1.2305,-1.2305,0.0,0.0,0.0,-1.2305,-1.2305,-1.2305,0.0,0.0,0.0,-1.2305,-1.2305,0.0,0.0,0.0,-1.3237,-1.3455,0.0,0.0,0.0,0.0,0.0,0.0,0.0,0.0,0.0,0.0,0.0,0.0,0.0,0.0,0.0,0.0,-0.6186,-0.6197,-0.5948,-0.6183,-0.6268,-0.6278,-0.6054,-0.5908,-0.5918,-0.5965,-0.6044,-0.6202,-0.649,-0.6649,-0.6732,0.0,0.0,0.0,0.0,-0.6753,-0.6753,-0.6753,-0.6749,-0.6749,-0.6749,-0.6749,-0.6749,-0.6749,-0.6749,-0.6749,-0.6749,-0.6749,-0.6749,-0.6749,-0.6749,-0.6746,-0.6712,-0.6702,-0.6702,-0.6702,-0.6702,-0.6702,-0.6702,0.0,0.0,-0.6702,-0.6702,-0.6702,-0.6702,-0.6702,-0.6702,-0.6702,-0.6702,-0.6702,-0.6702,-0.6702,-0.6702,-0.6702,-0.7353,-0.7757,-0.6864,-0.7435,-0.7761,-0.6864,-0.6702,-0.7026,-0.7996,-0.8053,-0.7919,-0.8227,-0.899,-0.9601,-0.9753,-1.1241,-1.2048,-1.1129,0.0,0.0,-1.2305,-1.2305,-1.2305,-1.2305,-1.2305,-1.2305,-1.2305,-1.2305,-1.2305,-1.2305,-1.2305,-1.2305,-1.2305,-1.2305,-1.2305,-1.2298,-1.3164,-1.3098,0.0,0.0,0.0,0.0,0.0,0.0,0.0,0.0,0.0,0.0,0.0,0.0,0.0,0.0,0.0,-0.619,-0.6281,-0.573,-0.3984,-0.5171,-0.6288,-0.6278,-0.4775,-0.3698,-0.37,-0.3697,-0.3746,-0.3746,-0.5621,-0.6716,-0.6659,-0.6734,0.0,-0.7004,-0.6981,-0.7065,-0.6994,-0.7065,-0.7054,-0.7054,0.0,0.0,-0.7054,-0.7054,-0.7054,-0.7054,-0.7054,-0.7054,-0.7054,-0.7054,-0.7054,-0.7031,-0.6793,-0.6702,-0.6702,-0.6702,-0.6702,-0.6702,-0.6702,-0.6702,-0.6702,-0.6702,-0.6702,-0.6702,-0.6702,-0.6702,0.0,-0.6702,-0.6702,-0.6702,-0.6702,-0.6702,-0.6702,-0.6702,-0.6864,-0.6947,-0.6781,-0.6864,-0.6947,-0.6698,-0.6702,-0.6781,-0.7026,-0.7698,-0.8859,-1.071,-1.1112,-1.1514,-1.2315,-1.2582,-1.2659,-1.2424,-1.237,-1.2305,-1.2305,-1.2305,-1.2305,-1.2305,-1.2305,-1.2305,-1.2305,-1.2305,-1.2305,-1.2305,-1.2305,-1.2305,-1.2305,-1.2305,-1.2305,-1.2305,-1.2519,-1.2445,0.0,0.0,0.0,0.0,0.0,0.0,0.0,0.0,0.0,0.0,0.0,-0.5794,0.0,0.0,-0.3526,-0.4555,-0.559,-0.5587,-0.3439,-0.4951,-0.6267,-0.6327,-0.5339,-0.3836,-0.1731,-0.1516,-0.1535,-0.1533,-0.2669,-0.3834,-0.5112,-0.5195,-0.5758,-0.7098,-0.5991,-0.5899,-0.7094,-0.7078,-0.7068,-0.7068,-0.7058,-0.7139,-0.7139,-0.7139,-0.7139,-0.7139,-0.7139,-0.7139,-0.7139,-0.7139,-0.7139,-0.7126,-0.698,-0.6919,-0.6919,-0.6919,-0.6919,-0.6919,-0.6919,-0.6919,-0.6919,-0.6919,-0.6919,-0.6919,-0.6919,-0.6919,-0.6919,-0.6919,-0.6919,-0.6919,-0.6919,-0.6919,-0.6919,-0.6919,-0.6919,-0.6919,-0.6919,-0.6919,-0.6919,-0.6919,-0.6919,-0.709,-0.7684,-0.8272,-0.8791,-0.9173,-1.011,-1.0595,-1.0034,-1.1215,-1.1691,-1.0655,-1.0785,-1.097,-1.0918,-1.0871,-1.1025,-1.1539,-1.1545,-1.1768,-1.2305,-1.2305,-1.2305,-1.2305,-1.2305,-1.2305,-1.2305,-1.2305,-1.2305,-1.2305,-1.2305,-1.2305,0.0,0.0,0.0,0.0,0.0,0.0,0.0,0.0,-0.6322,-0.6288,-0.6308,-0.6322,-0.6295,-0.2818,-0.0548,-0.2188,-0.3927,-0.4643,-0.3287,-0.4265,-0.5382,-0.6172,-0.5601,-0.3727,-0.0338,0.0,0.0,0.0,0.0,-0.0805,-0.2769,-0.2857,-0.376,-0.5687,-0.4316,-0.4324,-0.5719,-0.6166,-0.661,-0.7131,-0.7111,-0.7088,-0.7061,-0.7061,-0.7061,-0.7058,-0.7143,-0.7139,-0.7139,-0.7139,-0.7139,-0.7139,-0.7139,-0.7139,-0.7139,-0.7139,-0.7139,-0.7139,-0.7139,-0.7139,-0.7139,-0.7139,-0.7139,-0.7139,-0.7139,-0.7139,-0.7139,-0.7139,-0.7139,-0.7139,-0.7139,-0.7139,-0.7139,-0.7139,-0.7139,-0.7139,-0.7139,-0.7139,-0.7139,-0.7139,-0.7139,-0.7401,-0.8364,-0.854,-0.8269,-0.7571,-0.8926,-0.9412,-0.7693,-0.9712,-1.0584,-0.879,-0.9246,-0.9636,-0.9533,-0.9446,-0.9724,-1.0557,-1.0738,-1.1166,-1.2006,-1.2183,-1.2305,-1.2305,-1.2305,-1.2305,-1.2305,-1.2305,-1.2331,-1.2385,-1.2385,-1.2358,0.0,0.0,0.0,0.0,0.0,-0.0157,0.0,0.0,-0.6322,-0.6298,-0.6312,-0.6329,-0.6325,-0.2827,-0.0078,-0.0314,-0.0549,-0.1256,-0.291,-0.1681,-0.2128,-0.5817,-0.3025,-0.0508,-0.0087,0.0,0.0,0.0,0.0,-0.009,-0.0359,-0.0358,-0.0541,-0.0829,-0.2664,-0.2685,-0.085,-0.2924,-0.5055,-0.7112,-0.7109,-0.7134,-0.7098,-0.7098,-0.7091,-0.7081,-0.7061,-0.7139,-0.7139,-0.7139,-0.7139,-0.7139,-0.7139,-0.7139,-0.7139,-0.7139,-0.7139,-0.7139,-0.7139,-0.7139,-0.7139,-0.7139,-0.7139,-0.7139,-0.7139,-0.7139,-0.7139,-0.7139,-0.7139,-0.7139,-0.7139,-0.7139,-0.7139,-0.7139,-0.7139,-0.7139,-0.7139,-0.7139,-0.7139,-0.7139,-0.7139,-0.7139,-0.7316,-0.7316,-0.791,-0.9856,-1.0363,-1.0449,-1.0191,-1.0283,-1.0247,-0.9996,-0.9823,-0.9695,-0.9671,-0.9646,-0.9717,-0.9797,-1.055,-1.1053,-1.1135,-1.1909,-1.2305,-1.2305,-1.2305,-1.2305,-1.2305,-1.2305,-1.2438,-1.2775,-1.2775,-1.2552,0.0,0.0,0.0,0.0,0.0,0.0,0.0,-0.1332,-0.2979,-0.4151,-0.543,-0.6329,-0.6329,-0.2829,0.0,0.0,0.0,-0.0314,-0.1178,-0.0561,-0.0657,-0.2439,-0.1108,0.0,0.0,0.0,0.0,0.0,0.0,0.0,0.0,0.0,0.0,0.0,-0.094,-0.1038,-0.0,-0.1046,-0.2745,-0.5085,-0.5076,-0.505,-0.5101,-0.5101,-0.5812,-0.7131,-0.7125,-0.7065,-0.7071,-0.7071,-0.7064,-0.7139,-0.7139,-0.7139,-0.7139,-0.7139,-0.7139,-0.7139,-0.7139,-0.7139,-0.7139,-0.7139,-0.7139,-0.7139,-0.7139,-0.7139,-0.7139,-0.7139,-0.7139,-0.7139,-0.7139,-0.7139,-0.7139,-0.7139,-0.7139,-0.7139,-0.7139,-0.7139,-0.7139,-0.7139,-0.7139,-0.7139,-0.7139,-0.7139,-0.7401,-0.8444,-0.9144,-0.9318,-0.8615,-0.9074,-0.9198,-0.8508,-0.8179,-0.8078,-0.8078,-0.7982,-0.8164,-0.8814,-0.9138,-0.9966,-1.1242,-1.1612,-1.219,-1.2832,-1.2826,-1.2826,-1.2826,-1.2826,-1.2899,-1.3019,-1.3019,-1.2953,0.0,0.0,0.0,0.0,0.0,0.0,0.0,0.0,-0.0392,-0.1955,-0.3454,-0.457,-0.457,-0.2043,0.0,0.0,0.0,0.0,0.0,0.0,0.0,0.0,0.0,0.0,0.0,0.0,0.0,0.0,0.0,0.0,0.0,0.0,0.0,0.0,0.0,0.0,0.0,0.0,-0.0869,-0.2594,-0.2588,-0.2578,-0.2564,-0.2563,-0.3488,-0.522,-0.5874,-0.6101,-0.6192,-0.6927,-0.7195,-0.7178,-0.7268,-0.7268,-0.7268,-0.7268,-0.7214,-0.7139,-0.7139,-0.7139,-0.7139,-0.7139,-0.7139,-0.7139,-0.7139,-0.7139,-0.7139,-0.7139,-0.7139,-0.7139,-0.7139,-0.7139,-0.7139,-0.7139,-0.7139,-0.7139,-0.7139,-0.7139,-0.7139,-0.7139,-0.7139,-0.7139,-0.7139,-0.7139,-0.7139,-0.7139,-0.7841,-0.8105,-0.7228,-0.7841,-0.8101,-0.7228,-0.7048,-0.6987,-0.6987,-0.6885,-0.7154,-0.7815,-0.8434,-0.9466,-1.1103,-1.1692,-1.2387,-1.3206,-1.3213,-1.3213,-1.3213,-1.3213,-1.3253,-1.3327,-1.3327,-1.3373,0.0,0.0,0.0,0.0,0.0,0.0,0.0,0.0,-0.0,-0.0079,-0.0157,-0.0157,-0.0157,-0.0079,0.0,0.0,0.0,0.0,0.0,0.0,0.0,0.0,0.0,0.0,0.0,0.0,0.0,0.0,0.0,0.0,0.0,0.0,0.0,0.0,0.0,0.0,0.0,0.0,-0.0,-0.0098,-0.0098,-0.0097,-0.0095,-0.0095,-0.019,-0.038,-0.2655,-0.3696,-0.3884,-0.6358,-0.7409,-0.7409,-0.7496,-0.7587,-0.7587,-0.7587,-0.7397,-0.7139,-0.7139,-0.7139,-0.7139,-0.7139,-0.7139,-0.7139,-0.7139,-0.7139,-0.7139,-0.7139,-0.7139,-0.7139,-0.7139,-0.7139,-0.7139,-0.7139,-0.7139,-0.7139,-0.7139,-0.7139,-0.7139,-0.7139,-0.7139,-0.7139,-0.7139,-0.7139,-0.7139,-0.7139,-0.7139,-0.7139,-0.7139,-0.7139,-0.7139,-0.7139,-0.7136,-0.7132,-0.7132,-0.7129,-0.7126,-0.7126,-0.9033,-1.0188,-1.0272,-1.2122,-1.3127,-1.3213,-1.3213,-1.3213,-1.3213,-1.3213,-1.3353,-1.3627,-1.3627,-1.3781,0.0,0.0,0.0,0.0,0.0,0.0,0.0,0.0,0.0,0.0,0.0,0.0,0.0,0.0,0.0,0.0,0.0,0.0,0.0,0.0,0.0,0.0,0.0,0.0,0.0,0.0,0.0,0.0,0.0,0.0,0.0,0.0,0.0,0.0,0.0,0.0,0.0,0.0,0.0,0.0,0.0,0.0,0.0,0.0,0.0,-0.0,-0.0874,-0.1251,-0.1235,-0.2184,-0.4462,-0.7617,-0.7614,-0.7607,-0.76,-0.76,-0.7533,-0.7444,-0.7444,-0.7444,-0.7444,-0.7444,-0.7377,-0.7292,-0.7292,-0.7221,-0.7139,-0.7139,-0.7139,-0.7139,-0.7139,-0.7139,-0.7139,-0.7139,-0.7139,-0.7139,-0.7139,-0.7139,-0.7139,-0.7139,-0.7139,-0.7173,-0.7275,-0.7292,-0.7329,-0.7431,-0.7272,-0.7139,-0.7139,-0.7139,-0.7139,-0.7139,-0.7139,-0.7139,-0.7139,-0.7139,-0.7139,-0.7139,-0.8479,-0.9651,-1.0414,-1.187,-1.301,-1.3794,-1.3794,-1.3794,-1.3794,-1.3794,-1.3841,-1.3941,-1.3941,-1.3988,0.0,0.0,0.0,0.0,0.0,0.0,0.0,0.0,0.0,0.0,0.0,0.0,0.0,0.0,0.0,0.0,0.0,0.0,0.0,0.0,0.0,0.0,0.0,0.0,0.0,0.0,0.0,0.0,0.0,0.0,0.0,0.0,0.0,0.0,0.0,0.0,0.0,0.0,0.0,0.0,0.0,0.0,0.0,0.0,0.0,0.0,0.0,0.0,0.0,0.0,-0.2519,-0.65,-0.7388,-0.777,-0.7756,-0.7756,-0.7756,-0.7743,-0.7638,-0.76,-0.76,-0.76,-0.7533,-0.7451,-0.7451,-0.7346,-0.7221,-0.7221,-0.7183,-0.7139,-0.7139,-0.7139,-0.7139,-0.7139,-0.7183,-0.7221,-0.7221,-0.7265,-0.7305,-0.7305,-0.7305,-0.7336,-0.7438,-0.7451,-0.7485,-0.7587,-0.7431,-0.7285,-0.7227,-0.7173,-0.7139,-0.7139,-0.7139,-0.7139,-0.7139,-0.7139,-0.7139,-0.7139,-0.8623,-0.9836,-1.0611,-1.2077,-1.3294,-1.4088,-1.4088,-1.4088,-1.4088,-1.4088,-1.4088,-1.4088,-1.4088,-1.4088,0.0,0.0,0.0,0.0,0.0,0.0,0.0,0.0,0.0,0.0,0.0,0.0,0.0,0.0,0.0,0.0,0.0,0.0,0.0,0.0,0.0,0.0,0.0,0.0,0.0,0.0,0.0,0.0,0.0,0.0,0.0,0.0,0.0,0.0,0.0,0.0,0.0,0.0,0.0,0.0,0.0,0.0,0.0,0.0,0.0,0.0,0.0,0.0,0.0,0.0,-0.1607,-0.4218,-0.6951,-0.7959,-0.8038,-0.8038,-0.8038,-0.7997,-0.7719,-0.7621,-0.7621,-0.7621,-0.7617,-0.7611,-0.7611,-0.7506,-0.7383,-0.7383,-0.7278,-0.7163,-0.7163,-0.7163,-0.7163,-0.7163,-0.7275,-0.7383,-0.7383,-0.7499,-0.76,-0.76,-0.7604,-0.7611,-0.7611,-0.7617,-0.7621,-0.7621,-0.7614,-0.7556,-0.7404,-0.7255,-0.7163,-0.7163,-0.7163,-0.7163,-0.7163,-0.7156,-0.7153,-0.7238,-0.9318,-1.0611,-1.0697,-1.2863,-1.4088,-1.4088,-1.4088,-1.4088,-1.4088,-1.4088,-1.4088,-1.4088,-1.4088,-1.4088,0.0,0.0,0.0,0.0,0.0,0.0,0.0,0.0,0.0,0.0,0.0,0.0,0.0,0.0,0.0,0.0,0.0,0.0,0.0,0.0,0.0,0.0,0.0,0.0,0.0,0.0,0.0,0.0,0.0,0.0,0.0,0.0,0.0,0.0,0.0,0.0,0.0,0.0,0.0,0.0,0.0,0.0,0.0,0.0,0.0,0.0,0.0,0.0,0.0,0.0,-0.161,-0.4218,-0.6959,-0.7965,-0.8038,-0.8038,-0.8038,-0.8028,-0.7953,-0.7926,-0.7926,-0.7926,-0.7848,-0.7756,-0.7756,-0.7655,-0.7543,-0.7543,-0.7512,-0.7482,-0.7482,-0.7482,-0.7482,-0.7482,-0.7512,-0.7543,-0.7543,-0.757,-0.76,-0.76,-0.7685,-0.7756,-0.7756,-0.7851,-0.7926,-0.7926,-0.7831,-0.7706,-0.756,-0.7506,-0.7482,-0.7482,-0.7482,-0.7482,-0.7482,-0.7377,-0.7667,-0.8551,-0.9828,-1.0956,-1.1809,-1.3294,-1.4088,-1.4088,-1.4088,-1.4088,-1.4088,-1.4088,-1.4088,-1.4088,-1.4088,-1.4088,0.0,0.0,0.0,0.0,0.0,0.0,0.0,0.0,0.0,0.0,0.0,0.0,0.0,0.0,0.0,0.0,0.0,0.0,0.0,0.0,0.0,0.0,0.0,0.0,0.0,0.0,0.0,0.0,0.0,0.0,0.0,0.0,0.0,0.0,0.0,0.0,0.0,0.0,0.0,0.0,0.0,0.0,0.0,0.0,0.0,0.0,0.0,0.0,0.0,0.0,-0.0907,-0.2611,-0.6453,-0.7975,-0.7952,-0.8041,-0.8038,-0.8038,-0.8038,-0.8038,-0.8038,-0.8038,-0.798,-0.7913,-0.7913,-0.7807,-0.7692,-0.7692,-0.7648,-0.76,-0.76,-0.76,-0.76,-0.76,-0.7648,-0.7692,-0.7692,-0.7746,-0.7794,-0.7794,-0.7855,-0.7913,-0.7913,-0.7984,-0.8038,-0.8038,-0.7967,-0.7882,-0.7804,-0.7682,-0.76,-0.76,-0.76,-0.7782,-0.8426,-0.7884,-0.8287,-0.9999,-1.0524,-1.1282,-1.2498,-1.3534,-1.4088,-1.4088,-1.4088,-1.4088,-1.4088,-1.4088,-1.4088,-1.4088,-1.4088,-1.4088,0.0,0.0,0.0,0.0,0.0,0.0,0.0,0.0,0.0,0.0,0.0,0.0,0.0,0.0,0.0,0.0,0.0,0.0,0.0,0.0,0.0,0.0,0.0,0.0,0.0,0.0,0.0,0.0,0.0,0.0,0.0,0.0,0.0,0.0,0.0,0.0,0.0,0.0,0.0,0.0,0.0,0.0,0.0,0.0,0.0,0.0,0.0,0.0,-0.0101,-0.0808,-0.0806,-0.1005,-0.6047,-0.7979,-0.7965,-0.8045,-0.8038,-0.8038,-0.8038,-0.8038,-0.8038,-0.8038,-0.8038,-0.8038,-0.8038,-0.7946,-0.7841,-0.7841,-0.7753,-0.7658,-0.7658,-0.7658,-0.7658,-0.7658,-0.775,-0.7841,-0.7841,-0.7946,-0.8038,-0.8038,-0.8038,-0.8038,-0.8038,-0.8038,-0.8038,-0.8038,-0.8038,-0.8038,-0.8038,-0.7818,-0.7658,-0.7658,-0.7658,-0.8215,-0.9409,-0.8566,-0.9015,-1.1589,-1.1382,-1.1704,-1.3039,-1.3767,-1.4142,-1.4142,-1.4108,-1.4088,-1.4088,-1.4088,-1.4088,-1.4088,-1.4128,-1.4142,0.0,0.0,0.0,0.0,0.0,0.0,0.0,0.0,0.0,0.0,0.0,0.0,0.0,0.0,0.0,0.0,0.0,0.0,0.0,0.0,0.0,0.0,0.0,0.0,0.0,0.0,0.0,0.0,0.0,0.0,0.0,0.0,0.0,0.0,0.0,0.0,0.0,0.0,0.0,0.0,0.0,0.0,0.0,0.0,0.0,0.0,0.0,0.0,-0.0303,-0.4752,-0.5349,-0.3615,-0.6751,-0.7962,-0.8045,-0.8041,-0.8038,-0.8038,-0.8038,-0.8038,-0.8038,-0.8038,-0.8038,-0.8038,-0.8038,-0.8021,-0.7997,-0.7997,-0.798,-0.7963,-0.7963,-0.7963,-0.7963,-0.7963,-0.798,-0.7997,-0.7997,-0.8021,-0.8038,-0.8038,-0.8038,-0.8038,-0.8038,-0.8038,-0.8038,-0.8038,-0.8038,-0.8038,-0.8038,-0.7994,-0.7963,-0.7963,-0.7963,-0.8448,-0.9803,-0.9565,-1.0418,-1.2949,-1.2911,-1.3327,-1.4609,-1.4508,-1.4442,-1.4442,-1.4208,-1.4088,-1.4088,-1.4088,-1.4088,-1.4095,-1.4335,-1.4442,0.0,0.0,0.0,0.0,0.0,0.0,0.0,0.0,0.0,0.0,0.0,0.0,0.0,0.0,0.0,0.0,0.0,0.0,0.0,0.0,0.0,0.0,0.0,0.0,0.0,0.0,0.0,0.0,0.0,0.0,0.0,0.0,0.0,0.0,0.0,0.0,0.0,0.0,0.0,0.0,0.0,0.0,0.0,0.0,0.0,-0.0202,-0.2929,0.0,-0.4244,-0.545,-0.5949,-0.6245,-0.7466,-0.7965,-0.7955,-0.8045,-0.8038,-0.8038,-0.8038,-0.8038,-0.8038,-0.8038,-0.8038,-0.8038,-0.8038,-0.8038,-0.8038,-0.8038,-0.8038,-0.8038,-0.8038,-0.8038,-0.8038,-0.8038,-0.8038,-0.8038,-0.8038,-0.8038,-0.8038,-0.8038,-0.8038,-0.8038,-0.8038,-0.8038,-0.8038,-0.8038,-0.8038,-0.8038,-0.8038,-0.8038,-0.8038,-0.8038,-0.8038,-0.8821,-1.0779,-1.0303,-1.1298,-1.4458,-1.3827,-1.3872,-1.519,-1.4903,-1.475,-1.475,-1.4616,-1.4543,-1.4543,-1.4543,-1.4543,-1.4549,-1.4683,-1.475,0.0,0.0,0.0,0.0,0.0,0.0,0.0,0.0,0.0,0.0,0.0,0.0,0.0,0.0,0.0,0.0,0.0,0.0,0.0,0.0,0.0,0.0,0.0,0.0,0.0,0.0,0.0,0.0,0.0,0.0,0.0,0.0,0.0,0.0,0.0,0.0,0.0,0.0,0.0,0.0,0.0,0.0,0.0,0.0,-0.0606,-0.1918,-0.6178,0.0,0.0,-0.5741,-0.6142,-0.7985,-0.7972,-0.7965,-0.7962,-0.8045,-0.8038,-0.8038,-0.8038,-0.8038,-0.8038,-0.8038,-0.8038,-0.8038,-0.8038,-0.8038,-0.8038,-0.8038,-0.8038,-0.8038,-0.8038,-0.8038,-0.8038,-0.8038,-0.8038,-0.8038,-0.8038,-0.8038,-0.8038,-0.8038,-0.8038,-0.8038,-0.8038,-0.8038,-0.8038,-0.8038,-0.8038,-0.8038,-0.8038,-0.8038,-0.8038,-0.8038,-0.8038,-0.9019,-1.1653,-1.0974,-1.1945,-1.5534,-1.4641,-1.4428,-1.5398,-1.5211,-1.5057,-1.5057,-1.4997,-1.4963,-1.4963,-1.4963,-1.4963,-1.4963,-1.503,-1.5057,0.0,0.0,0.0,0.0,0.0,0.0,0.0,0.0,0.0,0.0,0.0,0.0,0.0,0.0,0.0,0.0,0.0,0.0,0.0,0.0,0.0,0.0,0.0,0.0,0.0,0.0,0.0,0.0,0.0,0.0,0.0,0.0,0.0,0.0,0.0,0.0,0.0,0.0,0.0,0.0,0.0,0.0,0.0,0.0,-0.2625,-0.7305,-0.7818,0.0,0.0,-0.7772,-0.7769,-0.7972,-0.7952,-0.8041,-0.8041,-0.8038,-0.8038,-0.8038,-0.8038,-0.8038,-0.8038,-0.8038,-0.8038,-0.8038,-0.8038,-0.8038,-0.8038,-0.8038,-0.8038,-0.8038,-0.8038,-0.8038,-0.8038,-0.8038,-0.8038,-0.8038,-0.8038,-0.8038,-0.8038,-0.8038,-0.8038,-0.8038,-0.8038,-0.8038,-0.8038,-0.8038,-0.8038,-0.8038,-0.8038,-0.8038,-0.8038,-0.8038,-0.8038,-0.9019,-1.1653,-1.175,-1.2915,-1.5635,-1.5704,-1.5596,-1.5792,-1.5511,-1.5357,-1.5357,-1.5097,-1.4963,-1.4963,-1.4963,-1.4963,-1.497,-1.5237,-1.5357,0.0,0.0,0.0,0.0,0.0,0.0,0.0,0.0,0.0,0.0,0.0,0.0,0.0,0.0,0.0,0.0,0.0,0.0,0.0,0.0,0.0,0.0,0.0,0.0,0.0,0.0,0.0,0.0,0.0,0.0,0.0,0.0,0.0,0.0,0.0,0.0,0.0,0.0,0.0,0.0,0.0,0.0,0.0,0.0,-0.2929,-0.8026,-0.8009,0.0,0.0,-0.7959,-0.7952,-0.7952,-0.8041,-0.8038,-0.8038,-0.8038,-0.8038,-0.8038,-0.8038,-0.8038,-0.8038,-0.8038,-0.8038,-0.8038,-0.8038,-0.8038,-0.8038,-0.8038,-0.8038,-0.8038,-0.8038,-0.8038,-0.8038,-0.8038,-0.8038,-0.8038,-0.8038,-0.8038,-0.8038,-0.8038,-0.8038,-0.8038,-0.8038,-0.8038,-0.8038,-0.8038,-0.8038,-0.8038,-0.8038,-0.8038,-0.8038,-0.8038,-0.8038,-0.8726,-1.0583,-1.1463,-1.2721,-1.4555,-1.5343,-1.5832,-1.5832,-1.5718,-1.5658,-1.5658,-1.5545,-1.5484,-1.5484,-1.5484,-1.5484,-1.5484,-1.5605,-1.5658,0.0,0.0,0.0,0.0,0.0,0.0,0.0,0.0,0.0,0.0,0.0,0.0,0.0,0.0,0.0,0.0,0.0,0.0,0.0,0.0,0.0,0.0,0.0,0.0,0.0,0.0,0.0,0.0,0.0,0.0,0.0,0.0,0.0,0.0,0.0,0.0,0.0,0.0,0.0,0.0,0.0,0.0,-0.0101,-0.1615,-0.4039,-0.6879,0.0,0.0,0.0,-0.8045,-0.8038,-0.8038,-0.8038,-0.8038,-0.8038,-0.8038,-0.8038,-0.8038,-0.8038,-0.8038,-0.8038,-0.8038,-0.8038,-0.8038,-0.8038,-0.8038,-0.8038,-0.8038,-0.8038,-0.8038,-0.8038,-0.8038,-0.8038,-0.8038,-0.8038,-0.8038,-0.8038,-0.8038,-0.8038,-0.8038,-0.8038,-0.8038,-0.8038,-0.8038,-0.8038,-0.8038,-0.8038,-0.8038,-0.8038,-0.8038,-0.8038,-0.8038,-0.8038,-0.8528,-0.9899,-1.1165,-1.2431,-1.3782,-1.5146,-1.5832,-1.5832,-1.5832,-1.5832,-1.5832,-1.5832,-1.5832,-1.5832,-1.5832,-1.5832,-1.5832,-1.5832,-1.5832,0.0,0.0,0.0,0.0,0.0,0.0,0.0,0.0,0.0,0.0,0.0,0.0,0.0,0.0,0.0,0.0,0.0,0.0,0.0,0.0,0.0,0.0,0.0,0.0,0.0,0.0,0.0,0.0,0.0,0.0,0.0,0.0,0.0,0.0,0.0,0.0,0.0,0.0,0.0,0.0,0.0,0.0,-0.0202,-0.5464,-0.6469,0.0,0.0,0.0,0.0,-0.8038,-0.8038,-0.8038,-0.8038,-0.8038,-0.8038,-0.8038,-0.8038,-0.8038,-0.8038,-0.8038,-0.8038,-0.8038,-0.8038,-0.8038,-0.8038,-0.8038,-0.8038,-0.8038,-0.8038,-0.8038,-0.8038,-0.8038,-0.8038,-0.8038,-0.8038,-0.8038,-0.8038,-0.8038,-0.8038,-0.8038,-0.8038,-0.8038,-0.8038,-0.8038,-0.8038,-0.8038,-0.8038,-0.8038,-0.8038,-0.8038,-0.8038,-0.8038,-0.8038,-0.8528,-0.9899,-1.1165,-1.2431,-1.3782,-1.5146,-1.5832,-1.5832,-1.5832,-1.5832,-1.5832,-1.5832,-1.5832,-1.5832,-1.5832,-1.5832,-1.5832,-1.5832,-1.5832,0.0,0.0,0.0,0.0,0.0,0.0,0.0,0.0,0.0,0.0,0.0,0.0,0.0,0.0,0.0,0.0,0.0,0.0,0.0,0.0,0.0,0.0,0.0,0.0,0.0,0.0,0.0,0.0,0.0,0.0,0.0,0.0,0.0,0.0,0.0,0.0,0.0,0.0,0.0,0.0,0.0,-0.1918,-0.5564,-0.7202,0.0,0.0,0.0,0.0,0.0,-0.8038,-0.8038,-0.8038,-0.8038,-0.8038,-0.8038,-0.8038,-0.8038,-0.8038,-0.8038,-0.8038,-0.8038,-0.8038,-0.8038,-0.8038,-0.8038,-0.8038,-0.8038,-0.8038,-0.8038,-0.8038,-0.8038,-0.8038,-0.8038,-0.8038,-0.8038,-0.8038,-0.8038,-0.8038,-0.8038,-0.8038,-0.8038,-0.8038,-0.8038,-0.8038,-0.8038,-0.8038,-0.8038,-0.8038,-0.8038,-0.8038,-0.8038,-0.8038,-0.8038,-0.8137,-0.8627,-1.0681,-1.2042,-1.2528,-1.4567,-1.5832,-1.5832,-1.5832,-1.5832,-1.5832,-1.5832,-1.5832,-1.5832,-1.5832,-1.5832,-1.5832,-1.5832,-1.5832,0.0,0.0,0.0,0.0,0.0,0.0,0.0,0.0,0.0,0.0,0.0,0.0,0.0,0.0,0.0,0.0,0.0,0.0,0.0,0.0,0.0,0.0,0.0,0.0,0.0,0.0,0.0,0.0,0.0,0.0,0.0,0.0,0.0,0.0,0.0,0.0,0.0,0.0,0.0,0.0,0.0,-0.2827,-0.8026,-0.8016,0.0,0.0,0.0,0.0,0.0,-0.8038,-0.8038,-0.8038,-0.8038,-0.8038,-0.8038,-0.8038,-0.8038,-0.8038,-0.8038,-0.8038,-0.8038,-0.8038,-0.8038,-0.8038,-0.8038,-0.8038,-0.8038,-0.8038,-0.8038,-0.8038,-0.8038,-0.8038,-0.8038,-0.8038,-0.8082,-0.8126,-0.8126,-0.817,-0.8204,-0.8204,-0.8204,-0.8204,-0.8204,-0.8204,-0.8204,-0.8204,-0.816,-0.8126,-0.8126,-0.8075,-0.8038,-0.8038,-0.8038,-0.8038,-0.8038,-0.9998,-1.1361,-1.1853,-1.3884,-1.5337,-1.5737,-1.5832,-1.5832,-1.5832,-1.5832,-1.5832,-1.5832,-1.5832,-1.5832,-1.5832,-1.5832,-1.5832,0.0,0.0,0.0,0.0,0.0,0.0,0.0,0.0,0.0,0.0,0.0,0.0,0.0,0.0,0.0,0.0,0.0,0.0,0.0,0.0,0.0,0.0,0.0,0.0,0.0,0.0,0.0,0.0,0.0,0.0,0.0,0.0,0.0,0.0,0.0,0.0,0.0,0.0,-0.0202,-0.0606,-0.0606,-0.3131,-0.8019,-0.7999,0.0,0.0,0.0,0.0,0.0,-0.8038,-0.8038,-0.8038,-0.8038,-0.8038,-0.8038,-0.8038,-0.8038,-0.8038,-0.8038,-0.8038,-0.8038,-0.8038,-0.8038,-0.8038,-0.8038,-0.8038,-0.8038,-0.8038,-0.8038,-0.8038,-0.8038,-0.8038,-0.8041,-0.8055,-0.8167,-0.8275,-0.8282,-0.8387,-0.8482,-0.8482,-0.8482,-0.8482,-0.8482,-0.8482,-0.8482,-0.8482,-0.837,-0.8286,-0.8286,-0.816,-0.8072,-0.8072,-0.8062,-0.8055,-0.8055,-0.932,-1.0681,-1.1848,-1.3199,-1.4555,-1.573,-1.5832,-1.5832,-1.5832,-1.5832,-1.5832,-1.5832,-1.5832,-1.5832,-1.5832,-1.5832,-1.5838,0.0,0.0,0.0,0.0,0.0,0.0,0.0,0.0,0.0,0.0,0.0,0.0,0.0,0.0,0.0,0.0,0.0,0.0,0.0,0.0,0.0,0.0,0.0,0.0,0.0,0.0,0.0,0.0,0.0,0.0,0.0,0.0,0.0,0.0,0.0,0.0,0.0,0.0,-0.2019,-0.6078,-0.6078,-0.6779,-0.7985,-0.7979,0.0,0.0,0.0,0.0,-0.8038,-0.8038,-0.8038,-0.8038,-0.8038,-0.8038,-0.8038,-0.8038,-0.8038,-0.8038,-0.8038,-0.8038,-0.8038,-0.8038,-0.8038,-0.8038,-0.8038,-0.8038,-0.8038,-0.8038,-0.8038,-0.8038,-0.8038,-0.8038,-0.8069,-0.8187,-0.8245,-0.8299,-0.8411,-0.8459,-0.8482,-0.8482,-0.8482,-0.8482,-0.8482,-0.8482,-0.8482,-0.8482,-0.8455,-0.8431,-0.8431,-0.8401,-0.8377,-0.8377,-0.8282,-0.8214,-0.8214,-1.0181,-1.1556,-1.1848,-1.4076,-1.5534,-1.5825,-1.5832,-1.5832,-1.5832,-1.5832,-1.5832,-1.5832,-1.5832,-1.5832,-1.5832,-1.5832,-1.5952,0.0,0.0,0.0,0.0,0.0,0.0,0.0,0.0,0.0,0.0,0.0,0.0,0.0,0.0,0.0,0.0,0.0,0.0,0.0,0.0,0.0,0.0,0.0,0.0,0.0,0.0,0.0,0.0,0.0,0.0,0.0,0.0,0.0,0.0,0.0,0.0,0.0,-0.2424,-0.5157,-0.8026,-0.8016,-0.7999,-0.7972,-0.7972,-0.7962,0.0,0.0,0.0,-0.8038,-0.8038,-0.8038,-0.8038,-0.8038,-0.8038,-0.8038,-0.8038,-0.8038,-0.8038,-0.8038,-0.8038,-0.8038,-0.8038,-0.8038,-0.8038,-0.8038,-0.8038,-0.8038,-0.8038,-0.8038,-0.8038,-0.8038,-0.8038,-0.8079,-0.8235,-0.8319,-0.8408,-0.8557,-0.8642,-0.8693,-0.8693,-0.8693,-0.8693,-0.8693,-0.8693,-0.8693,-0.8693,-0.8632,-0.8587,-0.8587,-0.8526,-0.8482,-0.8482,-0.8414,-0.8367,-0.8367,-1.0107,-1.1169,-1.1082,-1.2915,-1.4274,-1.4854,-1.5534,-1.5832,-1.5832,-1.5832,-1.5832,-1.5832,-1.5965,-1.6032,-1.6039,-1.6172,-1.6313,0.0,0.0,0.0,0.0,0.0,0.0,0.0,0.0,0.0,0.0,0.0,0.0,0.0,0.0,0.0,0.0,0.0,0.0,0.0,0.0,0.0,0.0,0.0,0.0,0.0,0.0,0.0,0.0,0.0,0.0,0.0,0.0,0.0,0.0,0.0,-0.0404,-0.1212,-0.577,-0.8022,-0.8019,-0.7999,-0.7979,-0.7969,-0.7969,-0.7959,0.0,0.0,0.0,-0.8038,-0.8038,-0.8038,-0.8038,-0.8038,-0.8038,-0.8038,-0.8038,-0.8038,-0.8038,-0.8038,-0.8038,-0.8038,-0.8038,-0.8038,-0.8038,-0.8038,-0.8038,-0.8038,-0.8038,-0.8038,-0.8038,-0.8038,-0.8038,-0.8082,-0.8262,-0.8394,-0.853,-0.8706,-0.8849,-0.894,-0.894,-0.894,-0.894,-0.894,-0.894,-0.894,-0.894,-0.8828,-0.8747,-0.8747,-0.8632,-0.8554,-0.8554,-0.853,-0.8516,-0.8516,-0.953,-1.0006,-0.9805,-1.1166,-1.2531,-1.3899,-1.4781,-1.5473,-1.5965,-1.5767,-1.5671,-1.5965,-1.6213,-1.6339,-1.6346,-1.6587,-1.6734,0.0,0.0,0.0,0.0,0.0,0.0,0.0,0.0,0.0,0.0,0.0,0.0,0.0,0.0,0.0,0.0,0.0,0.0,0.0,0.0,0.0,0.0,0.0,0.0,0.0,0.0,0.0,0.0,0.0,0.0,0.0,0.0,0.0,0.0,0.0,-0.2222,-0.669,-0.7613,-0.8016,-0.7995,-0.7982,-0.7965,-0.8045,-0.8045,-0.8041,0.0,0.0,-0.8038,-0.8038,-0.8038,-0.8038,-0.8038,-0.8038,-0.8038,-0.8038,-0.8038,-0.8038,-0.8038,-0.8038,-0.8038,-0.8038,-0.8038,-0.8038,-0.8038,-0.8038,-0.8038,-0.8038,-0.8038,-0.8038,-0.8038,-0.8038,-0.8038,-0.8109,-0.8384,-0.8465,-0.856,-0.8842,-0.8923,-0.894,-0.894,-0.894,-0.894,-0.894,-0.894,-0.894,-0.894,-0.892,-0.8903,-0.8903,-0.8882,-0.8869,-0.8869,-0.8754,-0.8676,-0.8676,-0.8765,-0.8772,-0.8727,-1.0972,-1.2908,-1.4323,-1.3415,-1.4027,-1.6467,-1.5345,-1.5345,-1.6573,-1.662,-1.664,-1.664,-1.6687,-1.684,0.0,0.0,0.0,0.0,0.0,0.0,0.0,0.0,0.0,0.0,0.0,0.0,0.0,0.0,0.0,0.0,0.0,0.0,0.0,0.0,0.0,0.0,0.0,0.0,0.0,0.0,0.0,0.0,0.0,0.0,0.0,0.0,0.0,0.0,0.0,-0.2524,-0.7922,-0.8012,-0.7999,-0.7979,-0.7962,-0.8048,-0.8038,-0.8038,-0.8038,-0.8038,0.0,-0.8038,-0.8038,-0.8038,-0.8038,-0.8038,-0.8038,-0.8038,-0.8038,-0.8038,-0.8038,-0.8038,-0.8038,-0.8038,-0.8038,-0.8038,-0.8038,-0.8038,-0.8038,-0.8038,-0.8038,-0.8038,-0.8038,-0.8038,-0.8038,-0.8038,-0.8113,-0.8411,-0.8482,-0.8567,-0.8872,-0.894,-0.894,-0.894,-0.894,-0.894,-0.894,-0.894,-0.894,-0.894,-0.894,-0.894,-0.894,-0.894,-0.894,-0.894,-0.8876,-0.8832,-0.8832,-0.8771,-0.8976,-0.9526,-1.1367,-1.2807,-1.3319,-1.3421,-1.414,-1.5469,-1.4856,-1.5267,-1.6707,-1.6867,-1.6947,-1.6947,-1.7108,-1.7248,0.0,0.0,0.0,0.0,0.0,0.0,0.0,0.0,0.0,0.0,0.0,0.0,0.0,0.0,0.0,0.0,0.0,0.0,0.0,0.0,0.0,0.0,0.0,0.0,0.0,0.0,0.0,0.0,0.0,0.0,0.0,0.0,0.0,0.0,-0.1212,-0.3534,-0.6986,-0.7688,-0.7982,-0.7972,-0.8048,-0.8038,-0.8038,-0.8038,-0.8038,-0.8038,-0.8038,-0.8038,-0.8038,-0.8038,-0.8038,-0.8038,-0.8038,-0.8038,-0.8038,-0.8038,-0.8038,-0.8038,-0.8038,-0.8038,-0.8038,-0.8038,-0.8038,-0.8038,-0.8038,-0.8038,-0.8038,-0.8038,-0.8038,-0.8038,-0.8038,-0.8038,-0.8106,-0.837,-0.8459,-0.8557,-0.8825,-0.8913,-0.894,-0.894,-0.894,-0.894,-0.894,-0.894,-0.894,-0.894,-0.894,-0.894,-0.894,-0.894,-0.894,-0.894,-0.894,-0.894,-0.894,-0.894,-0.9268,-0.9965,-1.1094,-1.1822,-1.2135,-1.2759,-1.3686,-1.4727,-1.4413,-1.5143,-1.6907,-1.7141,-1.7248,-1.7255,-1.7475,-1.7582,0.0,0.0,0.0,0.0,0.0,0.0,0.0,0.0,0.0,0.0,0.0,0.0,0.0,0.0,0.0,0.0,0.0,0.0,0.0,0.0,0.0,0.0,0.0,0.0,0.0,0.0,0.0,0.0,0.0,0.0,0.0,0.0,0.0,0.0,-0.4853,-0.6372,-0.432,-0.6748,-0.7972,-0.7972,-0.8048,-0.8038,-0.8038,-0.8038,-0.8038,-0.8038,-0.8038,-0.8038,-0.8038,-0.8038,-0.8038,-0.8038,-0.8038,-0.8038,-0.8038,-0.8038,-0.8038,-0.8038,-0.8038,-0.8038,-0.8038,-0.8038,-0.8038,-0.8038,-0.8038,-0.8038,-0.8038,-0.8038,-0.8038,-0.8038,-0.8038,-0.8038,-0.8079,-0.8248,-0.8387,-0.8526,-0.8693,-0.8838,-0.894,-0.894,-0.894,-0.894,-0.894,-0.894,-0.894,-0.894,-0.894,-0.894,-0.894,-0.894,-0.894,-0.894,-0.894,-0.894,-0.894,-0.894,-0.893,-0.9016,-0.9123,-0.9771,-1.1176,-0.9987,-1.1172,-1.5252,-1.4073,-1.4719,-1.7522,-1.7542,-1.7549,-1.7555,-1.7569,-1.7582,0.0,0.0,0.0,0.0,0.0,0.0,0.0,0.0,0.0,0.0,0.0,0.0,0.0,0.0,0.0,0.0,0.0,0.0,0.0,0.0,0.0,0.0,0.0,0.0,0.0,0.0,0.0,0.0,0.0,0.0,0.0,0.0,0.0,-0.4956,-0.5347,-0.5842,-0.6442,-0.7463,-0.7965,-0.7952,-0.8041,-0.8038,-0.8038,-0.8038,-0.8038,-0.8038,-0.8038,-0.8038,-0.8038,-0.8038,-0.8038,-0.8038,-0.8038,-0.8038,-0.8038,-0.8038,-0.8038,-0.8038,-0.8038,-0.8038,-0.8038,-0.8038,-0.8038,-0.8038,-0.8038,-0.8038,-0.8038,-0.8038,-0.8038,-0.8038,-0.8038,-0.8038,-0.8079,-0.8235,-0.8377,-0.8523,-0.8676,-0.8828,-0.894,-0.894,-0.894,-0.894,-0.894,-0.894,-0.894,-0.894,-0.894,-0.894,-0.894,-0.894,-0.894,-0.894,-0.894,-0.894,-0.894,-0.894,-0.894,-0.894,-0.9809,-1.0131,-0.9699,-1.1,-1.2403,-1.4019,-1.4449,-1.563,-1.7582,-1.7582,-1.7582,-1.7582,-1.7582,-1.7582,0.0,0.0,0.0,0.0,0.0,0.0,0.0,0.0,0.0,0.0,0.0,0.0,0.0,0.0,0.0,0.0,0.0,0.0,0.0,0.0,0.0,0.0,0.0,0.0,0.0,0.0,0.0,0.0,0.0,0.0,0.0,0.0,0.0,0.0,-0.625,-0.6139,-0.7972,-0.7965,-0.7955,-0.8038,-0.8038,-0.8038,-0.8038,-0.8038,-0.8038,-0.8038,-0.8038,-0.8038,-0.8038,-0.8038,-0.8038,-0.8038,-0.8038,-0.8038,-0.8038,-0.8038,-0.8038,-0.8038,-0.8038,-0.8038,-0.8038,-0.8038,-0.8038,-0.8038,-0.8038,-0.8038,-0.8038,-0.8038,-0.8038,-0.8038,-0.8038,-0.8038,-0.8065,-0.8174,-0.8343,-0.8509,-0.8615,-0.8798,-0.894,-0.894,-0.894,-0.894,-0.894,-0.894,-0.894,-0.894,-0.894,-0.894,-0.894,-0.894,-0.894,-0.894,-0.894,-0.894,-0.894,-0.894,-0.894,-0.894,-1.0241,-1.0457,-0.8937,-1.1324,-1.2832,-1.3264,-1.4663,-1.6174,-1.7582,-1.7582,-1.7582,-1.7582,-1.7582,-1.7582,-0.0,0.0,0.0,0.0,0.0,0.0,0.0,0.0,0.0,0.0,0.0,0.0,0.0,0.0,0.0,0.0,0.0,0.0,0.0,0.0,0.0,0.0,0.0,0.0,0.0,0.0,0.0,0.0,0.0,0.0,0.0,0.0,0.0,0.0,-0.7979,-0.7972,-0.7972,-0.7952,-0.8038,-0.8038,-0.8038,-0.8038,-0.8038,-0.8038,-0.8038,-0.8038,-0.8038,-0.8038,-0.8038,-0.8038,-0.8038,-0.8038,-0.8038,-0.8038,-0.8038,-0.8038,-0.8038,-0.8038,-0.8038,-0.8038,-0.8038,-0.8038,-0.8038,-0.8038,-0.8038,-0.8038,-0.8038,-0.8038,-0.8038,-0.8038,-0.8038,-0.8038,-0.8038,-0.8038,-0.8265,-0.8482,-0.8482,-0.8723,-0.894,-0.894,-0.894,-0.894,-0.894,-0.894,-0.894,-0.894,-0.894,-0.894,-0.894,-0.894,-0.894,-0.894,-0.894,-0.894,-0.894,-0.894,-0.894,-0.8937,-1.0241,-1.0457,-0.8937,-1.0351,-1.1864,-1.3264,-1.4663,-1.6174,-1.7582,-1.7582,-1.7582,-1.7582,-1.7582,-1.7582,-0.0392,0.0,0.0,0.0,0.0,0.0,0.0,0.0,0.0,0.0,0.0,0.0,0.0,0.0,0.0,0.0,0.0,0.0,0.0,0.0,0.0,0.0,0.0,0.0,0.0,0.0,0.0,0.0,0.0,0.0,0.0,0.0,0.0,0.0,-0.7959,-0.8048,-0.8048,-0.8041,-0.8038,-0.8038,-0.8038,-0.8038,-0.8038,-0.8038,-0.8038,-0.8038,-0.8038,-0.8038,-0.8038,-0.8038,-0.8038,-0.8038,-0.8038,-0.8038,-0.8038,-0.8038,-0.8038,-0.8038,-0.8038,-0.8038,-0.8038,-0.8038,-0.8038,-0.8038,-0.8038,-0.8038,-0.8038,-0.8038,-0.8038,-0.8038,-0.8038,-0.8038,-0.8038,-0.8038,-0.8265,-0.8482,-0.8482,-0.8723,-0.894,-0.894,-0.894,-0.894,-0.894,-0.894,-0.894,-0.894,-0.894,-0.894,-0.894,-0.894,-0.894,-0.894,-0.894,-0.894,-0.894,-0.894,-0.9375,-1.0351,-1.0891,-1.0457,-0.8937,-1.229,-1.3906,-1.3264,-1.5743,-1.7147,-1.7582,-1.7582,-1.7582,-1.7582,-1.7582,-1.7582,-0.0783,0.0,0.0,0.0,0.0,0.0,0.0,0.0,0.0,0.0,0.0,0.0,0.0,0.0,0.0,0.0,0.0,0.0,0.0,0.0,0.0,0.0,0.0,0.0,0.0,0.0,0.0,0.0,0.0,0.0,0.0,0.0,0.0,0.0,-0.8045,-0.8038,-0.8038,-0.8038,-0.8038,-0.8038,-0.8038,-0.8038,-0.8038,-0.8038,-0.8038,-0.8038,-0.8038,-0.8038,-0.8038,-0.8038,-0.8038,-0.8038,-0.8038,-0.8038,-0.8038,-0.8038,-0.8038,-0.8038,-0.8038,-0.8038,-0.8038,-0.8038,-0.8038,-0.8038,-0.8038,-0.8038,-0.8038,-0.8038,-0.8038,-0.8038,-0.8038,-0.8085,-0.8133,-0.8133,-0.8309,-0.8499,-0.856,-0.8764,-0.894,-0.894,-0.894,-0.894,-0.894,-0.894,-0.894,-0.894,-0.894,-0.894,-0.894,-0.894,-0.894,-0.894,-0.9372,-0.9809,-0.9809,-0.9809,-1.0347,-1.1864,-1.1969,-1.1538,-1.0672,-1.3691,-1.477,-1.3372,-1.6174,-1.7259,-1.6717,-1.7259,-1.7582,-1.7582,-1.7582,-1.7582,0.0,0.0,0.0,0.0,0.0,0.0,0.0,0.0,0.0,0.0,0.0,0.0,0.0,0.0,0.0,0.0,0.0,0.0,0.0,0.0,0.0,0.0,0.0,0.0,0.0,0.0,0.0,0.0,0.0,0.0,0.0,0.0,0.0,0.0,-0.8038,-0.8038,-0.8038,-0.8038,-0.8038,0.0,-0.8038,-0.8038,-0.8038,-0.8038,-0.8038,-0.8038,-0.8038,-0.8038,-0.8038,-0.8038,-0.8038,-0.8038,-0.8038,-0.8038,-0.8038,-0.8038,-0.8038,-0.8038,-0.8038,-0.8038,-0.8038,-0.8038,-0.8038,-0.8038,-0.8038,-0.8038,-0.8038,-0.8038,-0.8038,-0.8038,-0.8038,-0.8153,-0.8275,-0.8286,-0.8397,-0.854,-0.8679,-0.8828,-0.894,-0.894,-0.894,-0.894,-0.894,-0.894,-0.894,-0.894,-0.9047,-0.9047,-0.894,-0.894,-0.8937,-0.9047,-1.0351,-1.1105,-1.1324,-1.1324,-1.1969,-1.3372,-1.348,-1.3588,-1.3696,-1.4877,-1.4984,-1.348,-1.6174,-1.6929,-1.563,-1.6935,-1.7582,-1.7582,-1.7582,-1.7582,0.0,0.0,0.0,0.0,0.0,0.0,0.0,0.0,0.0,0.0,0.0,0.0,0.0,0.0,0.0,0.0,0.0,0.0,0.0,0.0,0.0,0.0,0.0,0.0,0.0,0.0,0.0,0.0,0.0,0.0,0.0,0.0,0.0,-0.8038,-0.8038,-0.8038,-0.8038,-0.8038,-0.8038,0.0,-0.8038,-0.8038,-0.8038,-0.8038,-0.8038,-0.8038,-0.8038,-0.8038,-0.8038,-0.8038,-0.8038,-0.8038,-0.8038,-0.8038,-0.8038,-0.8038,-0.8038,-0.8038,-0.8038,-0.8038,-0.8038,-0.8038,-0.8038,-0.8038,-0.8038,-0.8038,-0.8038,-0.8038,-0.8038,-0.8038,-0.8038,-0.8153,-0.8299,-0.8411,-0.8554,-0.8669,-0.8703,-0.8828,-0.894,-0.894,-0.894,-0.894,-0.894,-0.894,-0.894,-0.894,-0.9915,-1.0241,-0.9047,-0.894,-0.9375,-1.0457,-1.0891,-1.1538,-1.2729,-1.2837,-1.348,-1.4877,-1.4984,-1.5417,-1.6611,-1.6929,-1.6393,-1.4984,-1.6717,-1.747,-1.7147,-1.747,-1.7582,-1.7582,-1.7582,-1.7582,0.0,0.0,0.0,0.0,0.0,0.0,0.0,0.0,0.0,0.0,0.0,0.0,0.0,0.0,0.0,0.0,0.0,0.0,0.0,0.0,0.0,0.0,0.0,0.0,0.0,0.0,0.0,0.0,0.0,0.0,0.0,-0.8038,-0.8038,-0.8038,-0.8038,-0.8038,-0.8038,-0.8038,-0.8038,-0.8038,-0.8038,-0.8038,-0.8038,-0.8038,-0.8038,-0.8038,-0.8038,-0.8038,-0.8038,-0.8038,-0.8038,-0.8038,-0.8038,-0.8038,-0.8038,-0.8038,-0.8038,-0.8038,-0.8038,-0.8038,-0.8038,-0.8038,-0.8038,-0.8038,-0.8038,-0.8038,-0.8038,-0.8038,-0.8038,-0.8038,-0.8038,-0.8204,-0.8391,-0.8465,-0.8601,-0.873,-0.8804,-0.8882,-0.894,-0.894,-0.894,-0.894,-0.894,-0.9482,-0.9915,-0.9915,-1.1214,-1.1647,-1.0131,-0.9915,-1.0241,-1.0996,-1.1755,-1.2724,-1.4126,-1.4341,-1.4877,-1.6387,-1.5743,-1.6062,-1.7582,-1.7582,-1.6929,-1.5417,-1.6823,-1.7252,-1.6499,-1.7252,-1.7582,-1.7582,-1.7582,-1.7582,0.0,0.0,0.0,0.0,0.0,0.0,0.0,0.0,0.0,0.0,0.0,0.0,0.0,0.0,0.0,0.0,0.0,0.0,0.0,0.0,0.0,0.0,0.0,0.0,0.0,0.0,0.0,0.0,0.0,0.0,-0.8038,-0.8038,-0.8038,-0.8038,-0.8038,-0.8038,-0.8038,-0.8038,-0.8038,-0.8038,-0.8038,-0.8038,-0.8038,-0.8038,-0.8038,-0.8038,-0.8038,-0.8038,-0.8038,-0.8038,-0.8038,-0.8038,-0.8038,-0.8038,-0.8038,-0.8038,-0.8038,-0.8038,-0.8038,-0.8038,-0.8038,-0.8038,-0.8038,-0.8038,-0.8038,-0.8038,-0.8038,-0.8038,-0.8038,-0.8038,-0.8038,-0.8258,-0.8482,-0.8482,-0.8618,-0.8784,-0.891,-0.894,-0.894,-0.894,-0.894,-0.8937,-0.9265,-1.0457,-1.1433,-1.1433,-1.2724,-1.3156,-1.1647,-1.1433,-1.1538,-1.1864,-1.294,-1.4234,-1.5636,-1.5743,-1.628,-1.7477,-1.6493,-1.628,-1.7582,-1.7582,-1.7041,-1.5849,-1.6935,-1.7035,-1.5743,-1.7035,-1.7582,-1.7582,-1.7582,-1.7582,0.0,0.0,0.0,0.0,0.0,0.0,0.0,0.0,0.0,0.0,0.0,0.0,0.0,0.0,0.0,0.0,0.0,0.0,0.0,0.0,0.0,0.0,0.0,0.0,0.0,0.0,0.0,0.0,0.0,0.0,-0.8038,-0.8038,-0.8038,-0.8038,-0.8038,-0.8038,-0.8038,-0.8038,-0.8038,-0.8038,-0.8038,-0.8038,-0.8038,-0.8038,-0.8038,-0.8038,-0.8038,-0.8038,-0.8038,-0.8038,-0.8038,-0.8038,-0.8038,-0.8038,-0.8038,-0.8038,-0.8038,-0.8038,-0.8038,-0.8038,-0.8038,-0.8038,-0.8038,-0.8038,-0.8038,-0.8038,-0.8038,-0.8038,-0.8038,-0.8038,-0.8038,-0.8258,-0.8482,-0.8482,-0.8699,-0.8913,-0.8933,-0.894,-0.894,-0.894,-0.894,-0.9265,-1.0566,-1.2082,-1.3048,-1.3048,-1.4234,-1.4556,-1.3156,-1.3048,-1.348,-1.4663,-1.4984,-1.5743,-1.7147,-1.7259,-1.7364,-1.7582,-1.747,-1.7364,-1.7582,-1.7582,-1.7477,-1.7259,-1.7477,-1.7477,-1.7259,-1.7477,-1.7582,-1.7582,-1.7582,-1.7582,0.0,0.0,0.0,0.0,0.0,0.0,0.0,0.0,0.0,0.0,0.0,0.0,0.0,0.0,0.0,0.0,0.0,0.0,0.0,0.0,0.0,0.0,0.0,0.0,0.0,0.0,0.0,0.0,0.0,-0.8038,-0.8038,-0.8038,-0.8038,-0.8038,-0.8038,-0.8038,-0.8038,-0.8038,-0.8038,-0.8038,-0.8038,-0.8038,-0.8038,-0.8038,-0.8038,-0.8038,-0.8038,-0.8038,-0.8038,-0.8038,-0.8038,-0.8038,-0.8038,-0.8038,-0.8038,-0.8038,-0.8038,-0.8038,-0.8038,-0.8038,-0.8038,-0.8038,-0.8038,-0.8038,-0.8038,-0.8038,-0.8038,-0.8038,-0.8038,-0.8038,-0.8038,-0.8258,-0.8482,-0.8482,-0.8716,-0.894,-0.894,-0.894,-0.894,-0.894,-0.9592,-1.0351,-1.1,-1.294,-1.4449,-1.4449,-1.5743,-1.6068,-1.4663,-1.4449,-1.4663,-1.531,-1.5417,-1.5962,-1.747,-1.7582,-1.7582,-1.7582,-1.7582,-1.7582,-1.7582,-1.7582,-1.7582,-1.7582,-1.7582,-1.7582,-1.7582,-1.7582,-1.7582,-1.7582,-1.7582,-1.7582,0.0,0.0,0.0,0.0,0.0,0.0,0.0,0.0,0.0,0.0,0.0,0.0,0.0,0.0,0.0,0.0,0.0,0.0,0.0,0.0,0.0,0.0,0.0,0.0,0.0,0.0,0.0,0.0,0.0,-0.8038,-0.8038,-0.8038,-0.8038,-0.8038,-0.8038,-0.8038,-0.8038,-0.8038,-0.8038,-0.8038,-0.8038,-0.8038,-0.8038,-0.8038,-0.8038,-0.8038,-0.8038,-0.8038,-0.8038,-0.8038,-0.8038,-0.8038,-0.8038,-0.8038,-0.8038,-0.8038,-0.8038,-0.8038,-0.8038,-0.8038,-0.8038,-0.8038,-0.8038,-0.8038,-0.8038,-0.8038,-0.8038,-0.8038,-0.8038,-0.8038,-0.8038,-0.8231,-0.8438,-0.8472,-0.8686,-0.8893,-0.893,-0.9154,-0.9482,-0.9482,-1.0672,-1.1755,-1.2077,-1.4019,-1.5524,-1.5849,-1.6929,-1.7147,-1.6068,-1.5956,-1.5956,-1.5956,-1.5956,-1.6393,-1.7477,-1.7582,-1.7582,-1.7582,-1.7582,-1.7582,-1.7582,-1.7582,-1.7582,-1.7582,-1.7582,-1.7582,-1.7582,-1.7582,-1.7582,-1.7582,-1.7582,-1.7582,0.0,0.0,0.0,0.0,0.0,0.0,0.0,0.0,0.0,0.0,0.0,0.0,0.0,0.0,0.0,0.0,0.0,0.0,0.0,0.0,0.0,0.0,0.0,0.0,0.0,0.0,0.0,0.0,0.0,-0.8038,-0.8038,-0.8038,-0.8038,-0.8038,-0.8038,-0.8038,-0.8038,-0.8038,-0.8038,-0.8038,-0.8038,-0.8038,-0.8038,-0.8038,-0.8038,-0.8038,-0.8038,-0.8038,-0.8038,-0.8038,-0.8038,-0.8038,-0.8038,-0.8038,-0.8038,-0.8038,-0.8038,-0.8038,-0.8038,-0.8038,-0.8038,-0.8038,-0.8038,-0.8038,-0.8038,-0.8038,-0.8038,-0.8038,-0.8038,-0.8038,-0.8038,-0.816,-0.8316,-0.8452,-0.8604,-0.876,-0.8906,-1.0025,-1.1,-1.1,-1.2186,-1.3588,-1.4984,-1.531,-1.5849,-1.7259,-1.7582,-1.7582,-1.7477,-1.7477,-1.7477,-1.7477,-1.7477,-1.7477,-1.7582,-1.7582,-1.7582,-1.7582,-1.7582,-1.7582,-1.7582,-1.7582,-1.7582,-1.7582,-1.7582,-1.7582,-1.7582,-1.7582,-1.7582,-1.7582,-1.7582,-1.7582,0.0,0.0,0.0,0.0,0.0,0.0,0.0,0.0,0.0,0.0,0.0,0.0,0.0,0.0,0.0,0.0,0.0,0.0,0.0,0.0,0.0,0.0,0.0,0.0,0.0,0.0,0.0,0.0,0.0,0.0,-0.8038,-0.8038,-0.8038,-0.8038,-0.8038,-0.8038,-0.8038,-0.8038,-0.8038,-0.8038,-0.8038,-0.8038,-0.8038,-0.8038,-0.8038,-0.8038,-0.8038,-0.8038,-0.8038,-0.8038,-0.8038,-0.8038,-0.8038,-0.8038,-0.8038,-0.8038,-0.8038,-0.8038,-0.8038,-0.8038,-0.8038,-0.8038,-0.8038,-0.8038,-0.8038,-0.8038,-0.8038,-0.8038,-0.8038,-0.8038,-0.8038,-0.8153,-0.833,-0.857,-0.8669,-0.8754,-0.8906,-1.0021,-1.1428,-1.2295,-1.3696,-1.477,-1.5304,-1.6174,-1.7041,-1.7477,-1.7582,-1.7582,-1.7582,-1.7582,-1.7582,-1.7582,-1.7582,-1.7582,-1.7582,-1.7582,-1.7582,-1.7582,-1.7582,-1.7582,-1.7582,-1.7582,-1.7582,-1.7582,-1.7582,-1.7582,-1.7582,-1.7582,-1.7582,-1.7582,-1.7582,-1.7582,0.0,0.0,0.0,0.0,0.0,0.0,0.0,0.0,0.0,0.0,0.0,0.0,0.0,0.0,0.0,0.0,0.0,0.0,0.0,0.0,0.0,0.0,0.0,0.0,0.0,0.0,0.0,0.0,0.0,0.0,-0.8038,-0.8038,-0.8038,-0.8038,-0.8038,-0.8038,-0.8038,-0.8038,-0.8038,-0.8038,-0.8038,-0.8038,-0.8038,-0.8038,-0.8038,-0.8038,-0.8038,-0.8038,-0.8038,-0.8038,-0.8038,-0.8038,-0.8038,-0.8038,-0.8038,-0.8038,-0.8038,-0.8038,-0.8038,-0.8038,-0.8038,-0.8038,-0.8038,-0.8038,-0.8038,-0.8038,-0.8038,-0.8038,-0.8038,-0.8038,-0.8038,-0.8153,-0.8319,-0.8516,-0.8601,-0.8887,-1.0008,-1.1059,-1.2077,-1.3156,-1.4883,-1.6174,-1.6174,-1.6935,-1.7582,-1.7582,-1.7582,-1.7582,-1.7582,-1.7582,-1.7582,-1.7582,-1.7582,-1.7582,-1.7582,-1.7582,-1.7582,-1.7582,-1.7582,-1.7582,-1.7582,-1.7582,-1.7582,-1.7582,-1.7582,-1.7582,-1.7582,-1.7582,-1.7582,-1.7582,-1.7582,-1.7582,0.0,0.0,0.0,0.0,0.0,0.0,0.0,0.0,0.0,0.0,0.0,0.0,0.0,0.0,0.0,0.0,0.0,0.0,0.0,0.0,0.0,0.0,0.0,0.0,0.0,0.0,0.0,0.0,0.0,-0.8038,-0.8038,-0.8038,-0.8038,-0.8038,-0.8038,-0.8038,-0.8038,-0.8038,-0.8038,-0.8038,-0.8038,-0.8038,-0.8038,-0.8038,-0.8038,-0.8038,-0.8038,-0.8038,-0.8038,-0.8038,-0.8038,-0.8038,-0.8038,-0.8038,-0.8038,-0.8038,-0.8038,-0.8038,-0.8038,-0.8038,-0.8038,-0.8038,-0.8038,-0.8038,-0.8038,-0.8038,-0.8038,-0.8038,-0.8038,-0.8038,-0.8038,-0.815,-0.8265,-0.8269,-0.8377,-0.9347,-1.2245,-1.3098,-1.3367,-1.3372,-1.5743,-1.7582,-1.7582,-1.7582,-1.7582,-1.7582,-1.7582,-1.7582,-1.7582,-1.7582,-1.7582,-1.7582,-1.7582,-1.7582,-1.7582,-1.7582,-1.7582,-1.7582,-1.7582,-1.7582,-1.7582,-1.7582,-1.7582,-1.7582,-1.7582,-1.7582,-1.7582,-1.7582,-1.7582,-1.7582,-1.7582,-1.7582,-0.6338,0.0,0.0,0.0,0.0,0.0,0.0,0.0,0.0,0.0,0.0,0.0,0.0,0.0,0.0,0.0,0.0,0.0,0.0,0.0,0.0,0.0,0.0,0.0,0.0,0.0,0.0,0.0,-0.8038,-0.8038,-0.8038,-0.8038,-0.8038,-0.8038,-0.8038,-0.8038,-0.8038,-0.8038,-0.8038,-0.8038,-0.8038,-0.8038,-0.8038,-0.8038,-0.8038,-0.8038,-0.8038,-0.8038,-0.8038,-0.8038,-0.8038,-0.8038,-0.8038,-0.8038,-0.8038,-0.8038,-0.8038,-0.8038,-0.8038,-0.8038,-0.8038,-0.8038,-0.8038,-0.8038,-0.8038,-0.8038,-0.8038,-0.8038,-0.8038,-0.8038,-0.8038,-0.8072,-0.8133,-0.8245,-0.8299,-0.8909,-1.1067,-1.2341,-1.3699,-1.6025,-1.7041,-1.7582,-1.7582,-1.7582,-1.7582,-1.7582,-1.7582,-1.7582,-1.7582,-1.7582,-1.7582,-1.7582,-1.7582,-1.7582,-1.7582,-1.7582,-1.7582,-1.7582,-1.7582,-1.7582,-1.7582,-1.7582,-1.7582,-1.7582,-1.7582,-1.7582,-1.7582,-1.7582,-1.7582,-1.7582,-1.7582,-1.7582,0.0,0.0,0.0,0.0,0.0,0.0,-0.6366,-0.6498,0.0,0.0,0.0,0.0,0.0,0.0,0.0,0.0,0.0,0.0,0.0,0.0,0.0,0.0,0.0,0.0,0.0,0.0,0.0,-0.8038,-0.8038,-0.8038,-0.8038,-0.8038,-0.8038,-0.8038,-0.8038,-0.8038,-0.8038,-0.8038,-0.8038,-0.8038,-0.8038,-0.8038,-0.8038,-0.8038,-0.8038,-0.8038,-0.8038,-0.8038,-0.8038,-0.8038,-0.8038,-0.8038,-0.8038,-0.8038,-0.8038,-0.8038,-0.8038,-0.8038,-0.8038,-0.8038,-0.8038,-0.8038,-0.8038,-0.8038,-0.8038,-0.8038,-0.8038,-0.8038,-0.8038,-0.8038,-0.8038,-0.8038,-0.8158,-0.8847,-0.9124,-0.9749,-1.1987,-1.3284,-1.4477,-1.6337,-1.7147,-1.7582,-1.7582,-1.7582,-1.7582,-1.7582,-1.7582,-1.7582,-1.7582,-1.7582,-1.7582,-1.7582,-1.7582,-1.7582,-1.7582,-1.7582,-1.7582,-1.7582,-1.7582,-1.7582,-1.7582,-1.7582,-1.7582,-1.7582,-1.7582,-1.7582,-1.7582,-1.7582,-1.7582,-1.7582,-1.7582,-1.7582,0.0,0.0,0.0,0.0,0.0,0.0,-0.6338,-0.6369,-0.6512,0.0,0.0,0.0,0.0,0.0,0.0,0.0,0.0,0.0,0.0,0.0,0.0,0.0,0.0,0.0,0.0,-0.8038,-0.8038,-0.8038,-0.8038,-0.8038,-0.8038,-0.8038,-0.8038,-0.8038,-0.8038,-0.8038,-0.8038,-0.8038,-0.8038,-0.8038,-0.8038,-0.8038,-0.8038,-0.8038,-0.8038,-0.8038,-0.8038,-0.8038,-0.8038,-0.8038,-0.8038,-0.8038,-0.8038,-0.8038,-0.8038,-0.8038,-0.8038,-0.8038,-0.8038,-0.8038,-0.8038,-0.8038,-0.8038,-0.8038,-0.8038,-0.8038,-0.8038,-0.8038,-0.8038,-0.8038,-0.8038,-0.8038,-0.8333,-0.9509,-1.0137,-1.1125,-1.3976,-1.4859,-1.5332,-1.5589,-1.6711,-1.7582,-1.7582,-1.7582,-1.7582,-1.7582,-1.7582,-1.7582,-1.7582,-1.7582,-1.7582,-1.7582,-1.7582,-1.7582,-1.7582,-1.7582,-1.7582,-1.7582,-1.7582,-1.7582,-1.7582,-1.7582,-1.7582,-1.7582,-1.7582,-1.7582,-1.7582,-1.7582,-1.7582,-1.7582,-1.7582,-1.7582,0.0,0.0,0.0,0.0,0.0,0.0,-0.6338,-0.6369,-0.6481,0.0,0.0,0.0,0.0,0.0,0.0,0.0,0.0,0.0,0.0,0.0,0.0,0.0,0.0,0.0,0.0,-0.8038,-0.8038,-0.8038,-0.8038,-0.8038,-0.8038,-0.8038,-0.8038,-0.8038,-0.8038,-0.8038,-0.8038,-0.8038,-0.8038,-0.8038,-0.8038,-0.8038,-0.8038,-0.8038,-0.8038,-0.8038,-0.8038,-0.8038,-0.8038,-0.8038,-0.8038,-0.8038,-0.8038,-0.8038,-0.8038,-0.8038,-0.8038,-0.8038,-0.8038,-0.8038,-0.8038,-0.8038,-0.8038,-0.8038,-0.8038,-0.8038,-0.8038,-0.8038,-0.8038,-0.8038,-0.8038,-0.8038,-0.8038,-0.8333,-0.9446,-1.0927,-1.2761,-1.4241,-1.5547,-1.6877,-1.7364,-1.7582,-1.7582,-1.7582,-1.7582,-1.7582,-1.7582,-1.7582,-1.7582,-1.7582,-1.7582,-1.7582,-1.7582,-1.7582,-1.7582,-1.7582,-1.7582,-1.7582,-1.7582,-1.7582,-1.7582,-1.7582,-1.7582,-1.7582,-1.7582,-1.7582,-1.7582,-1.7582,-1.7582,-1.7582,-1.7582,-1.7582,0.0,0.0,0.0,-0.6338,0.0,0.0,0.0,-0.6315,-0.6386,0.0,0.0,0.0,0.0,0.0,0.0,0.0,0.0,0.0,0.0,0.0,0.0,0.0,0.0,0.0,0.0,-0.8038,-0.8038,-0.8038,-0.8038,-0.8038,-0.8038,-0.8038,-0.8038,-0.8038,-0.8038,-0.8038,-0.8038,-0.8038,-0.8038,-0.8038,-0.8038,-0.8038,-0.8038,-0.8038,-0.8038,-0.8038,-0.8038,-0.8038,-0.8038,-0.8038,-0.8038,-0.8038,-0.8038,-0.8038,-0.8038,-0.8038,-0.8038,-0.8038,-0.8038,-0.8038,-0.8038,-0.8038,-0.8038,-0.8038,-0.8038,-0.8038,-0.8038,-0.8038,-0.8038,-0.8038,-0.8038,-0.8038,-0.8354,-0.9817,-1.0878,-1.2196,-1.4481,-1.5683,-1.6663,-1.7443,-1.7582,-1.7582,-1.7582,-1.7582,-1.7582,-1.7582,-1.7582,-1.7582,-1.7582,-1.7582,-1.7582,-1.7582,-1.7582,-1.7582,-1.7582,-1.7582,-1.7582,-1.7582,-1.7582,-1.7582,-1.7582,-1.7582,-1.7582,-1.7582,-1.7582,-1.7582,-1.7582,-1.7582,-1.7582,-1.7582,-1.7582,-1.7582,0.0,0.0,0.0,0.0,0.0,-0.6338,0.0,0.0,0.0,-0.6407,0.0,0.0,0.0,0.0,0.0,0.0,0.0,0.0,0.0,0.0,0.0,0.0,0.0,0.0,0.0,-0.8038,-0.8038,-0.8038,-0.8038,-0.8038,-0.8038,-0.8038,-0.8038,-0.8038,-0.8038,-0.8038,-0.8038,-0.8038,-0.8038,-0.8038,-0.8038,-0.8038,-0.8038,-0.8038,-0.8038,-0.8038,-0.8038,-0.8038,-0.8038,-0.8038,-0.8038,-0.8038,-0.8038,-0.8038,-0.8038,-0.8038,-0.8038,-0.8038,-0.8038,-0.8038,-0.8038,-0.8038,-0.8038,-0.8038,-0.8333,-0.8237,-0.8038,-0.8333,-0.8432,-0.8432,-0.8432,-0.8652,-0.9498,-1.1834,-1.2887,-1.3859,-1.6259,-1.7271,-1.7582,-1.7582,-1.7582,-1.7582,-1.7582,-1.7582,-1.7582,-1.7582,-1.7582,-1.7582,-1.7582,-1.7582,-1.7582,-1.7582,-1.7582,-1.7582,-1.7582,-1.7582,-1.7582,-1.7582,-1.7582,-1.7582,-1.7582,-1.7582,-1.7582,-1.7582,-1.7582,-1.7582,-1.7582,-1.7582,-1.7582,-1.7582,-1.7582,-1.7582,0.0,0.0,0.0,0.0,-0.6338,0.0,0.0,0.0,-0.6268,-0.6281,0.0,0.0,0.0,0.0,0.0,0.0,0.0,0.0,0.0,0.0,0.0,0.0,0.0,0.0,0.0,0.0,-0.8038,-0.8038,-0.8038,-0.8038,-0.8038,-0.8038,-0.8038,-0.8038,-0.8038,-0.8038,-0.8038,-0.8038,-0.8038,-0.8038,-0.8038,-0.8038,-0.8038,-0.8038,-0.8038,-0.8038,-0.8038,-0.8038,-0.8038,-0.8038,-0.8038,-0.8038,-0.8038,-0.8038,-0.8038,-0.8038,-0.8038,-0.8038,-0.8038,-0.8038,-0.8038,-0.8038,-0.8038,-0.8233,-0.941,-0.892,-0.8237,-0.941,-0.9805,-0.9805,-0.9805,-1.0812,-1.1949,-1.2274,-1.3727,-1.5018,-1.5359,-1.6526,-1.7582,-1.7582,-1.7582,-1.7582,-1.7582,-1.7582,-1.7582,-1.7582,-1.7582,-1.7582,-1.7582,-1.7582,-1.7582,-1.7582,-1.7582,-1.7582,-1.7582,-1.7582,-1.7582,-1.7582,-1.7582,-1.7582,-1.7582,-1.7582,-1.7582,-1.7582,-1.7582,-1.7582,-1.7582,-1.7582,-1.7582,-1.7582,-1.7582,-1.7582,0.0,0.0,0.0,0.0,0.0,0.0,0.0,0.0,-0.6383,0.0,0.0,0.0,0.0,0.0,0.0,0.0,0.0,0.0,0.0,0.0,0.0,0.0,0.0,0.0,0.0,0.0,0.0,0.0,0.0,-0.8038,-0.8038,-0.8038,-0.8038,-0.8038,-0.8038,-0.8038,-0.8038,-0.8038,-0.8038,-0.8038,-0.8038,-0.8432,-0.9118,-0.8333,-0.8432,-0.9118,-0.9118,-0.9118,-0.9213,-0.9998,-1.0288,-1.0288,-1.0288,-0.9312,-0.8038,-0.8038,-0.8038,-0.8038,-0.8038,-0.8038,-0.8038,-0.8038,-0.8038,-0.8137,-0.8627,-0.9019,-0.9316,-0.9801,-1.0485,-1.1198,-1.1316,-1.1909,-1.2646,-1.3733,-1.4579,-1.5407,-1.6409,-1.7068,-1.7582,-1.7582,-1.7582,-1.7582,-1.7582,-1.7582,-1.7582,-1.7582,-1.7582,-1.7582,-1.7582,-1.7582,-1.7582,-1.7582,-1.7582,-1.7582,-1.7582,-1.7582,-1.7582,-1.7582,-1.7582,-1.7582,-1.7582,-1.7582,-1.7582,-1.7582,-1.7582,-1.7582,-1.7582,-1.7582,-1.7582,-1.7582,-1.7582,-1.7582,-0.6702,0.0,0.0,0.0,0.0,0.0,0.0,0.0,0.0,0.0,0.0,0.0,0.0,0.0,0.0,0.0,0.0,0.0,0.0,0.0,0.0,0.0,0.0,0.0,0.0,0.0,0.0,0.0,-0.8014,-0.8038,-0.8038,-0.8038,-0.8038,-0.8038,-0.8038,-0.8038,-0.8038,-0.8038,-0.8038,-0.8038,-0.8038,-0.8726,-0.9998,-0.9019,-0.9118,-0.9998,-1.0386,-1.0293,-1.0096,-1.1365,-1.1945,-1.1945,-1.1945,-1.0779,-0.9118,-0.9118,-0.9118,-0.9019,-0.8627,-0.8528,-0.8528,-0.8528,-0.8825,-0.9118,-0.9501,-0.9993,-1.0583,-1.097,-1.179,-1.2562,-1.283,-1.3274,-1.4072,-1.5378,-1.5842,-1.6162,-1.7325,-1.7582,-1.7582,-1.7582,-1.7582,-1.7582,-1.7582,-1.7582,-1.7582,-1.7582,-1.7582,-1.7582,-1.7582,-1.7582,-1.7582,-1.7582,-1.7582,-1.7582,-1.7582,-1.7582,-1.7582,-1.7582,-1.7582,-1.7582,-1.7582,-1.7582,-1.7582,-1.7582,-1.7582,-1.7582,-1.7582,-1.7582,-1.7582,-1.7582,-1.7582,-1.7582,0.0,0.0,0.0,-0.6698,0.0,0.0,0.0,0.0,-0.6695,0.0,0.0,0.0,0.0,0.0,0.0,-0.7139,0.0,0.0,0.0,0.0,0.0,0.0,0.0,0.0,0.0,0.0,0.0,-0.7818,-0.7957,-0.8038,-0.8038,-0.8038,-0.8038,-0.8038,-0.8038,-0.8038,-0.8038,-0.8038,-0.8038,-0.8038,-0.8038,-0.8726,-0.9998,-0.9998,-0.9998,-1.0096,-1.1268,-1.117,-1.0096,-1.1365,-1.1945,-1.1945,-1.1945,-1.1848,-1.175,-1.175,-1.175,-1.1556,-1.0386,-0.9899,-0.9899,-0.9899,-1.0779,-1.2042,-1.3295,-1.2813,-1.2139,-1.3392,-1.3957,-1.4248,-1.4254,-1.5658,-1.7018,-1.7141,-1.7361,-1.7569,-1.7582,-1.7582,-1.7582,-1.7582,-1.7582,-1.7582,-1.7582,-1.7582,-1.7582,-1.7582,-1.7582,-1.7582,-1.7582,-1.7582,-1.7582,-1.7582,-1.7582,-1.7582,-1.7582,-1.7582,-1.7582,-1.7582,-1.7582,-1.7582,-1.7582,-1.7582,-1.7582,-1.7582,-1.7582,-1.7582,-1.7582,-1.7582,-1.7582,-1.7582,-1.7582,-1.7582,0.0,0.0,-0.6875,-0.6966,0.0,0.0,0.0,0.0,0.0,0.0,0.0,0.0,0.0,0.0,-0.7139,-0.7139,-0.7139,0.0,0.0,0.0,0.0,0.0,0.0,0.0,0.0,0.0,0.0,-0.7804,-0.7858,-0.7933,0.0,-0.8038,-0.8038,-0.8038,-0.8038,-0.8038,-0.8038,-0.8038,-0.8038,-0.8038,-0.8038,-0.9118,-1.1268,-1.0391,-1.097,-1.2619,-1.3006,-1.3006,-1.2716,-1.398,-1.4465,-1.4465,-1.4465,-1.4465,-1.4274,-1.2528,-1.1945,-1.1853,-1.1365,-1.1268,-1.1268,-1.1268,-1.1556,-1.1945,-1.2431,-1.3019,-1.3537,-1.4027,-1.5017,-1.5982,-1.6175,-1.6682,-1.7194,-1.7388,-1.7508,-1.7582,-1.7582,-1.7582,-1.7582,-1.7582,-1.7582,-1.7582,-1.7582,-1.7582,-1.7582,-1.7582,-1.7582,-1.7582,-1.7582,-1.7582,-1.7582,-1.7582,-1.7582,-1.7582,-1.7582,-1.7582,-1.7582,-1.7582,-1.7582,-1.7582,-1.7582,-1.7582,-1.7582,-1.7582,-1.7582,-1.7582,-1.7582,-1.7582,-1.7582,-1.7582,-1.7582,-1.7582,-0.7139,-0.7075,0.0,-0.7115,-0.7071,0.0,-0.7004,0.0,0.0,0.0,0.0,0.0,0.0,0.0,0.0,-0.7139,-0.7139,-0.7139,0.0,-0.7139,0.0,0.0,0.0,0.0,0.0,0.0,-0.7923,-0.8765,-0.8225,-0.8046,0.0,0.0,-0.8038,-0.8038,-0.8038,-0.8038,-0.8038,-0.8038,-0.8038,-0.8038,-0.8038,-0.9118,-1.1165,-1.0877,-1.1551,-1.3199,-1.4172,-1.4364,-1.3974,-1.5242,-1.5832,-1.5832,-1.5832,-1.5832,-1.5635,-1.3884,-1.3011,-1.2624,-1.2624,-1.2624,-1.2624,-1.2624,-1.2975,-1.3436,-1.3436,-1.4299,-1.5103,-1.5103,-1.6014,-1.6907,-1.7101,-1.7228,-1.7355,-1.7542,-1.7582,-1.7582,-1.7582,-1.7582,-1.7582,-1.7582,-1.7582,-1.7582,-1.7582,-1.7582,-1.7582,-1.7582,-1.7582,-1.7582,-1.7582,-1.7582,-1.7582,-1.7582,-1.7582,-1.7582,-1.7582,-1.7582,-1.7582,-1.7582,-1.7582,-1.7582,-1.7582,-1.7582,-1.7582,-1.7582,-1.7582,-1.7582,-1.7582,-1.7582,-1.7582,-1.7582,-1.7582,-1.7582]}]]